Wetterdaten: Mittwoch, 21.06.2023
Datum Zeit Temp. 2m Temp +5 cm Feuchte A. Luftdruck Regen Wind Richtung Richtung Sonnenschein UV Solar Taupunkt Windchill Windben
21.06.2023 00:00 18,6 C 17,8 C 80 % 1014,4 hPa 0,0 l/m 6,4 km/h (2 Bft) W-SW 247 0 min 0,0 UV-I 0 W/m 15,1 C 18,6 C 12,9 km/h (3 Bft)
21.06.2023 00:01 18,6 C 17,8 C 80 % 1014,5 hPa 0,0 l/m 8,0 km/h (2 Bft) W-NW 292 0 min 0,0 UV-I 0 W/m 15,1 C 17,9 C 11,3 km/h (2 Bft)
21.06.2023 00:02 18,5 C 17,8 C 80 % 1014,5 hPa 0,0 l/m 4,8 km/h (1 Bft) W 270 0 min 0,0 UV-I 0 W/m 15,0 C 18,5 C 9,7 km/h (2 Bft)
21.06.2023 00:03 18,5 C 17,8 C 80 % 1014,5 hPa 0,0 l/m 4,8 km/h (1 Bft) W 270 0 min 0,0 UV-I 0 W/m 15,0 C 18,5 C 6,4 km/h (2 Bft)
21.06.2023 00:04 18,4 C 17,8 C 80 % 1014,4 hPa 0,0 l/m 4,8 km/h (1 Bft) W 270 0 min 0,0 UV-I 0 W/m 14,9 C 18,4 C 9,7 km/h (2 Bft)
21.06.2023 00:05 18,4 C 17,8 C 80 % 1014,4 hPa 0,0 l/m 1,6 km/h (1 Bft) W 270 0 min 0,0 UV-I 0 W/m 14,9 C 18,4 C 3,2 km/h (1 Bft)
21.06.2023 00:06 18,4 C 17,8 C 80 % 1014,4 hPa 0,0 l/m 1,6 km/h (1 Bft) W 270 0 min 0,0 UV-I 0 W/m 14,9 C 18,4 C 4,8 km/h (1 Bft)
21.06.2023 00:07 18,3 C 17,8 C 81 % 1014,4 hPa 0,0 l/m 0,0 km/h (0 Bft) W 270 0 min 0,0 UV-I 0 W/m 15,0 C 18,3 C 1,6 km/h (1 Bft)
21.06.2023 00:08 18,3 C 17,2 C 81 % 1014,5 hPa 0,0 l/m 3,2 km/h (1 Bft) W 270 0 min 0,0 UV-I 0 W/m 15,0 C 18,3 C 4,8 km/h (1 Bft)
21.06.2023 00:09 18,3 C 17,2 C 81 % 1014,4 hPa 0,0 l/m 4,8 km/h (1 Bft) W-NW 292 0 min 0,0 UV-I 0 W/m 15,0 C 18,3 C 8,0 km/h (2 Bft)
21.06.2023 00:10 18,2 C 17,2 C 81 % 1014,4 hPa 0,0 l/m 1,6 km/h (1 Bft) N-NW 337 0 min 0,0 UV-I 0 W/m 14,9 C 18,2 C 3,2 km/h (1 Bft)
21.06.2023 00:11 18,1 C 16,7 C 81 % 1014,3 hPa 0,0 l/m 1,6 km/h (1 Bft) N-NW 337 0 min 0,0 UV-I 0 W/m 14,8 C 18,1 C 3,2 km/h (1 Bft)
21.06.2023 00:12 18,1 C 16,7 C 81 % 1014,4 hPa 0,0 l/m 1,6 km/h (1 Bft) N-NW 337 0 min 0,0 UV-I 0 W/m 14,8 C 18,1 C 3,2 km/h (1 Bft)
21.06.2023 00:13 17,9 C 16,7 C 82 % 1014,4 hPa 0,0 l/m 3,2 km/h (1 Bft) W-NW 292 0 min 0,0 UV-I 0 W/m 14,8 C 17,9 C 6,4 km/h (2 Bft)
21.06.2023 00:14 17,9 C 16,7 C 82 % 1014,4 hPa 0,0 l/m 1,6 km/h (1 Bft) W-NW 292 0 min 0,0 UV-I 0 W/m 14,8 C 17,9 C 3,2 km/h (1 Bft)
21.06.2023 00:15 17,8 C 16,7 C 82 % 1014,4 hPa 0,0 l/m 3,2 km/h (1 Bft) W-NW 292 0 min 0,0 UV-I 0 W/m 14,7 C 17,8 C 6,4 km/h (2 Bft)
21.06.2023 00:16 17,8 C 16,7 C 82 % 1014,4 hPa 0,0 l/m 3,2 km/h (1 Bft) W-NW 292 0 min 0,0 UV-I 0 W/m 14,7 C 17,8 C 6,4 km/h (2 Bft)
21.06.2023 00:17 17,7 C 16,1 C 82 % 1014,4 hPa 0,0 l/m 1,6 km/h (1 Bft) W-NW 292 0 min 0,0 UV-I 0 W/m 14,6 C 17,7 C 3,2 km/h (1 Bft)
21.06.2023 00:18 17,7 C 16,1 C 83 % 1014,4 hPa 0,0 l/m 1,6 km/h (1 Bft) W-NW 292 0 min 0,0 UV-I 0 W/m 14,8 C 17,7 C 3,2 km/h (1 Bft)
21.06.2023 00:19 17,6 C 16,1 C 83 % 1014,5 hPa 0,0 l/m 1,6 km/h (1 Bft) W-NW 292 0 min 0,0 UV-I 0 W/m 14,7 C 17,6 C 4,8 km/h (1 Bft)
21.06.2023 00:20 17,6 C 16,1 C 83 % 1014,5 hPa 0,0 l/m 4,8 km/h (1 Bft) W-SW 247 0 min 0,0 UV-I 0 W/m 14,7 C 17,6 C 9,7 km/h (2 Bft)
21.06.2023 00:21 17,5 C 16,1 C 83 % 1014,5 hPa 0,0 l/m 3,2 km/h (1 Bft) W 270 0 min 0,0 UV-I 0 W/m 14,6 C 17,5 C 4,8 km/h (1 Bft)
21.06.2023 00:22 17,5 C 16,1 C 84 % 1014,4 hPa 0,0 l/m 3,2 km/h (1 Bft) W 270 0 min 0,0 UV-I 0 W/m 14,8 C 17,5 C 4,8 km/h (1 Bft)
21.06.2023 00:23 17,4 C 16,1 C 83 % 1014,6 hPa 0,0 l/m 3,2 km/h (1 Bft) W 270 0 min 0,0 UV-I 0 W/m 14,5 C 17,4 C 4,8 km/h (1 Bft)
21.06.2023 00:24 17,4 C 16,1 C 84 % 1014,5 hPa 0,0 l/m 3,2 km/h (1 Bft) W 270 0 min 0,0 UV-I 0 W/m 14,7 C 17,4 C 4,8 km/h (1 Bft)
21.06.2023 00:25 17,4 C 16,1 C 84 % 1014,5 hPa 0,0 l/m 3,2 km/h (1 Bft) W 270 0 min 0,0 UV-I 0 W/m 14,7 C 17,4 C 4,8 km/h (1 Bft)
21.06.2023 00:26 17,4 C 16,1 C 84 % 1014,4 hPa 0,0 l/m 4,8 km/h (1 Bft) W 270 0 min 0,0 UV-I 0 W/m 14,7 C 17,4 C 6,4 km/h (2 Bft)
21.06.2023 00:27 17,3 C 16,1 C 84 % 1014,5 hPa 0,0 l/m 3,2 km/h (1 Bft) W 270 0 min 0,0 UV-I 0 W/m 14,6 C 17,3 C 4,8 km/h (1 Bft)
21.06.2023 00:28 17,3 C 15,6 C 84 % 1014,4 hPa 0,0 l/m 3,2 km/h (1 Bft) W 270 0 min 0,0 UV-I 0 W/m 14,6 C 17,3 C 4,8 km/h (1 Bft)
21.06.2023 00:29 17,3 C 15,6 C 84 % 1014,4 hPa 0,0 l/m 3,2 km/h (1 Bft) W 270 0 min 0,0 UV-I 0 W/m 14,6 C 17,3 C 4,8 km/h (1 Bft)
21.06.2023 00:30 17,2 C 15,6 C 84 % 1014,4 hPa 0,0 l/m 3,2 km/h (1 Bft) W 270 0 min 0,0 UV-I 0 W/m 14,5 C 17,2 C 4,8 km/h (1 Bft)
21.06.2023 00:31 17,2 C 15,6 C 84 % 1014,5 hPa 0,0 l/m 3,2 km/h (1 Bft) W 270 0 min 0,0 UV-I 0 W/m 14,5 C 17,2 C 6,4 km/h (2 Bft)
21.06.2023 00:32 17,2 C 15,6 C 84 % 1014,4 hPa 0,0 l/m 3,2 km/h (1 Bft) W 270 0 min 0,0 UV-I 0 W/m 14,5 C 17,2 C 4,8 km/h (1 Bft)
21.06.2023 00:33 17,1 C 15,6 C 85 % 1014,4 hPa 0,0 l/m 3,2 km/h (1 Bft) W 270 0 min 0,0 UV-I 0 W/m 14,6 C 17,1 C 4,8 km/h (1 Bft)
21.06.2023 00:34 17,1 C 15,6 C 85 % 1014,4 hPa 0,0 l/m 1,6 km/h (1 Bft) W 270 0 min 0,0 UV-I 0 W/m 14,6 C 17,1 C 3,2 km/h (1 Bft)
21.06.2023 00:35 17,1 C 15,0 C 85 % 1014,4 hPa 0,0 l/m 1,6 km/h (1 Bft) W 270 0 min 0,0 UV-I 0 W/m 14,6 C 17,1 C 3,2 km/h (1 Bft)
21.06.2023 00:36 17,1 C 15,0 C 85 % 1014,4 hPa 0,0 l/m 1,6 km/h (1 Bft) W 270 0 min 0,0 UV-I 0 W/m 14,6 C 17,1 C 3,2 km/h (1 Bft)
21.06.2023 00:37 17,0 C 15,0 C 85 % 1014,4 hPa 0,0 l/m 1,6 km/h (1 Bft) W 270 0 min 0,0 UV-I 0 W/m 14,5 C 17,0 C 3,2 km/h (1 Bft)
21.06.2023 00:38 17,0 C 15,0 C 85 % 1014,4 hPa 0,0 l/m 1,6 km/h (1 Bft) W 270 0 min 0,0 UV-I 0 W/m 14,5 C 17,0 C 3,2 km/h (1 Bft)
21.06.2023 00:39 16,9 C 15,0 C 85 % 1014,4 hPa 0,0 l/m 0,0 km/h (0 Bft) W 270 0 min 0,0 UV-I 0 W/m 14,4 C 16,9 C 1,6 km/h (1 Bft)
21.06.2023 00:40 16,9 C 15,0 C 85 % 1014,4 hPa 0,0 l/m 1,6 km/h (1 Bft) W 270 0 min 0,0 UV-I 0 W/m 14,4 C 16,9 C 3,2 km/h (1 Bft)
21.06.2023 00:41 16,9 C 15,0 C 85 % 1014,4 hPa 0,0 l/m 1,6 km/h (1 Bft) W 270 0 min 0,0 UV-I 0 W/m 14,4 C 16,9 C 3,2 km/h (1 Bft)
21.06.2023 00:42 16,8 C 15,0 C 85 % 1014,4 hPa 0,0 l/m 1,6 km/h (1 Bft) W 270 0 min 0,0 UV-I 0 W/m 14,3 C 16,8 C 1,6 km/h (1 Bft)
21.06.2023 00:43 16,8 C 15,0 C 85 % 1014,3 hPa 0,0 l/m 0,0 km/h (0 Bft) W 270 0 min 0,0 UV-I 0 W/m 14,3 C 16,8 C 1,6 km/h (1 Bft)
21.06.2023 00:44 16,8 C 15,0 C 86 % 1014,4 hPa 0,0 l/m 1,6 km/h (1 Bft) W 270 0 min 0,0 UV-I 0 W/m 14,4 C 16,8 C 3,2 km/h (1 Bft)
21.06.2023 00:45 16,8 C 15,0 C 86 % 1014,3 hPa 0,0 l/m 1,6 km/h (1 Bft) W 270 0 min 0,0 UV-I 0 W/m 14,4 C 16,8 C 1,6 km/h (1 Bft)
21.06.2023 00:46 16,8 C 15,0 C 86 % 1014,3 hPa 0,0 l/m 1,6 km/h (1 Bft) W 270 0 min 0,0 UV-I 0 W/m 14,4 C 16,8 C 1,6 km/h (1 Bft)
21.06.2023 00:47 16,7 C 15,0 C 86 % 1014,3 hPa 0,0 l/m 1,6 km/h (1 Bft) W 270 0 min 0,0 UV-I 0 W/m 14,3 C 16,7 C 1,6 km/h (1 Bft)
21.06.2023 00:48 16,7 C 15,0 C 86 % 1014,3 hPa 0,0 l/m 1,6 km/h (1 Bft) W 270 0 min 0,0 UV-I 0 W/m 14,3 C 16,7 C 1,6 km/h (1 Bft)
21.06.2023 00:49 16,7 C 15,0 C 86 % 1014,3 hPa 0,0 l/m 1,6 km/h (1 Bft) W 270 0 min 0,0 UV-I 0 W/m 14,3 C 16,7 C 1,6 km/h (1 Bft)
21.06.2023 00:50 16,7 C 15,0 C 86 % 1014,4 hPa 0,0 l/m 1,6 km/h (1 Bft) W 270 0 min 0,0 UV-I 0 W/m 14,3 C 16,7 C 3,2 km/h (1 Bft)
21.06.2023 00:51 16,6 C 15,0 C 86 % 1014,4 hPa 0,0 l/m 1,6 km/h (1 Bft) W 270 0 min 0,0 UV-I 0 W/m 14,2 C 16,6 C 3,2 km/h (1 Bft)
21.06.2023 00:52 16,6 C 15,0 C 86 % 1014,5 hPa 0,0 l/m 1,6 km/h (1 Bft) W 270 0 min 0,0 UV-I 0 W/m 14,2 C 16,6 C 3,2 km/h (1 Bft)
21.06.2023 00:53 16,7 C 15,0 C 86 % 1014,5 hPa 0,0 l/m 0,0 km/h (0 Bft) W 270 0 min 0,0 UV-I 0 W/m 14,3 C 16,7 C 1,6 km/h (1 Bft)
21.06.2023 00:54 16,6 C 15,0 C 86 % 1014,5 hPa 0,0 l/m 1,6 km/h (1 Bft) W 270 0 min 0,0 UV-I 0 W/m 14,2 C 16,6 C 1,6 km/h (1 Bft)
21.06.2023 00:55 16,6 C 15,0 C 86 % 1014,4 hPa 0,0 l/m 1,6 km/h (1 Bft) W 270 0 min 0,0 UV-I 0 W/m 14,2 C 16,6 C 3,2 km/h (1 Bft)
21.06.2023 00:56 16,6 C 15,0 C 86 % 1014,5 hPa 0,0 l/m 1,6 km/h (1 Bft) W 270 0 min 0,0 UV-I 0 W/m 14,2 C 16,6 C 3,2 km/h (1 Bft)
21.06.2023 00:57 16,5 C 15,0 C 86 % 1014,5 hPa 0,0 l/m 1,6 km/h (1 Bft) W 270 0 min 0,0 UV-I 0 W/m 14,1 C 16,5 C 3,2 km/h (1 Bft)
21.06.2023 00:58 16,5 C 15,0 C 86 % 1014,4 hPa 0,0 l/m 1,6 km/h (1 Bft) W 270 0 min 0,0 UV-I 0 W/m 14,1 C 16,5 C 1,6 km/h (1 Bft)
21.06.2023 00:59 16,5 C 14,4 C 87 % 1014,4 hPa 0,0 l/m 1,6 km/h (1 Bft) W 270 0 min 0,0 UV-I 0 W/m 14,3 C 16,5 C 3,2 km/h (1 Bft)
21.06.2023 01:00 16,5 C 14,4 C 87 % 1014,5 hPa 0,0 l/m 3,2 km/h (1 Bft) W 270 0 min 0,0 UV-I 0 W/m 14,3 C 16,5 C 3,2 km/h (1 Bft)
21.06.2023 01:01 16,4 C 14,4 C 87 % 1014,5 hPa 0,0 l/m 1,6 km/h (1 Bft) W 270 0 min 0,0 UV-I 0 W/m 14,2 C 16,4 C 3,2 km/h (1 Bft)
21.06.2023 01:02 16,4 C 14,4 C 87 % 1014,5 hPa 0,0 l/m 3,2 km/h (1 Bft) W 270 0 min 0,0 UV-I 0 W/m 14,2 C 16,4 C 3,2 km/h (1 Bft)
21.06.2023 01:03 16,4 C 14,4 C 87 % 1014,5 hPa 0,0 l/m 3,2 km/h (1 Bft) W 270 0 min 0,0 UV-I 0 W/m 14,2 C 16,4 C 4,8 km/h (1 Bft)
21.06.2023 01:04 16,4 C 14,4 C 87 % 1014,5 hPa 0,0 l/m 3,2 km/h (1 Bft) W 270 0 min 0,0 UV-I 0 W/m 14,2 C 16,4 C 3,2 km/h (1 Bft)
21.06.2023 01:05 16,4 C 14,4 C 87 % 1014,5 hPa 0,0 l/m 1,6 km/h (1 Bft) W 270 0 min 0,0 UV-I 0 W/m 14,2 C 16,4 C 3,2 km/h (1 Bft)
21.06.2023 01:06 16,4 C 14,4 C 87 % 1014,5 hPa 0,0 l/m 3,2 km/h (1 Bft) W 270 0 min 0,0 UV-I 0 W/m 14,2 C 16,4 C 3,2 km/h (1 Bft)
21.06.2023 01:07 16,4 C 14,4 C 87 % 1014,4 hPa 0,0 l/m 1,6 km/h (1 Bft) W 270 0 min 0,0 UV-I 0 W/m 14,2 C 16,4 C 3,2 km/h (1 Bft)
21.06.2023 01:08 16,4 C 14,4 C 87 % 1014,4 hPa 0,0 l/m 3,2 km/h (1 Bft) W 270 0 min 0,0 UV-I 0 W/m 14,2 C 16,4 C 3,2 km/h (1 Bft)
21.06.2023 01:09 16,3 C 14,4 C 87 % 1014,4 hPa 0,0 l/m 3,2 km/h (1 Bft) W 270 0 min 0,0 UV-I 0 W/m 14,1 C 16,3 C 3,2 km/h (1 Bft)
21.06.2023 01:10 16,3 C 14,4 C 87 % 1014,4 hPa 0,0 l/m 3,2 km/h (1 Bft) W 270 0 min 0,0 UV-I 0 W/m 14,1 C 16,3 C 4,8 km/h (1 Bft)
21.06.2023 01:11 16,3 C 14,4 C 87 % 1014,4 hPa 0,0 l/m 3,2 km/h (1 Bft) W 270 0 min 0,0 UV-I 0 W/m 14,1 C 16,3 C 4,8 km/h (1 Bft)
21.06.2023 01:12 16,3 C 14,4 C 87 % 1014,3 hPa 0,0 l/m 3,2 km/h (1 Bft) W 270 0 min 0,0 UV-I 0 W/m 14,1 C 16,3 C 3,2 km/h (1 Bft)
21.06.2023 01:13 16,3 C 14,4 C 88 % 1014,4 hPa 0,0 l/m 3,2 km/h (1 Bft) W 270 0 min 0,0 UV-I 0 W/m 14,3 C 16,3 C 3,2 km/h (1 Bft)
21.06.2023 01:14 16,3 C 14,4 C 87 % 1014,4 hPa 0,0 l/m 3,2 km/h (1 Bft) W 270 0 min 0,0 UV-I 0 W/m 14,1 C 16,3 C 4,8 km/h (1 Bft)
21.06.2023 01:15 16,3 C 14,4 C 88 % 1014,3 hPa 0,0 l/m 3,2 km/h (1 Bft) W 270 0 min 0,0 UV-I 0 W/m 14,3 C 16,3 C 3,2 km/h (1 Bft)
21.06.2023 01:16 16,2 C 13,9 C 87 % 1014,3 hPa 0,0 l/m 3,2 km/h (1 Bft) W 270 0 min 0,0 UV-I 0 W/m 14,0 C 16,2 C 3,2 km/h (1 Bft)
21.06.2023 01:17 16,2 C 13,9 C 88 % 1014,3 hPa 0,0 l/m 3,2 km/h (1 Bft) W 270 0 min 0,0 UV-I 0 W/m 14,2 C 16,2 C 3,2 km/h (1 Bft)
21.06.2023 01:18 16,2 C 13,9 C 88 % 1014,2 hPa 0,0 l/m 3,2 km/h (1 Bft) W 270 0 min 0,0 UV-I 0 W/m 14,2 C 16,2 C 3,2 km/h (1 Bft)
21.06.2023 01:19 16,2 C 13,9 C 88 % 1014,3 hPa 0,0 l/m 3,2 km/h (1 Bft) W 270 0 min 0,0 UV-I 0 W/m 14,2 C 16,2 C 4,8 km/h (1 Bft)
21.06.2023 01:20 16,2 C 13,9 C 88 % 1014,3 hPa 0,0 l/m 3,2 km/h (1 Bft) W 270 0 min 0,0 UV-I 0 W/m 14,2 C 16,2 C 3,2 km/h (1 Bft)
21.06.2023 01:21 16,2 C 13,9 C 88 % 1014,3 hPa 0,0 l/m 1,6 km/h (1 Bft) W 270 0 min 0,0 UV-I 0 W/m 14,2 C 16,2 C 3,2 km/h (1 Bft)
21.06.2023 01:22 16,2 C 13,9 C 88 % 1014,3 hPa 0,0 l/m 1,6 km/h (1 Bft) W 270 0 min 0,0 UV-I 0 W/m 14,2 C 16,2 C 1,6 km/h (1 Bft)
21.06.2023 01:23 16,1 C 13,9 C 87 % 1014,3 hPa 0,0 l/m 0,0 km/h (0 Bft) W 270 0 min 0,0 UV-I 0 W/m 13,9 C 16,1 C 1,6 km/h (1 Bft)
21.06.2023 01:24 16,0 C 13,9 C 87 % 1014,3 hPa 0,0 l/m 1,6 km/h (1 Bft) W 270 0 min 0,0 UV-I 0 W/m 13,8 C 16,0 C 3,2 km/h (1 Bft)
21.06.2023 01:25 15,9 C 13,9 C 87 % 1014,3 hPa 0,0 l/m 1,6 km/h (1 Bft) W 270 0 min 0,0 UV-I 0 W/m 13,7 C 15,9 C 3,2 km/h (1 Bft)
21.06.2023 01:26 15,8 C 13,9 C 87 % 1014,3 hPa 0,0 l/m 1,6 km/h (1 Bft) W 270 0 min 0,0 UV-I 0 W/m 13,6 C 15,8 C 3,2 km/h (1 Bft)
21.06.2023 01:27 15,7 C 13,9 C 88 % 1014,2 hPa 0,0 l/m 3,2 km/h (1 Bft) W 270 0 min 0,0 UV-I 0 W/m 13,7 C 15,7 C 3,2 km/h (1 Bft)
21.06.2023 01:28 15,7 C 13,9 C 88 % 1014,3 hPa 0,0 l/m 1,6 km/h (1 Bft) W 270 0 min 0,0 UV-I 0 W/m 13,7 C 15,7 C 3,2 km/h (1 Bft)
21.06.2023 01:29 15,7 C 13,9 C 88 % 1014,2 hPa 0,0 l/m 1,6 km/h (1 Bft) W 270 0 min 0,0 UV-I 0 W/m 13,7 C 15,7 C 1,6 km/h (1 Bft)
21.06.2023 01:30 15,7 C 13,9 C 88 % 1014,3 hPa 0,0 l/m 1,6 km/h (1 Bft) W 270 0 min 0,0 UV-I 0 W/m 13,7 C 15,7 C 3,2 km/h (1 Bft)
21.06.2023 01:31 15,7 C 13,9 C 88 % 1014,3 hPa 0,0 l/m 3,2 km/h (1 Bft) W 270 0 min 0,0 UV-I 0 W/m 13,7 C 15,7 C 3,2 km/h (1 Bft)
21.06.2023 01:32 15,7 C 13,9 C 88 % 1014,3 hPa 0,0 l/m 3,2 km/h (1 Bft) W 270 0 min 0,0 UV-I 0 W/m 13,7 C 15,7 C 3,2 km/h (1 Bft)
21.06.2023 01:33 15,6 C 13,9 C 88 % 1014,3 hPa 0,0 l/m 1,6 km/h (1 Bft) W 270 0 min 0,0 UV-I 0 W/m 13,6 C 15,6 C 3,2 km/h (1 Bft)
21.06.2023 01:34 15,7 C 13,9 C 89 % 1014,3 hPa 0,0 l/m 3,2 km/h (1 Bft) W 270 0 min 0,0 UV-I 0 W/m 13,9 C 15,7 C 3,2 km/h (1 Bft)
21.06.2023 01:35 15,7 C 13,9 C 89 % 1014,3 hPa 0,0 l/m 3,2 km/h (1 Bft) W 270 0 min 0,0 UV-I 0 W/m 13,9 C 15,7 C 3,2 km/h (1 Bft)
21.06.2023 01:36 15,7 C 13,9 C 89 % 1014,2 hPa 0,0 l/m 1,6 km/h (1 Bft) W 270 0 min 0,0 UV-I 0 W/m 13,9 C 15,7 C 3,2 km/h (1 Bft)
21.06.2023 01:37 15,7 C 13,9 C 89 % 1014,3 hPa 0,0 l/m 1,6 km/h (1 Bft) W 270 0 min 0,0 UV-I 0 W/m 13,9 C 15,7 C 3,2 km/h (1 Bft)
21.06.2023 01:38 15,6 C 13,9 C 89 % 1014,2 hPa 0,0 l/m 1,6 km/h (1 Bft) W 270 0 min 0,0 UV-I 0 W/m 13,8 C 15,6 C 3,2 km/h (1 Bft)
21.06.2023 01:39 15,6 C 13,9 C 89 % 1014,3 hPa 0,0 l/m 3,2 km/h (1 Bft) W 270 0 min 0,0 UV-I 0 W/m 13,8 C 15,6 C 4,8 km/h (1 Bft)
21.06.2023 01:40 15,6 C 13,9 C 89 % 1014,3 hPa 0,0 l/m 3,2 km/h (1 Bft) W 270 0 min 0,0 UV-I 0 W/m 13,8 C 15,6 C 3,2 km/h (1 Bft)
21.06.2023 01:41 15,6 C 13,9 C 89 % 1014,4 hPa 0,0 l/m 3,2 km/h (1 Bft) W 270 0 min 0,0 UV-I 0 W/m 13,8 C 15,6 C 4,8 km/h (1 Bft)
21.06.2023 01:42 15,6 C 13,9 C 89 % 1014,4 hPa 0,0 l/m 1,6 km/h (1 Bft) W 270 0 min 0,0 UV-I 0 W/m 13,8 C 15,6 C 3,2 km/h (1 Bft)
21.06.2023 01:43 15,6 C 13,9 C 89 % 1014,4 hPa 0,0 l/m 1,6 km/h (1 Bft) W 270 0 min 0,0 UV-I 0 W/m 13,8 C 15,6 C 3,2 km/h (1 Bft)
21.06.2023 01:44 15,6 C 13,9 C 89 % 1014,4 hPa 0,0 l/m 1,6 km/h (1 Bft) W 270 0 min 0,0 UV-I 0 W/m 13,8 C 15,6 C 3,2 km/h (1 Bft)
21.06.2023 01:45 15,6 C 13,9 C 89 % 1014,4 hPa 0,0 l/m 1,6 km/h (1 Bft) W 270 0 min 0,0 UV-I 0 W/m 13,8 C 15,6 C 3,2 km/h (1 Bft)
21.06.2023 01:46 15,6 C 13,9 C 89 % 1014,4 hPa 0,0 l/m 3,2 km/h (1 Bft) W 270 0 min 0,0 UV-I 0 W/m 13,8 C 15,6 C 4,8 km/h (1 Bft)
21.06.2023 01:47 15,6 C 13,9 C 89 % 1014,4 hPa 0,0 l/m 1,6 km/h (1 Bft) W 270 0 min 0,0 UV-I 0 W/m 13,8 C 15,6 C 3,2 km/h (1 Bft)
21.06.2023 01:48 15,6 C 13,9 C 89 % 1014,3 hPa 0,0 l/m 3,2 km/h (1 Bft) W 270 0 min 0,0 UV-I 0 W/m 13,8 C 15,6 C 3,2 km/h (1 Bft)
21.06.2023 01:49 15,6 C 13,9 C 89 % 1014,3 hPa 0,0 l/m 1,6 km/h (1 Bft) W 270 0 min 0,0 UV-I 0 W/m 13,8 C 15,6 C 3,2 km/h (1 Bft)
21.06.2023 01:50 15,7 C 13,9 C 89 % 1014,3 hPa 0,0 l/m 1,6 km/h (1 Bft) W 270 0 min 0,0 UV-I 0 W/m 13,9 C 15,7 C 3,2 km/h (1 Bft)
21.06.2023 01:51 15,7 C 13,9 C 89 % 1014,3 hPa 0,0 l/m 3,2 km/h (1 Bft) W 270 0 min 0,0 UV-I 0 W/m 13,9 C 15,7 C 4,8 km/h (1 Bft)
21.06.2023 01:52 15,8 C 13,9 C 89 % 1014,2 hPa 0,0 l/m 1,6 km/h (1 Bft) W 270 0 min 0,0 UV-I 0 W/m 14,0 C 15,8 C 3,2 km/h (1 Bft)
21.06.2023 01:53 15,8 C 13,9 C 89 % 1014,3 hPa 0,0 l/m 1,6 km/h (1 Bft) W 270 0 min 0,0 UV-I 0 W/m 14,0 C 15,8 C 3,2 km/h (1 Bft)
21.06.2023 01:54 15,7 C 13,9 C 89 % 1014,3 hPa 0,0 l/m 3,2 km/h (1 Bft) W 270 0 min 0,0 UV-I 0 W/m 13,9 C 15,7 C 4,8 km/h (1 Bft)
21.06.2023 01:55 15,8 C 13,9 C 90 % 1014,2 hPa 0,0 l/m 3,2 km/h (1 Bft) W 270 0 min 0,0 UV-I 0 W/m 14,2 C 15,8 C 4,8 km/h (1 Bft)
21.06.2023 01:56 15,8 C 13,9 C 90 % 1014,3 hPa 0,0 l/m 4,8 km/h (1 Bft) W 270 0 min 0,0 UV-I 0 W/m 14,2 C 15,8 C 6,4 km/h (2 Bft)
21.06.2023 01:57 15,9 C 14,4 C 90 % 1014,3 hPa 0,0 l/m 3,2 km/h (1 Bft) W-SW 247 0 min 0,0 UV-I 0 W/m 14,3 C 15,9 C 4,8 km/h (1 Bft)
21.06.2023 01:58 15,9 C 14,4 C 90 % 1014,3 hPa 0,0 l/m 4,8 km/h (1 Bft) W-SW 247 0 min 0,0 UV-I 0 W/m 14,3 C 15,9 C 4,8 km/h (1 Bft)
21.06.2023 01:59 15,9 C 13,9 C 90 % 1014,3 hPa 0,0 l/m 3,2 km/h (1 Bft) W-SW 247 0 min 0,0 UV-I 0 W/m 14,3 C 15,9 C 4,8 km/h (1 Bft)
21.06.2023 02:00 15,9 C 13,9 C 90 % 1014,3 hPa 0,0 l/m 3,2 km/h (1 Bft) W-SW 247 0 min 0,0 UV-I 0 W/m 14,3 C 15,9 C 6,4 km/h (2 Bft)
21.06.2023 02:01 15,9 C 14,4 C 90 % 1014,2 hPa 0,0 l/m 4,8 km/h (1 Bft) W-SW 247 0 min 0,0 UV-I 0 W/m 14,3 C 15,9 C 6,4 km/h (2 Bft)
21.06.2023 02:02 15,9 C 14,4 C 89 % 1014,3 hPa 0,0 l/m 4,8 km/h (1 Bft) W-SW 247 0 min 0,0 UV-I 0 W/m 14,1 C 15,9 C 6,4 km/h (2 Bft)
21.06.2023 02:03 16,0 C 14,4 C 89 % 1014,3 hPa 0,0 l/m 3,2 km/h (1 Bft) W-SW 247 0 min 0,0 UV-I 0 W/m 14,2 C 16,0 C 3,2 km/h (1 Bft)
21.06.2023 02:04 16,0 C 14,4 C 89 % 1014,3 hPa 0,0 l/m 4,8 km/h (1 Bft) W-SW 247 0 min 0,0 UV-I 0 W/m 14,2 C 16,0 C 6,4 km/h (2 Bft)
21.06.2023 02:05 16,0 C 14,4 C 89 % 1014,4 hPa 0,0 l/m 4,8 km/h (1 Bft) W-SW 247 0 min 0,0 UV-I 0 W/m 14,2 C 16,0 C 6,4 km/h (2 Bft)
21.06.2023 02:06 16,0 C 14,4 C 89 % 1014,4 hPa 0,0 l/m 3,2 km/h (1 Bft) W-SW 247 0 min 0,0 UV-I 0 W/m 14,2 C 16,0 C 4,8 km/h (1 Bft)
21.06.2023 02:07 16,0 C 14,4 C 89 % 1014,4 hPa 0,0 l/m 4,8 km/h (1 Bft) W-SW 247 0 min 0,0 UV-I 0 W/m 14,2 C 16,0 C 6,4 km/h (2 Bft)
21.06.2023 02:08 16,1 C 14,4 C 89 % 1014,3 hPa 0,0 l/m 4,8 km/h (1 Bft) W-SW 247 0 min 0,0 UV-I 0 W/m 14,3 C 16,1 C 6,4 km/h (2 Bft)
21.06.2023 02:09 16,0 C 14,4 C 89 % 1014,3 hPa 0,0 l/m 4,8 km/h (1 Bft) W-SW 247 0 min 0,0 UV-I 0 W/m 14,2 C 16,0 C 6,4 km/h (2 Bft)
21.06.2023 02:10 16,1 C 14,4 C 89 % 1014,4 hPa 0,0 l/m 3,2 km/h (1 Bft) W-SW 247 0 min 0,0 UV-I 0 W/m 14,3 C 16,1 C 4,8 km/h (1 Bft)
21.06.2023 02:11 16,1 C 14,4 C 89 % 1014,3 hPa 0,0 l/m 4,8 km/h (1 Bft) W-SW 247 0 min 0,0 UV-I 0 W/m 14,3 C 16,1 C 6,4 km/h (2 Bft)
21.06.2023 02:12 16,1 C 14,4 C 89 % 1014,3 hPa 0,0 l/m 3,2 km/h (1 Bft) W-SW 247 0 min 0,0 UV-I 0 W/m 14,3 C 16,1 C 4,8 km/h (1 Bft)
21.06.2023 02:13 16,1 C 14,4 C 89 % 1014,4 hPa 0,0 l/m 3,2 km/h (1 Bft) W-SW 247 0 min 0,0 UV-I 0 W/m 14,3 C 16,1 C 4,8 km/h (1 Bft)
21.06.2023 02:14 16,0 C 14,4 C 89 % 1014,3 hPa 0,0 l/m 3,2 km/h (1 Bft) W-SW 247 0 min 0,0 UV-I 0 W/m 14,2 C 16,0 C 3,2 km/h (1 Bft)
21.06.2023 02:15 16,0 C 13,9 C 89 % 1014,4 hPa 0,0 l/m 3,2 km/h (1 Bft) W-SW 247 0 min 0,0 UV-I 0 W/m 14,2 C 16,0 C 4,8 km/h (1 Bft)
21.06.2023 02:16 15,9 C 13,9 C 89 % 1014,3 hPa 0,0 l/m 3,2 km/h (1 Bft) W-SW 247 0 min 0,0 UV-I 0 W/m 14,1 C 15,9 C 4,8 km/h (1 Bft)
21.06.2023 02:17 16,0 C 14,4 C 89 % 1014,3 hPa 0,0 l/m 3,2 km/h (1 Bft) W-SW 247 0 min 0,0 UV-I 0 W/m 14,2 C 16,0 C 4,8 km/h (1 Bft)
21.06.2023 02:18 16,0 C 14,4 C 89 % 1014,3 hPa 0,0 l/m 4,8 km/h (1 Bft) W-SW 247 0 min 0,0 UV-I 0 W/m 14,2 C 16,0 C 6,4 km/h (2 Bft)
21.06.2023 02:19 16,0 C 14,4 C 89 % 1014,3 hPa 0,0 l/m 3,2 km/h (1 Bft) W-SW 247 0 min 0,0 UV-I 0 W/m 14,2 C 16,0 C 4,8 km/h (1 Bft)
21.06.2023 02:20 16,0 C 14,4 C 89 % 1014,3 hPa 0,0 l/m 3,2 km/h (1 Bft) W-SW 247 0 min 0,0 UV-I 0 W/m 14,2 C 16,0 C 4,8 km/h (1 Bft)
21.06.2023 02:21 16,0 C 13,9 C 89 % 1014,3 hPa 0,0 l/m 3,2 km/h (1 Bft) W-SW 247 0 min 0,0 UV-I 0 W/m 14,2 C 16,0 C 4,8 km/h (1 Bft)
21.06.2023 02:22 16,0 C 13,9 C 89 % 1014,3 hPa 0,0 l/m 3,2 km/h (1 Bft) W-SW 247 0 min 0,0 UV-I 0 W/m 14,2 C 16,0 C 4,8 km/h (1 Bft)
21.06.2023 02:23 15,8 C 13,9 C 88 % 1014,4 hPa 0,0 l/m 1,6 km/h (1 Bft) W-SW 247 0 min 0,0 UV-I 0 W/m 13,8 C 15,8 C 3,2 km/h (1 Bft)
21.06.2023 02:24 15,8 C 13,9 C 88 % 1014,3 hPa 0,0 l/m 1,6 km/h (1 Bft) W-SW 247 0 min 0,0 UV-I 0 W/m 13,8 C 15,8 C 4,8 km/h (1 Bft)
21.06.2023 02:25 15,6 C 13,9 C 88 % 1014,4 hPa 0,0 l/m 1,6 km/h (1 Bft) W-SW 247 0 min 0,0 UV-I 0 W/m 13,6 C 15,6 C 1,6 km/h (1 Bft)
21.06.2023 02:26 15,6 C 13,3 C 88 % 1014,5 hPa 0,0 l/m 1,6 km/h (1 Bft) W-SW 247 0 min 0,0 UV-I 0 W/m 13,6 C 15,6 C 3,2 km/h (1 Bft)
21.06.2023 02:27 15,4 C 13,3 C 89 % 1014,4 hPa 0,0 l/m 1,6 km/h (1 Bft) W-SW 247 0 min 0,0 UV-I 0 W/m 13,6 C 15,4 C 3,2 km/h (1 Bft)
21.06.2023 02:28 15,4 C 13,3 C 89 % 1014,5 hPa 0,0 l/m 0,0 km/h (0 Bft) W-SW 247 0 min 0,0 UV-I 0 W/m 13,6 C 15,4 C 1,6 km/h (1 Bft)
21.06.2023 02:29 15,3 C 13,3 C 89 % 1014,4 hPa 0,0 l/m 0,0 km/h (0 Bft) W-SW 247 0 min 0,0 UV-I 0 W/m 13,5 C 15,3 C 1,6 km/h (1 Bft)
21.06.2023 02:30 15,3 C 13,3 C 89 % 1014,4 hPa 0,0 l/m 1,6 km/h (1 Bft) W-SW 247 0 min 0,0 UV-I 0 W/m 13,5 C 15,3 C 1,6 km/h (1 Bft)
21.06.2023 02:31 15,3 C 13,3 C 89 % 1014,5 hPa 0,0 l/m 0,0 km/h (0 Bft) W-SW 247 0 min 0,0 UV-I 0 W/m 13,5 C 15,3 C 1,6 km/h (1 Bft)
21.06.2023 02:32 15,3 C 13,3 C 89 % 1014,5 hPa 0,0 l/m 0,0 km/h (0 Bft) W-SW 247 0 min 0,0 UV-I 0 W/m 13,5 C 15,3 C 1,6 km/h (1 Bft)
21.06.2023 02:33 15,3 C 13,3 C 89 % 1014,4 hPa 0,0 l/m 1,6 km/h (1 Bft) W-SW 247 0 min 0,0 UV-I 0 W/m 13,5 C 15,3 C 3,2 km/h (1 Bft)
21.06.2023 02:34 15,3 C 13,3 C 89 % 1014,5 hPa 0,0 l/m 0,0 km/h (0 Bft) W-SW 247 0 min 0,0 UV-I 0 W/m 13,5 C 15,3 C 1,6 km/h (1 Bft)
21.06.2023 02:35 15,4 C 13,3 C 90 % 1014,5 hPa 0,0 l/m 0,0 km/h (0 Bft) N 0 0 min 0,0 UV-I 0 W/m 13,8 C 15,4 C 0,0 km/h (0 Bft)
21.06.2023 02:36 15,4 C 13,3 C 90 % 1014,4 hPa 0,0 l/m 0,0 km/h (0 Bft) W-SW 247 0 min 0,0 UV-I 0 W/m 13,8 C 15,4 C 1,6 km/h (1 Bft)
21.06.2023 02:37 15,3 C 13,3 C 90 % 1014,5 hPa 0,0 l/m 0,0 km/h (0 Bft) W-SW 247 0 min 0,0 UV-I 0 W/m 13,7 C 15,3 C 1,6 km/h (1 Bft)
21.06.2023 02:38 15,3 C 12,8 C 89 % 1014,6 hPa 0,0 l/m 0,0 km/h (0 Bft) W-SW 247 0 min 0,0 UV-I 0 W/m 13,5 C 15,3 C 1,6 km/h (1 Bft)
21.06.2023 02:39 15,3 C 12,8 C 89 % 1014,5 hPa 0,0 l/m 0,0 km/h (0 Bft) W-SW 247 0 min 0,0 UV-I 0 W/m 13,5 C 15,3 C 1,6 km/h (1 Bft)
21.06.2023 02:40 15,2 C 13,3 C 89 % 1014,6 hPa 0,0 l/m 0,0 km/h (0 Bft) W-SW 247 0 min 0,0 UV-I 0 W/m 13,4 C 15,2 C 1,6 km/h (1 Bft)
21.06.2023 02:41 15,3 C 13,3 C 90 % 1014,6 hPa 0,0 l/m 0,0 km/h (0 Bft) W-SW 247 0 min 0,0 UV-I 0 W/m 13,7 C 15,3 C 1,6 km/h (1 Bft)
21.06.2023 02:42 15,2 C 13,3 C 90 % 1014,6 hPa 0,0 l/m 1,6 km/h (1 Bft) W-SW 247 0 min 0,0 UV-I 0 W/m 13,6 C 15,2 C 3,2 km/h (1 Bft)
21.06.2023 02:43 15,3 C 13,3 C 90 % 1014,6 hPa 0,0 l/m 3,2 km/h (1 Bft) W-SW 247 0 min 0,0 UV-I 0 W/m 13,7 C 15,3 C 4,8 km/h (1 Bft)
21.06.2023 02:44 15,3 C 13,3 C 90 % 1014,7 hPa 0,0 l/m 3,2 km/h (1 Bft) W-SW 247 0 min 0,0 UV-I 0 W/m 13,7 C 15,3 C 6,4 km/h (2 Bft)
21.06.2023 02:45 15,4 C 13,3 C 90 % 1014,6 hPa 0,0 l/m 4,8 km/h (1 Bft) W-SW 247 0 min 0,0 UV-I 0 W/m 13,8 C 15,4 C 6,4 km/h (2 Bft)
21.06.2023 02:46 15,4 C 13,9 C 90 % 1014,6 hPa 0,0 l/m 4,8 km/h (1 Bft) W-SW 247 0 min 0,0 UV-I 0 W/m 13,8 C 15,4 C 6,4 km/h (2 Bft)
21.06.2023 02:47 15,4 C 13,9 C 90 % 1014,6 hPa 0,0 l/m 4,8 km/h (1 Bft) W-SW 247 0 min 0,0 UV-I 0 W/m 13,8 C 15,4 C 6,4 km/h (2 Bft)
21.06.2023 02:48 15,6 C 13,9 C 90 % 1014,6 hPa 0,0 l/m 4,8 km/h (1 Bft) W-SW 247 0 min 0,0 UV-I 0 W/m 14,0 C 15,6 C 6,4 km/h (2 Bft)
21.06.2023 02:49 15,6 C 13,9 C 90 % 1014,6 hPa 0,0 l/m 4,8 km/h (1 Bft) SW 225 0 min 0,0 UV-I 0 W/m 14,0 C 15,6 C 6,4 km/h (2 Bft)
21.06.2023 02:50 15,6 C 13,9 C 90 % 1014,6 hPa 0,0 l/m 3,2 km/h (1 Bft) SW 225 0 min 0,0 UV-I 0 W/m 14,0 C 15,6 C 4,8 km/h (1 Bft)
21.06.2023 02:51 15,6 C 13,9 C 90 % 1014,6 hPa 0,0 l/m 3,2 km/h (1 Bft) SW 225 0 min 0,0 UV-I 0 W/m 14,0 C 15,6 C 4,8 km/h (1 Bft)
21.06.2023 02:52 15,5 C 13,9 C 90 % 1014,6 hPa 0,0 l/m 3,2 km/h (1 Bft) SW 225 0 min 0,0 UV-I 0 W/m 13,9 C 15,5 C 4,8 km/h (1 Bft)
21.06.2023 02:53 15,4 C 13,9 C 90 % 1014,7 hPa 0,0 l/m 4,8 km/h (1 Bft) SW 225 0 min 0,0 UV-I 0 W/m 13,8 C 15,4 C 6,4 km/h (2 Bft)
21.06.2023 02:54 15,3 C 13,3 C 90 % 1014,7 hPa 0,0 l/m 3,2 km/h (1 Bft) SW 225 0 min 0,0 UV-I 0 W/m 13,7 C 15,3 C 4,8 km/h (1 Bft)
21.06.2023 02:55 15,2 C 13,3 C 89 % 1014,8 hPa 0,0 l/m 4,8 km/h (1 Bft) SW 225 0 min 0,0 UV-I 0 W/m 13,4 C 15,2 C 6,4 km/h (2 Bft)
21.06.2023 02:56 15,2 C 13,3 C 90 % 1014,7 hPa 0,0 l/m 4,8 km/h (1 Bft) SW 225 0 min 0,0 UV-I 0 W/m 13,6 C 15,2 C 6,4 km/h (2 Bft)
21.06.2023 02:57 15,2 C 13,3 C 90 % 1014,8 hPa 0,0 l/m 4,8 km/h (1 Bft) SW 225 0 min 0,0 UV-I 0 W/m 13,6 C 15,2 C 6,4 km/h (2 Bft)
21.06.2023 02:58 15,2 C 13,3 C 90 % 1014,7 hPa 0,0 l/m 4,8 km/h (1 Bft) SW 225 0 min 0,0 UV-I 0 W/m 13,6 C 15,2 C 4,8 km/h (1 Bft)
21.06.2023 02:59 15,3 C 13,3 C 90 % 1014,8 hPa 0,0 l/m 3,2 km/h (1 Bft) SW 225 0 min 0,0 UV-I 0 W/m 13,7 C 15,3 C 6,4 km/h (2 Bft)
21.06.2023 03:00 15,3 C 13,3 C 90 % 1014,8 hPa 0,0 l/m 3,2 km/h (1 Bft) SW 225 0 min 0,0 UV-I 0 W/m 13,7 C 15,3 C 4,8 km/h (1 Bft)
21.06.2023 03:01 15,3 C 13,3 C 90 % 1014,9 hPa 0,0 l/m 3,2 km/h (1 Bft) SW 225 0 min 0,0 UV-I 0 W/m 13,7 C 15,3 C 3,2 km/h (1 Bft)
21.06.2023 03:02 15,4 C 13,3 C 90 % 1014,7 hPa 0,0 l/m 1,6 km/h (1 Bft) SW 225 0 min 0,0 UV-I 0 W/m 13,8 C 15,4 C 3,2 km/h (1 Bft)
21.06.2023 03:03 15,4 C 13,3 C 90 % 1014,7 hPa 0,0 l/m 4,8 km/h (1 Bft) SW 225 0 min 0,0 UV-I 0 W/m 13,8 C 15,4 C 6,4 km/h (2 Bft)
21.06.2023 03:04 15,4 C 13,3 C 91 % 1014,8 hPa 0,0 l/m 4,8 km/h (1 Bft) SW 225 0 min 0,0 UV-I 0 W/m 13,9 C 15,4 C 6,4 km/h (2 Bft)
21.06.2023 03:05 15,4 C 13,3 C 90 % 1014,7 hPa 0,0 l/m 3,2 km/h (1 Bft) SW 225 0 min 0,0 UV-I 0 W/m 13,8 C 15,4 C 4,8 km/h (1 Bft)
21.06.2023 03:06 15,4 C 13,3 C 90 % 1014,8 hPa 0,0 l/m 1,6 km/h (1 Bft) SW 225 0 min 0,0 UV-I 0 W/m 13,8 C 15,4 C 3,2 km/h (1 Bft)
21.06.2023 03:07 15,4 C 13,9 C 90 % 1014,7 hPa 0,0 l/m 3,2 km/h (1 Bft) SW 225 0 min 0,0 UV-I 0 W/m 13,8 C 15,4 C 4,8 km/h (1 Bft)
21.06.2023 03:08 15,4 C 13,3 C 90 % 1014,7 hPa 0,0 l/m 1,6 km/h (1 Bft) SW 225 0 min 0,0 UV-I 0 W/m 13,8 C 15,4 C 3,2 km/h (1 Bft)
21.06.2023 03:09 15,4 C 13,3 C 90 % 1014,7 hPa 0,0 l/m 1,6 km/h (1 Bft) SW 225 0 min 0,0 UV-I 0 W/m 13,8 C 15,4 C 3,2 km/h (1 Bft)
21.06.2023 03:10 15,4 C 13,3 C 90 % 1014,8 hPa 0,0 l/m 1,6 km/h (1 Bft) SW 225 0 min 0,0 UV-I 0 W/m 13,8 C 15,4 C 1,6 km/h (1 Bft)
21.06.2023 03:11 15,3 C 13,3 C 90 % 1014,8 hPa 0,0 l/m 0,0 km/h (0 Bft) SW 225 0 min 0,0 UV-I 0 W/m 13,7 C 15,3 C 1,6 km/h (1 Bft)
21.06.2023 03:12 15,3 C 13,3 C 90 % 1014,7 hPa 0,0 l/m 0,0 km/h (0 Bft) SW 225 0 min 0,0 UV-I 0 W/m 13,7 C 15,3 C 1,6 km/h (1 Bft)
21.06.2023 03:13 15,3 C 13,3 C 90 % 1014,9 hPa 0,0 l/m 1,6 km/h (1 Bft) SW 225 0 min 0,0 UV-I 0 W/m 13,7 C 15,3 C 3,2 km/h (1 Bft)
21.06.2023 03:14 15,3 C 13,3 C 90 % 1014,7 hPa 0,0 l/m 3,2 km/h (1 Bft) SW 225 0 min 0,0 UV-I 0 W/m 13,7 C 15,3 C 4,8 km/h (1 Bft)
21.06.2023 03:15 15,3 C 13,3 C 91 % 1014,6 hPa 0,0 l/m 1,6 km/h (1 Bft) SW 225 0 min 0,0 UV-I 0 W/m 13,8 C 15,3 C 3,2 km/h (1 Bft)
21.06.2023 03:16 15,3 C 13,3 C 90 % 1014,6 hPa 0,0 l/m 1,6 km/h (1 Bft) SW 225 0 min 0,0 UV-I 0 W/m 13,7 C 15,3 C 3,2 km/h (1 Bft)
21.06.2023 03:17 15,4 C 13,3 C 91 % 1014,7 hPa 0,0 l/m 0,0 km/h (0 Bft) SW 225 0 min 0,0 UV-I 0 W/m 13,9 C 15,4 C 1,6 km/h (1 Bft)
21.06.2023 03:18 15,3 C 13,3 C 90 % 1014,8 hPa 0,0 l/m 0,0 km/h (0 Bft) SW 225 0 min 0,0 UV-I 0 W/m 13,7 C 15,3 C 1,6 km/h (1 Bft)
21.06.2023 03:19 15,3 C 13,3 C 90 % 1014,7 hPa 0,0 l/m 0,0 km/h (0 Bft) SW 225 0 min 0,0 UV-I 0 W/m 13,7 C 15,3 C 1,6 km/h (1 Bft)
21.06.2023 03:20 15,2 C 13,3 C 90 % 1014,7 hPa 0,0 l/m 1,6 km/h (1 Bft) SW 225 0 min 0,0 UV-I 0 W/m 13,6 C 15,2 C 1,6 km/h (1 Bft)
21.06.2023 03:21 15,1 C 13,3 C 90 % 1014,7 hPa 0,0 l/m 1,6 km/h (1 Bft) SW 225 0 min 0,0 UV-I 0 W/m 13,5 C 15,1 C 3,2 km/h (1 Bft)
21.06.2023 03:22 15,1 C 13,3 C 90 % 1014,7 hPa 0,0 l/m 1,6 km/h (1 Bft) SW 225 0 min 0,0 UV-I 0 W/m 13,5 C 15,1 C 1,6 km/h (1 Bft)
21.06.2023 03:23 15,1 C 12,8 C 90 % 1014,8 hPa 0,0 l/m 1,6 km/h (1 Bft) SW 225 0 min 0,0 UV-I 0 W/m 13,5 C 15,1 C 1,6 km/h (1 Bft)
21.06.2023 03:24 15,0 C 12,8 C 90 % 1014,8 hPa 0,0 l/m 0,0 km/h (0 Bft) SW 225 0 min 0,0 UV-I 0 W/m 13,4 C 15,0 C 1,6 km/h (1 Bft)
21.06.2023 03:25 14,8 C 12,8 C 90 % 1014,8 hPa 0,0 l/m 0,0 km/h (0 Bft) N 0 0 min 0,0 UV-I 0 W/m 13,2 C 14,8 C 0,0 km/h (0 Bft)
21.06.2023 03:26 14,7 C 12,8 C 90 % 1014,8 hPa 0,0 l/m 1,6 km/h (1 Bft) SW 225 0 min 0,0 UV-I 0 W/m 13,1 C 14,7 C 1,6 km/h (1 Bft)
21.06.2023 03:27 14,6 C 12,8 C 90 % 1014,8 hPa 0,0 l/m 0,0 km/h (0 Bft) SW 225 0 min 0,0 UV-I 0 W/m 13,0 C 14,6 C 1,6 km/h (1 Bft)
21.06.2023 03:28 14,6 C 12,8 C 90 % 1014,8 hPa 0,0 l/m 0,0 km/h (0 Bft) SW 225 0 min 0,0 UV-I 0 W/m 13,0 C 14,6 C 1,6 km/h (1 Bft)
21.06.2023 03:29 14,5 C 12,8 C 90 % 1014,8 hPa 0,0 l/m 1,6 km/h (1 Bft) SW 225 0 min 0,0 UV-I 0 W/m 12,9 C 14,5 C 3,2 km/h (1 Bft)
21.06.2023 03:30 14,6 C 12,8 C 90 % 1014,7 hPa 0,0 l/m 1,6 km/h (1 Bft) SW 225 0 min 0,0 UV-I 0 W/m 13,0 C 14,6 C 3,2 km/h (1 Bft)
21.06.2023 03:31 14,6 C 12,8 C 91 % 1014,8 hPa 0,0 l/m 0,0 km/h (0 Bft) SW 225 0 min 0,0 UV-I 0 W/m 13,1 C 14,6 C 1,6 km/h (1 Bft)
21.06.2023 03:32 14,7 C 12,8 C 91 % 1014,8 hPa 0,0 l/m 0,0 km/h (0 Bft) N 0 0 min 0,0 UV-I 0 W/m 13,2 C 14,7 C 0,0 km/h (0 Bft)
21.06.2023 03:33 14,7 C 12,8 C 91 % 1014,9 hPa 0,0 l/m 0,0 km/h (0 Bft) N 0 0 min 0,0 UV-I 0 W/m 13,2 C 14,7 C 0,0 km/h (0 Bft)
21.06.2023 03:34 14,7 C 12,8 C 91 % 1014,9 hPa 0,0 l/m 0,0 km/h (0 Bft) N 0 0 min 0,0 UV-I 0 W/m 13,2 C 14,7 C 0,0 km/h (0 Bft)
21.06.2023 03:35 14,7 C 12,8 C 91 % 1014,8 hPa 0,0 l/m 0,0 km/h (0 Bft) N 0 0 min 0,0 UV-I 0 W/m 13,2 C 14,7 C 0,0 km/h (0 Bft)
21.06.2023 03:36 14,8 C 12,8 C 91 % 1014,8 hPa 0,0 l/m 0,0 km/h (0 Bft) N 0 0 min 0,0 UV-I 0 W/m 13,3 C 14,8 C 0,0 km/h (0 Bft)
21.06.2023 03:37 14,8 C 12,8 C 91 % 1014,8 hPa 0,0 l/m 0,0 km/h (0 Bft) N 0 0 min 0,0 UV-I 0 W/m 13,3 C 14,8 C 0,0 km/h (0 Bft)
21.06.2023 03:38 14,9 C 12,8 C 91 % 1014,8 hPa 0,0 l/m 0,0 km/h (0 Bft) N 0 0 min 0,0 UV-I 0 W/m 13,4 C 14,9 C 0,0 km/h (0 Bft)
21.06.2023 03:39 15,1 C 12,8 C 91 % 1014,8 hPa 0,0 l/m 0,0 km/h (0 Bft) N 0 0 min 0,0 UV-I 0 W/m 13,6 C 15,1 C 0,0 km/h (0 Bft)
21.06.2023 03:40 15,1 C 12,8 C 91 % 1014,7 hPa 0,0 l/m 0,0 km/h (0 Bft) N 0 0 min 0,0 UV-I 0 W/m 13,6 C 15,1 C 0,0 km/h (0 Bft)
21.06.2023 03:41 15,2 C 12,8 C 91 % 1014,9 hPa 0,0 l/m 0,0 km/h (0 Bft) N 0 0 min 0,0 UV-I 0 W/m 13,7 C 15,2 C 0,0 km/h (0 Bft)
21.06.2023 03:42 15,2 C 12,2 C 91 % 1014,8 hPa 0,0 l/m 0,0 km/h (0 Bft) N 0 0 min 0,0 UV-I 0 W/m 13,7 C 15,2 C 0,0 km/h (0 Bft)
21.06.2023 03:43 15,2 C 12,8 C 91 % 1014,8 hPa 0,0 l/m 0,0 km/h (0 Bft) N 0 0 min 0,0 UV-I 0 W/m 13,7 C 15,2 C 0,0 km/h (0 Bft)
21.06.2023 03:44 15,2 C 12,8 C 91 % 1014,9 hPa 0,0 l/m 0,0 km/h (0 Bft) SW 225 0 min 0,0 UV-I 0 W/m 13,7 C 15,2 C 1,6 km/h (1 Bft)
21.06.2023 03:45 15,2 C 12,8 C 91 % 1014,9 hPa 0,0 l/m 1,6 km/h (1 Bft) SW 225 0 min 0,0 UV-I 0 W/m 13,7 C 15,2 C 3,2 km/h (1 Bft)
21.06.2023 03:46 15,1 C 12,8 C 91 % 1014,8 hPa 0,0 l/m 1,6 km/h (1 Bft) SW 225 0 min 0,0 UV-I 0 W/m 13,6 C 15,1 C 3,2 km/h (1 Bft)
21.06.2023 03:47 15,0 C 12,8 C 90 % 1014,9 hPa 0,0 l/m 3,2 km/h (1 Bft) SW 225 0 min 0,0 UV-I 0 W/m 13,4 C 15,0 C 3,2 km/h (1 Bft)
21.06.2023 03:48 14,9 C 12,8 C 90 % 1014,9 hPa 0,0 l/m 3,2 km/h (1 Bft) SW 225 0 min 0,0 UV-I 0 W/m 13,3 C 14,9 C 3,2 km/h (1 Bft)
21.06.2023 03:49 14,9 C 12,8 C 91 % 1014,9 hPa 0,0 l/m 1,6 km/h (1 Bft) SW 225 0 min 0,0 UV-I 0 W/m 13,4 C 14,9 C 3,2 km/h (1 Bft)
21.06.2023 03:50 14,9 C 12,8 C 91 % 1014,9 hPa 0,0 l/m 1,6 km/h (1 Bft) SW 225 0 min 0,0 UV-I 0 W/m 13,4 C 14,9 C 3,2 km/h (1 Bft)
21.06.2023 03:51 14,9 C 12,8 C 91 % 1014,9 hPa 0,0 l/m 1,6 km/h (1 Bft) SW 225 0 min 0,0 UV-I 0 W/m 13,4 C 14,9 C 1,6 km/h (1 Bft)
21.06.2023 03:52 14,9 C 12,8 C 91 % 1014,9 hPa 0,0 l/m 1,6 km/h (1 Bft) SW 225 0 min 0,0 UV-I 0 W/m 13,4 C 14,9 C 3,2 km/h (1 Bft)
21.06.2023 03:53 14,8 C 12,8 C 91 % 1014,9 hPa 0,0 l/m 0,0 km/h (0 Bft) SW 225 0 min 0,0 UV-I 0 W/m 13,3 C 14,8 C 1,6 km/h (1 Bft)
21.06.2023 03:54 14,8 C 12,8 C 91 % 1014,9 hPa 0,0 l/m 1,6 km/h (1 Bft) SW 225 0 min 0,0 UV-I 0 W/m 13,3 C 14,8 C 3,2 km/h (1 Bft)
21.06.2023 03:55 14,8 C 12,8 C 91 % 1014,9 hPa 0,0 l/m 1,6 km/h (1 Bft) SW 225 0 min 0,0 UV-I 0 W/m 13,3 C 14,8 C 3,2 km/h (1 Bft)
21.06.2023 03:56 14,8 C 12,8 C 91 % 1014,9 hPa 0,0 l/m 1,6 km/h (1 Bft) SW 225 0 min 0,0 UV-I 0 W/m 13,3 C 14,8 C 3,2 km/h (1 Bft)
21.06.2023 03:57 14,9 C 12,8 C 91 % 1014,9 hPa 0,0 l/m 1,6 km/h (1 Bft) SW 225 0 min 0,0 UV-I 0 W/m 13,4 C 14,9 C 1,6 km/h (1 Bft)
21.06.2023 03:58 14,9 C 12,8 C 91 % 1014,9 hPa 0,0 l/m 1,6 km/h (1 Bft) SW 225 0 min 0,0 UV-I 0 W/m 13,4 C 14,9 C 3,2 km/h (1 Bft)
21.06.2023 03:59 14,9 C 12,8 C 91 % 1014,9 hPa 0,0 l/m 1,6 km/h (1 Bft) SW 225 0 min 0,0 UV-I 0 W/m 13,4 C 14,9 C 3,2 km/h (1 Bft)
21.06.2023 04:00 14,9 C 12,8 C 91 % 1014,9 hPa 0,0 l/m 1,6 km/h (1 Bft) SW 225 0 min 0,0 UV-I 0 W/m 13,4 C 14,9 C 3,2 km/h (1 Bft)
21.06.2023 04:01 14,9 C 12,8 C 91 % 1014,9 hPa 0,0 l/m 1,6 km/h (1 Bft) SW 225 0 min 0,0 UV-I 0 W/m 13,4 C 14,9 C 3,2 km/h (1 Bft)
21.06.2023 04:02 14,8 C 12,2 C 91 % 1015,0 hPa 0,0 l/m 3,2 km/h (1 Bft) SW 225 0 min 0,0 UV-I 0 W/m 13,3 C 14,8 C 4,8 km/h (1 Bft)
21.06.2023 04:03 14,8 C 12,2 C 91 % 1015,0 hPa 0,0 l/m 3,2 km/h (1 Bft) SW 225 0 min 0,0 UV-I 0 W/m 13,3 C 14,8 C 4,8 km/h (1 Bft)
21.06.2023 04:04 14,8 C 12,8 C 91 % 1014,9 hPa 0,0 l/m 3,2 km/h (1 Bft) SW 225 0 min 0,0 UV-I 0 W/m 13,3 C 14,8 C 4,8 km/h (1 Bft)
21.06.2023 04:05 14,8 C 12,8 C 91 % 1014,9 hPa 0,0 l/m 3,2 km/h (1 Bft) SW 225 0 min 0,0 UV-I 0 W/m 13,3 C 14,8 C 4,8 km/h (1 Bft)
21.06.2023 04:06 14,8 C 12,8 C 91 % 1014,9 hPa 0,0 l/m 1,6 km/h (1 Bft) SW 225 0 min 0,0 UV-I 0 W/m 13,3 C 14,8 C 3,2 km/h (1 Bft)
21.06.2023 04:07 14,8 C 13,3 C 91 % 1015,0 hPa 0,0 l/m 3,2 km/h (1 Bft) SW 225 0 min 0,0 UV-I 0 W/m 13,3 C 14,8 C 4,8 km/h (1 Bft)
21.06.2023 04:08 14,8 C 13,3 C 92 % 1015,0 hPa 0,0 l/m 4,8 km/h (1 Bft) SW 225 0 min 0,0 UV-I 0 W/m 13,5 C 14,8 C 6,4 km/h (2 Bft)
21.06.2023 04:09 14,8 C 13,3 C 91 % 1015,0 hPa 0,0 l/m 3,2 km/h (1 Bft) SW 225 0 min 0,0 UV-I 0 W/m 13,3 C 14,8 C 4,8 km/h (1 Bft)
21.06.2023 04:10 14,8 C 13,3 C 91 % 1014,9 hPa 0,0 l/m 4,8 km/h (1 Bft) SW 225 0 min 0,0 UV-I 0 W/m 13,3 C 14,8 C 6,4 km/h (2 Bft)
21.06.2023 04:11 14,8 C 13,3 C 91 % 1015,0 hPa 0,0 l/m 3,2 km/h (1 Bft) SW 225 0 min 0,0 UV-I 0 W/m 13,3 C 14,8 C 4,8 km/h (1 Bft)
21.06.2023 04:12 14,8 C 13,3 C 91 % 1015,0 hPa 0,0 l/m 3,2 km/h (1 Bft) SW 225 0 min 0,0 UV-I 0 W/m 13,3 C 14,8 C 4,8 km/h (1 Bft)
21.06.2023 04:13 14,8 C 13,3 C 91 % 1015,0 hPa 0,0 l/m 3,2 km/h (1 Bft) SW 225 0 min 0,0 UV-I 0 W/m 13,3 C 14,8 C 4,8 km/h (1 Bft)
21.06.2023 04:14 14,8 C 13,3 C 91 % 1015,0 hPa 0,0 l/m 4,8 km/h (1 Bft) SW 225 0 min 0,0 UV-I 0 W/m 13,3 C 14,8 C 6,4 km/h (2 Bft)
21.06.2023 04:15 14,7 C 12,8 C 91 % 1015,0 hPa 0,0 l/m 4,8 km/h (1 Bft) SW 225 0 min 0,0 UV-I 0 W/m 13,2 C 14,7 C 6,4 km/h (2 Bft)
21.06.2023 04:16 14,8 C 12,8 C 91 % 1015,0 hPa 0,0 l/m 4,8 km/h (1 Bft) SW 225 0 min 0,0 UV-I 0 W/m 13,3 C 14,8 C 6,4 km/h (2 Bft)
21.06.2023 04:17 14,7 C 12,8 C 91 % 1015,1 hPa 0,0 l/m 4,8 km/h (1 Bft) SW 225 0 min 0,0 UV-I 0 W/m 13,2 C 14,7 C 6,4 km/h (2 Bft)
21.06.2023 04:18 14,7 C 12,8 C 91 % 1015,1 hPa 0,0 l/m 3,2 km/h (1 Bft) SW 225 0 min 0,0 UV-I 0 W/m 13,2 C 14,7 C 4,8 km/h (1 Bft)
21.06.2023 04:19 14,7 C 13,3 C 91 % 1015,1 hPa 0,0 l/m 3,2 km/h (1 Bft) SW 225 0 min 0,0 UV-I 0 W/m 13,2 C 14,7 C 4,8 km/h (1 Bft)
21.06.2023 04:20 14,7 C 13,3 C 91 % 1015,1 hPa 0,0 l/m 1,6 km/h (1 Bft) SW 225 0 min 0,0 UV-I 0 W/m 13,2 C 14,7 C 3,2 km/h (1 Bft)
21.06.2023 04:21 14,7 C 13,3 C 91 % 1015,1 hPa 0,0 l/m 3,2 km/h (1 Bft) SW 225 0 min 0,0 UV-I 0 W/m 13,2 C 14,7 C 3,2 km/h (1 Bft)
21.06.2023 04:22 14,7 C 13,3 C 91 % 1015,2 hPa 0,0 l/m 1,6 km/h (1 Bft) SW 225 0 min 0,0 UV-I 0 W/m 13,2 C 14,7 C 3,2 km/h (1 Bft)
21.06.2023 04:23 14,7 C 13,3 C 91 % 1015,1 hPa 0,0 l/m 3,2 km/h (1 Bft) SW 225 0 min 0,0 UV-I 0 W/m 13,2 C 14,7 C 4,8 km/h (1 Bft)
21.06.2023 04:24 14,7 C 12,8 C 91 % 1015,1 hPa 0,0 l/m 3,2 km/h (1 Bft) SW 225 0 min 0,0 UV-I 0 W/m 13,2 C 14,7 C 4,8 km/h (1 Bft)
21.06.2023 04:25 14,7 C 12,8 C 91 % 1015,1 hPa 0,0 l/m 3,2 km/h (1 Bft) SW 225 0 min 0,0 UV-I 0 W/m 13,2 C 14,7 C 4,8 km/h (1 Bft)
21.06.2023 04:26 14,6 C 12,8 C 91 % 1015,1 hPa 0,0 l/m 3,2 km/h (1 Bft) SW 225 0 min 0,0 UV-I 0 W/m 13,1 C 14,6 C 4,8 km/h (1 Bft)
21.06.2023 04:27 14,6 C 12,8 C 91 % 1015,2 hPa 0,0 l/m 4,8 km/h (1 Bft) SW 225 0 min 0,0 UV-I 0 W/m 13,1 C 14,6 C 4,8 km/h (1 Bft)
21.06.2023 04:28 14,6 C 12,8 C 91 % 1015,1 hPa 0,0 l/m 4,8 km/h (1 Bft) SW 225 0 min 0,0 UV-I 0 W/m 13,1 C 14,6 C 6,4 km/h (2 Bft)
21.06.2023 04:29 14,6 C 12,8 C 92 % 1015,2 hPa 0,0 l/m 4,8 km/h (1 Bft) SW 225 0 min 0,0 UV-I 0 W/m 13,3 C 14,6 C 6,4 km/h (2 Bft)
21.06.2023 04:30 14,6 C 12,8 C 92 % 1015,1 hPa 0,0 l/m 3,2 km/h (1 Bft) SW 225 0 min 0,0 UV-I 0 W/m 13,3 C 14,6 C 4,8 km/h (1 Bft)
21.06.2023 04:31 14,6 C 12,8 C 92 % 1015,1 hPa 0,0 l/m 3,2 km/h (1 Bft) SW 225 0 min 0,0 UV-I 0 W/m 13,3 C 14,6 C 4,8 km/h (1 Bft)
21.06.2023 04:32 14,6 C 12,8 C 92 % 1015,2 hPa 0,0 l/m 3,2 km/h (1 Bft) SW 225 0 min 0,0 UV-I 0 W/m 13,3 C 14,6 C 4,8 km/h (1 Bft)
21.06.2023 04:33 14,5 C 12,8 C 92 % 1015,1 hPa 0,0 l/m 4,8 km/h (1 Bft) SW 225 0 min 0,0 UV-I 0 W/m 13,2 C 14,5 C 4,8 km/h (1 Bft)
21.06.2023 04:34 14,5 C 12,8 C 92 % 1015,2 hPa 0,0 l/m 3,2 km/h (1 Bft) SW 225 0 min 0,0 UV-I 0 W/m 13,2 C 14,5 C 4,8 km/h (1 Bft)
21.06.2023 04:35 14,5 C 12,8 C 92 % 1015,1 hPa 0,0 l/m 3,2 km/h (1 Bft) SW 225 0 min 0,0 UV-I 0 W/m 13,2 C 14,5 C 6,4 km/h (2 Bft)
21.06.2023 04:36 14,5 C 12,8 C 92 % 1015,1 hPa 0,0 l/m 3,2 km/h (1 Bft) SW 225 0 min 0,0 UV-I 0 W/m 13,2 C 14,5 C 4,8 km/h (1 Bft)
21.06.2023 04:37 14,5 C 12,8 C 92 % 1015,2 hPa 0,0 l/m 3,2 km/h (1 Bft) SW 225 0 min 0,0 UV-I 0 W/m 13,2 C 14,5 C 3,2 km/h (1 Bft)
21.06.2023 04:38 14,5 C 12,8 C 92 % 1015,1 hPa 0,0 l/m 1,6 km/h (1 Bft) SW 225 0 min 0,0 UV-I 0 W/m 13,2 C 14,5 C 3,2 km/h (1 Bft)
21.06.2023 04:39 14,4 C 12,8 C 91 % 1015,1 hPa 0,0 l/m 1,6 km/h (1 Bft) SW 225 0 min 0,0 UV-I 0 W/m 12,9 C 14,4 C 3,2 km/h (1 Bft)
21.06.2023 04:40 14,3 C 12,8 C 91 % 1015,1 hPa 0,0 l/m 0,0 km/h (0 Bft) SW 225 0 min 0,0 UV-I 0 W/m 12,8 C 14,3 C 1,6 km/h (1 Bft)
21.06.2023 04:41 14,2 C 12,2 C 91 % 1015,1 hPa 0,0 l/m 1,6 km/h (1 Bft) SW 225 0 min 0,0 UV-I 0 W/m 12,8 C 14,2 C 3,2 km/h (1 Bft)
21.06.2023 04:42 14,2 C 12,2 C 91 % 1015,2 hPa 0,0 l/m 1,6 km/h (1 Bft) SW 225 0 min 0,0 UV-I 0 W/m 12,8 C 14,2 C 3,2 km/h (1 Bft)
21.06.2023 04:43 14,1 C 12,2 C 91 % 1015,2 hPa 0,0 l/m 1,6 km/h (1 Bft) SW 225 0 min 0,0 UV-I 0 W/m 12,7 C 14,1 C 3,2 km/h (1 Bft)
21.06.2023 04:44 14,1 C 12,2 C 92 % 1015,1 hPa 0,0 l/m 0,0 km/h (0 Bft) SW 225 0 min 0,0 UV-I 0 W/m 12,8 C 14,1 C 1,6 km/h (1 Bft)
21.06.2023 04:45 14,1 C 12,2 C 91 % 1015,2 hPa 0,0 l/m 0,0 km/h (0 Bft) SW 225 0 min 0,0 UV-I 0 W/m 12,7 C 14,1 C 1,6 km/h (1 Bft)
21.06.2023 04:46 14,2 C 12,2 C 92 % 1015,3 hPa 0,0 l/m 1,6 km/h (1 Bft) SW 225 0 min 0,0 UV-I 0 W/m 12,9 C 14,2 C 3,2 km/h (1 Bft)
21.06.2023 04:47 14,2 C 12,2 C 92 % 1015,3 hPa 0,0 l/m 3,2 km/h (1 Bft) SW 225 0 min 0,0 UV-I 0 W/m 12,9 C 14,2 C 3,2 km/h (1 Bft)
21.06.2023 04:48 14,4 C 12,2 C 92 % 1015,2 hPa 0,0 l/m 1,6 km/h (1 Bft) SW 225 0 min 0,0 UV-I 0 W/m 13,1 C 14,4 C 3,2 km/h (1 Bft)
21.06.2023 04:49 14,4 C 12,2 C 92 % 1015,2 hPa 0,0 l/m 1,6 km/h (1 Bft) SW 225 0 min 0,0 UV-I 0 W/m 13,1 C 14,4 C 1,6 km/h (1 Bft)
21.06.2023 04:50 14,5 C 12,2 C 92 % 1015,2 hPa 0,0 l/m 0,0 km/h (0 Bft) SW 225 0 min 0,0 UV-I 0 W/m 13,2 C 14,5 C 1,6 km/h (1 Bft)
21.06.2023 04:51 14,5 C 12,2 C 92 % 1015,2 hPa 0,0 l/m 0,0 km/h (0 Bft) SW 225 0 min 0,0 UV-I 0 W/m 13,2 C 14,5 C 1,6 km/h (1 Bft)
21.06.2023 04:52 14,4 C 12,2 C 92 % 1015,2 hPa 0,0 l/m 3,2 km/h (1 Bft) SW 225 0 min 0,0 UV-I 0 W/m 13,1 C 14,4 C 4,8 km/h (1 Bft)
21.06.2023 04:53 14,4 C 12,2 C 92 % 1015,2 hPa 0,0 l/m 3,2 km/h (1 Bft) SW 225 0 min 0,0 UV-I 0 W/m 13,1 C 14,4 C 4,8 km/h (1 Bft)
21.06.2023 04:54 14,6 C 12,8 C 92 % 1015,2 hPa 0,0 l/m 4,8 km/h (1 Bft) SW 225 0 min 0,0 UV-I 0 W/m 13,3 C 14,6 C 6,4 km/h (2 Bft)
21.06.2023 04:55 14,7 C 12,8 C 92 % 1015,2 hPa 0,0 l/m 3,2 km/h (1 Bft) SW 225 0 min 0,0 UV-I 0 W/m 13,4 C 14,7 C 4,8 km/h (1 Bft)
21.06.2023 04:56 14,8 C 13,3 C 92 % 1015,3 hPa 0,0 l/m 4,8 km/h (1 Bft) SW 225 0 min 0,0 UV-I 0 W/m 13,5 C 14,8 C 6,4 km/h (2 Bft)
21.06.2023 04:57 14,8 C 13,3 C 92 % 1015,2 hPa 0,0 l/m 3,2 km/h (1 Bft) SW 225 0 min 0,0 UV-I 0 W/m 13,5 C 14,8 C 4,8 km/h (1 Bft)
21.06.2023 04:58 14,8 C 13,3 C 92 % 1015,3 hPa 0,0 l/m 3,2 km/h (1 Bft) SW 225 0 min 0,0 UV-I 0 W/m 13,5 C 14,8 C 4,8 km/h (1 Bft)
21.06.2023 04:59 14,8 C 13,3 C 92 % 1015,3 hPa 0,0 l/m 3,2 km/h (1 Bft) SW 225 0 min 0,0 UV-I 0 W/m 13,5 C 14,8 C 3,2 km/h (1 Bft)
21.06.2023 05:00 14,8 C 13,3 C 92 % 1015,2 hPa 0,0 l/m 1,6 km/h (1 Bft) SW 225 0 min 0,0 UV-I 0 W/m 13,5 C 14,8 C 3,2 km/h (1 Bft)
21.06.2023 05:01 14,8 C 12,8 C 92 % 1015,2 hPa 0,0 l/m 1,6 km/h (1 Bft) SW 225 0 min 0,0 UV-I 0 W/m 13,5 C 14,8 C 1,6 km/h (1 Bft)
21.06.2023 05:02 14,8 C 12,8 C 92 % 1015,4 hPa 0,0 l/m 0,0 km/h (0 Bft) SW 225 0 min 0,0 UV-I 0 W/m 13,5 C 14,8 C 1,6 km/h (1 Bft)
21.06.2023 05:03 14,8 C 12,8 C 92 % 1015,3 hPa 0,0 l/m 1,6 km/h (1 Bft) SW 225 0 min 0,0 UV-I 0 W/m 13,5 C 14,8 C 3,2 km/h (1 Bft)
21.06.2023 05:04 14,8 C 12,8 C 92 % 1015,4 hPa 0,0 l/m 0,0 km/h (0 Bft) SW 225 0 min 0,0 UV-I 0 W/m 13,5 C 14,8 C 1,6 km/h (1 Bft)
21.06.2023 05:05 14,8 C 12,8 C 92 % 1015,3 hPa 0,0 l/m 0,0 km/h (0 Bft) SW 225 0 min 0,0 UV-I 0 W/m 13,5 C 14,8 C 1,6 km/h (1 Bft)
21.06.2023 05:06 14,8 C 12,8 C 92 % 1015,3 hPa 0,0 l/m 0,0 km/h (0 Bft) SW 225 0 min 0,0 UV-I 0 W/m 13,5 C 14,8 C 3,2 km/h (1 Bft)
21.06.2023 05:07 14,8 C 12,8 C 92 % 1015,3 hPa 0,0 l/m 1,6 km/h (1 Bft) SW 225 0 min 0,0 UV-I 0 W/m 13,5 C 14,8 C 3,2 km/h (1 Bft)
21.06.2023 05:08 14,9 C 12,8 C 92 % 1015,3 hPa 0,0 l/m 1,6 km/h (1 Bft) SW 225 0 min 0,0 UV-I 0 W/m 13,6 C 14,9 C 3,2 km/h (1 Bft)
21.06.2023 05:09 14,9 C 12,8 C 92 % 1015,4 hPa 0,0 l/m 1,6 km/h (1 Bft) SW 225 0 min 0,0 UV-I 0 W/m 13,6 C 14,9 C 3,2 km/h (1 Bft)
21.06.2023 05:10 14,9 C 12,8 C 92 % 1015,4 hPa 0,0 l/m 1,6 km/h (1 Bft) SW 225 0 min 0,0 UV-I 0 W/m 13,6 C 14,9 C 3,2 km/h (1 Bft)
21.06.2023 05:11 14,9 C 12,8 C 92 % 1015,3 hPa 0,0 l/m 1,6 km/h (1 Bft) SW 225 0 min 0,0 UV-I 0 W/m 13,6 C 14,9 C 3,2 km/h (1 Bft)
21.06.2023 05:12 14,8 C 12,8 C 92 % 1015,4 hPa 0,0 l/m 1,6 km/h (1 Bft) SW 225 0 min 0,0 UV-I 0 W/m 13,5 C 14,8 C 3,2 km/h (1 Bft)
21.06.2023 05:13 14,7 C 12,8 C 92 % 1015,3 hPa 0,0 l/m 1,6 km/h (1 Bft) SW 225 0 min 0,0 UV-I 0 W/m 13,4 C 14,7 C 1,6 km/h (1 Bft)
21.06.2023 05:14 14,7 C 12,2 C 92 % 1015,2 hPa 0,0 l/m 1,6 km/h (1 Bft) SW 225 0 min 0,0 UV-I 0 W/m 13,4 C 14,7 C 4,8 km/h (1 Bft)
21.06.2023 05:15 14,7 C 12,2 C 92 % 1015,3 hPa 0,0 l/m 4,8 km/h (1 Bft) SW 225 0 min 0,0 UV-I 0 W/m 13,4 C 14,7 C 4,8 km/h (1 Bft)
21.06.2023 05:16 14,7 C 12,8 C 92 % 1015,3 hPa 0,0 l/m 3,2 km/h (1 Bft) SW 225 0 min 0,0 UV-I 0 W/m 13,4 C 14,7 C 6,4 km/h (2 Bft)
21.06.2023 05:17 14,7 C 12,8 C 92 % 1015,4 hPa 0,0 l/m 3,2 km/h (1 Bft) SW 225 0 min 0,0 UV-I 0 W/m 13,4 C 14,7 C 4,8 km/h (1 Bft)
21.06.2023 05:18 14,8 C 13,3 C 92 % 1015,3 hPa 0,0 l/m 3,2 km/h (1 Bft) SW 225 0 min 0,0 UV-I 0 W/m 13,5 C 14,8 C 3,2 km/h (1 Bft)
21.06.2023 05:19 14,7 C 13,3 C 92 % 1015,4 hPa 0,0 l/m 3,2 km/h (1 Bft) SW 225 0 min 0,0 UV-I 0 W/m 13,4 C 14,7 C 4,8 km/h (1 Bft)
21.06.2023 05:20 14,6 C 12,8 C 92 % 1015,5 hPa 0,0 l/m 4,8 km/h (1 Bft) S-SW 202 0 min 0,0 UV-I 0 W/m 13,3 C 14,6 C 6,4 km/h (2 Bft)
21.06.2023 05:21 14,6 C 13,3 C 92 % 1015,5 hPa 0,0 l/m 4,8 km/h (1 Bft) S-SW 202 0 min 0,0 UV-I 0 W/m 13,3 C 14,6 C 6,4 km/h (2 Bft)
21.06.2023 05:22 14,5 C 13,3 C 92 % 1015,4 hPa 0,0 l/m 4,8 km/h (1 Bft) S-SW 202 0 min 0,0 UV-I 0 W/m 13,2 C 14,5 C 8,0 km/h (2 Bft)
21.06.2023 05:23 14,4 C 13,3 C 92 % 1015,5 hPa 0,0 l/m 1,6 km/h (1 Bft) S-SW 202 0 min 0,0 UV-I 5 W/m 13,1 C 14,4 C 3,2 km/h (1 Bft)
21.06.2023 05:24 14,2 C 12,8 C 91 % 1015,5 hPa 0,0 l/m 1,6 km/h (1 Bft) S-SW 202 0 min 0,0 UV-I 5 W/m 12,8 C 14,2 C 3,2 km/h (1 Bft)
21.06.2023 05:25 14,1 C 12,8 C 91 % 1015,5 hPa 0,0 l/m 1,6 km/h (1 Bft) S-SW 202 0 min 0,0 UV-I 5 W/m 12,7 C 14,1 C 1,6 km/h (1 Bft)
21.06.2023 05:26 14,1 C 12,8 C 91 % 1015,4 hPa 0,0 l/m 1,6 km/h (1 Bft) S-SW 202 0 min 0,0 UV-I 5 W/m 12,7 C 14,1 C 1,6 km/h (1 Bft)
21.06.2023 05:27 14,1 C 12,8 C 91 % 1015,5 hPa 0,0 l/m 1,6 km/h (1 Bft) S-SW 202 0 min 0,0 UV-I 5 W/m 12,7 C 14,1 C 4,8 km/h (1 Bft)
21.06.2023 05:28 14,1 C 12,8 C 92 % 1015,6 hPa 0,0 l/m 1,6 km/h (1 Bft) S-SW 202 0 min 0,0 UV-I 5 W/m 12,8 C 14,1 C 1,6 km/h (1 Bft)
21.06.2023 05:29 14,2 C 12,8 C 92 % 1015,5 hPa 0,0 l/m 0,0 km/h (0 Bft) S-SW 202 0 min 0,0 UV-I 7 W/m 12,9 C 14,2 C 3,2 km/h (1 Bft)
21.06.2023 05:30 14,3 C 12,8 C 92 % 1015,6 hPa 0,0 l/m 1,6 km/h (1 Bft) S-SW 202 0 min 0,0 UV-I 7 W/m 13,0 C 14,3 C 3,2 km/h (1 Bft)
21.06.2023 05:31 14,2 C 12,8 C 92 % 1015,5 hPa 0,0 l/m 0,0 km/h (0 Bft) S-SW 202 0 min 0,0 UV-I 8 W/m 12,9 C 14,2 C 1,6 km/h (1 Bft)
21.06.2023 05:32 14,2 C 12,8 C 92 % 1015,6 hPa 0,0 l/m 0,0 km/h (0 Bft) S-SW 202 0 min 0,0 UV-I 9 W/m 12,9 C 14,2 C 1,6 km/h (1 Bft)
21.06.2023 05:33 14,1 C 12,8 C 92 % 1015,6 hPa 0,0 l/m 1,6 km/h (1 Bft) S-SW 202 0 min 0,0 UV-I 11 W/m 12,8 C 14,1 C 3,2 km/h (1 Bft)
21.06.2023 05:34 14,2 C 12,8 C 92 % 1015,6 hPa 0,0 l/m 1,6 km/h (1 Bft) S-SW 202 0 min 0,0 UV-I 11 W/m 12,9 C 14,2 C 3,2 km/h (1 Bft)
21.06.2023 05:35 14,2 C 12,8 C 92 % 1015,6 hPa 0,0 l/m 0,0 km/h (0 Bft) S-SW 202 0 min 0,0 UV-I 11 W/m 12,9 C 14,2 C 3,2 km/h (1 Bft)
21.06.2023 05:36 14,3 C 12,8 C 92 % 1015,6 hPa 0,0 l/m 1,6 km/h (1 Bft) S-SW 202 0 min 0,0 UV-I 11 W/m 13,0 C 14,3 C 3,2 km/h (1 Bft)
21.06.2023 05:37 14,3 C 12,8 C 92 % 1015,6 hPa 0,0 l/m 1,6 km/h (1 Bft) S-SW 202 0 min 0,0 UV-I 12 W/m 13,0 C 14,3 C 3,2 km/h (1 Bft)
21.06.2023 05:38 14,3 C 12,8 C 92 % 1015,6 hPa 0,0 l/m 1,6 km/h (1 Bft) S-SW 202 0 min 0,0 UV-I 12 W/m 13,0 C 14,3 C 4,8 km/h (1 Bft)
21.06.2023 05:39 14,3 C 12,8 C 92 % 1015,7 hPa 0,0 l/m 0,0 km/h (0 Bft) S-SW 202 0 min 0,0 UV-I 14 W/m 13,0 C 14,3 C 1,6 km/h (1 Bft)
21.06.2023 05:40 14,2 C 12,8 C 92 % 1015,7 hPa 0,0 l/m 0,0 km/h (0 Bft) S-SW 202 0 min 0,0 UV-I 14 W/m 12,9 C 14,2 C 1,6 km/h (1 Bft)
21.06.2023 05:41 14,3 C 12,8 C 93 % 1015,7 hPa 0,0 l/m 1,6 km/h (1 Bft) S-SW 202 0 min 0,0 UV-I 16 W/m 13,2 C 14,3 C 3,2 km/h (1 Bft)
21.06.2023 05:42 14,4 C 13,3 C 93 % 1015,8 hPa 0,0 l/m 1,6 km/h (1 Bft) S-SW 202 0 min 0,0 UV-I 16 W/m 13,3 C 14,4 C 4,8 km/h (1 Bft)
21.06.2023 05:43 14,5 C 12,8 C 93 % 1015,7 hPa 0,0 l/m 3,2 km/h (1 Bft) S-SW 202 0 min 0,0 UV-I 17 W/m 13,4 C 14,5 C 4,8 km/h (1 Bft)
21.06.2023 05:44 14,6 C 13,3 C 93 % 1015,8 hPa 0,0 l/m 1,6 km/h (1 Bft) S-SW 202 0 min 0,0 UV-I 18 W/m 13,5 C 14,6 C 3,2 km/h (1 Bft)
21.06.2023 05:45 14,6 C 13,3 C 93 % 1015,7 hPa 0,0 l/m 0,0 km/h (0 Bft) S-SW 202 0 min 0,0 UV-I 18 W/m 13,5 C 14,6 C 1,6 km/h (1 Bft)
21.06.2023 05:46 14,6 C 13,3 C 93 % 1015,7 hPa 0,0 l/m 1,6 km/h (1 Bft) S-SW 202 0 min 0,0 UV-I 18 W/m 13,5 C 14,6 C 3,2 km/h (1 Bft)
21.06.2023 05:47 14,7 C 13,3 C 93 % 1015,6 hPa 0,0 l/m 0,0 km/h (0 Bft) S-SW 202 0 min 0,0 UV-I 18 W/m 13,6 C 14,7 C 1,6 km/h (1 Bft)
21.06.2023 05:48 14,7 C 13,3 C 93 % 1015,6 hPa 0,0 l/m 0,0 km/h (0 Bft) N 0 0 min 0,0 UV-I 18 W/m 13,6 C 14,7 C 0,0 km/h (0 Bft)
21.06.2023 05:49 14,8 C 13,3 C 93 % 1015,7 hPa 0,0 l/m 0,0 km/h (0 Bft) S-SW 202 0 min 0,0 UV-I 19 W/m 13,7 C 14,8 C 1,6 km/h (1 Bft)
21.06.2023 05:50 14,8 C 13,3 C 93 % 1015,6 hPa 0,0 l/m 1,6 km/h (1 Bft) S-SW 202 0 min 0,0 UV-I 19 W/m 13,7 C 14,8 C 3,2 km/h (1 Bft)
21.06.2023 05:51 14,9 C 13,3 C 93 % 1015,7 hPa 0,0 l/m 3,2 km/h (1 Bft) S-SW 202 0 min 0,0 UV-I 19 W/m 13,8 C 14,9 C 3,2 km/h (1 Bft)
21.06.2023 05:52 14,8 C 13,3 C 93 % 1015,8 hPa 0,0 l/m 4,8 km/h (1 Bft) S-SW 202 0 min 0,0 UV-I 19 W/m 13,7 C 14,8 C 4,8 km/h (1 Bft)
21.06.2023 05:53 14,9 C 13,3 C 93 % 1015,8 hPa 0,0 l/m 4,8 km/h (1 Bft) SW 225 0 min 0,0 UV-I 21 W/m 13,8 C 14,9 C 6,4 km/h (2 Bft)
21.06.2023 05:54 14,9 C 13,3 C 92 % 1015,7 hPa 0,0 l/m 3,2 km/h (1 Bft) SW 225 0 min 0,0 UV-I 19 W/m 13,6 C 14,9 C 4,8 km/h (1 Bft)
21.06.2023 05:55 14,9 C 13,3 C 92 % 1015,7 hPa 0,0 l/m 3,2 km/h (1 Bft) SW 225 0 min 0,0 UV-I 19 W/m 13,6 C 14,9 C 4,8 km/h (1 Bft)
21.06.2023 05:56 14,9 C 13,3 C 93 % 1015,8 hPa 0,0 l/m 3,2 km/h (1 Bft) SW 225 0 min 0,0 UV-I 19 W/m 13,8 C 14,9 C 3,2 km/h (1 Bft)
21.06.2023 05:57 15,0 C 13,3 C 93 % 1015,8 hPa 0,0 l/m 1,6 km/h (1 Bft) SW 225 0 min 0,0 UV-I 19 W/m 13,9 C 15,0 C 3,2 km/h (1 Bft)
21.06.2023 05:58 15,0 C 13,3 C 92 % 1015,7 hPa 0,0 l/m 1,6 km/h (1 Bft) SW 225 0 min 0,0 UV-I 19 W/m 13,7 C 15,0 C 3,2 km/h (1 Bft)
21.06.2023 05:59 14,9 C 13,9 C 92 % 1015,8 hPa 0,0 l/m 3,2 km/h (1 Bft) SW 225 0 min 0,0 UV-I 21 W/m 13,6 C 14,9 C 4,8 km/h (1 Bft)
21.06.2023 06:00 15,0 C 13,9 C 93 % 1015,8 hPa 0,0 l/m 4,8 km/h (1 Bft) SW 225 0 min 0,0 UV-I 21 W/m 13,9 C 15,0 C 8,0 km/h (2 Bft)
21.06.2023 06:01 15,0 C 13,9 C 93 % 1015,8 hPa 0,0 l/m 4,8 km/h (1 Bft) SW 225 0 min 0,0 UV-I 21 W/m 13,9 C 15,0 C 8,0 km/h (2 Bft)
21.06.2023 06:02 15,0 C 13,9 C 93 % 1015,8 hPa 0,0 l/m 4,8 km/h (1 Bft) SW 225 0 min 0,0 UV-I 21 W/m 13,9 C 15,0 C 8,0 km/h (2 Bft)
21.06.2023 06:03 15,0 C 13,9 C 93 % 1015,8 hPa 0,0 l/m 3,2 km/h (1 Bft) SW 225 0 min 0,0 UV-I 21 W/m 13,9 C 15,0 C 6,4 km/h (2 Bft)
21.06.2023 06:04 15,0 C 13,9 C 93 % 1015,7 hPa 0,0 l/m 4,8 km/h (1 Bft) SW 225 0 min 0,0 UV-I 23 W/m 13,9 C 15,0 C 6,4 km/h (2 Bft)
21.06.2023 06:05 15,0 C 13,9 C 92 % 1015,8 hPa 0,0 l/m 3,2 km/h (1 Bft) SW 225 0 min 0,0 UV-I 23 W/m 13,7 C 15,0 C 4,8 km/h (1 Bft)
21.06.2023 06:06 15,0 C 13,9 C 93 % 1015,7 hPa 0,0 l/m 3,2 km/h (1 Bft) SW 225 0 min 0,0 UV-I 23 W/m 13,9 C 15,0 C 4,8 km/h (1 Bft)
21.06.2023 06:07 15,0 C 13,9 C 93 % 1015,7 hPa 0,0 l/m 4,8 km/h (1 Bft) SW 225 0 min 0,0 UV-I 23 W/m 13,9 C 15,0 C 6,4 km/h (2 Bft)
21.06.2023 06:08 15,0 C 13,9 C 93 % 1015,8 hPa 0,0 l/m 3,2 km/h (1 Bft) SW 225 0 min 0,0 UV-I 21 W/m 13,9 C 15,0 C 4,8 km/h (1 Bft)
21.06.2023 06:09 15,0 C 13,9 C 93 % 1015,8 hPa 0,0 l/m 1,6 km/h (1 Bft) SW 225 0 min 0,0 UV-I 21 W/m 13,9 C 15,0 C 3,2 km/h (1 Bft)
21.06.2023 06:10 14,9 C 13,9 C 92 % 1015,8 hPa 0,0 l/m 1,6 km/h (1 Bft) SW 225 0 min 0,0 UV-I 21 W/m 13,6 C 14,9 C 3,2 km/h (1 Bft)
21.06.2023 06:11 14,9 C 13,9 C 92 % 1015,8 hPa 0,0 l/m 1,6 km/h (1 Bft) SW 225 0 min 0,0 UV-I 21 W/m 13,6 C 14,9 C 3,2 km/h (1 Bft)
21.06.2023 06:12 14,8 C 13,3 C 92 % 1015,8 hPa 0,0 l/m 1,6 km/h (1 Bft) SW 225 0 min 0,0 UV-I 23 W/m 13,5 C 14,8 C 1,6 km/h (1 Bft)
21.06.2023 06:13 14,6 C 13,3 C 92 % 1015,8 hPa 0,0 l/m 0,0 km/h (0 Bft) N 0 0 min 0,0 UV-I 23 W/m 13,3 C 14,6 C 0,0 km/h (0 Bft)
21.06.2023 06:14 14,6 C 13,3 C 92 % 1015,9 hPa 0,0 l/m 0,0 km/h (0 Bft) SW 225 0 min 0,0 UV-I 21 W/m 13,3 C 14,6 C 1,6 km/h (1 Bft)
21.06.2023 06:15 14,6 C 13,3 C 92 % 1015,9 hPa 0,0 l/m 1,6 km/h (1 Bft) SW 225 0 min 0,0 UV-I 21 W/m 13,3 C 14,6 C 4,8 km/h (1 Bft)
21.06.2023 06:16 14,7 C 13,3 C 93 % 1015,9 hPa 0,0 l/m 3,2 km/h (1 Bft) S-SW 202 0 min 0,0 UV-I 21 W/m 13,6 C 14,7 C 4,8 km/h (1 Bft)
21.06.2023 06:17 14,7 C 13,3 C 93 % 1015,9 hPa 0,0 l/m 1,6 km/h (1 Bft) S-SW 202 0 min 0,0 UV-I 21 W/m 13,6 C 14,7 C 3,2 km/h (1 Bft)
21.06.2023 06:18 14,8 C 13,3 C 93 % 1015,9 hPa 0,0 l/m 0,0 km/h (0 Bft) S-SW 202 0 min 0,0 UV-I 23 W/m 13,7 C 14,8 C 1,6 km/h (1 Bft)
21.06.2023 06:19 14,8 C 13,3 C 93 % 1015,9 hPa 0,0 l/m 1,6 km/h (1 Bft) S-SW 202 0 min 0,0 UV-I 25 W/m 13,7 C 14,8 C 3,2 km/h (1 Bft)
21.06.2023 06:20 14,9 C 13,3 C 93 % 1016,0 hPa 0,0 l/m 3,2 km/h (1 Bft) S-SW 202 0 min 0,0 UV-I 25 W/m 13,8 C 14,9 C 4,8 km/h (1 Bft)
21.06.2023 06:21 14,9 C 13,3 C 93 % 1015,9 hPa 0,0 l/m 1,6 km/h (1 Bft) S-SW 202 0 min 0,0 UV-I 26 W/m 13,8 C 14,9 C 4,8 km/h (1 Bft)
21.06.2023 06:22 14,9 C 13,3 C 93 % 1015,9 hPa 0,0 l/m 1,6 km/h (1 Bft) S-SW 202 0 min 0,0 UV-I 30 W/m 13,8 C 14,9 C 3,2 km/h (1 Bft)
21.06.2023 06:23 15,0 C 13,3 C 93 % 1015,9 hPa 0,0 l/m 4,8 km/h (1 Bft) SW 225 0 min 0,0 UV-I 32 W/m 13,9 C 15,0 C 8,0 km/h (2 Bft)
21.06.2023 06:24 15,1 C 13,9 C 93 % 1015,9 hPa 0,0 l/m 4,8 km/h (1 Bft) SW 225 0 min 0,0 UV-I 35 W/m 14,0 C 15,1 C 9,7 km/h (2 Bft)
21.06.2023 06:25 15,2 C 13,9 C 93 % 1015,9 hPa 0,0 l/m 6,4 km/h (2 Bft) SW 225 0 min 0,0 UV-I 39 W/m 14,1 C 15,2 C 9,7 km/h (2 Bft)
21.06.2023 06:26 15,2 C 14,4 C 93 % 1016,0 hPa 0,0 l/m 3,2 km/h (1 Bft) SW 225 0 min 0,0 UV-I 42 W/m 14,1 C 15,2 C 4,8 km/h (1 Bft)
21.06.2023 06:27 15,2 C 14,4 C 93 % 1016,0 hPa 0,0 l/m 1,6 km/h (1 Bft) SW 225 0 min 0,0 UV-I 44 W/m 14,1 C 15,2 C 4,8 km/h (1 Bft)
21.06.2023 06:28 15,2 C 14,4 C 93 % 1016,1 hPa 0,0 l/m 3,2 km/h (1 Bft) SW 225 0 min 0,0 UV-I 47 W/m 14,1 C 15,2 C 4,8 km/h (1 Bft)
21.06.2023 06:29 15,3 C 14,4 C 93 % 1016,0 hPa 0,0 l/m 3,2 km/h (1 Bft) SW 225 0 min 0,0 UV-I 54 W/m 14,2 C 15,3 C 4,8 km/h (1 Bft)
21.06.2023 06:30 15,3 C 14,4 C 93 % 1016,1 hPa 0,0 l/m 1,6 km/h (1 Bft) SW 225 0 min 0,0 UV-I 53 W/m 14,2 C 15,3 C 3,2 km/h (1 Bft)
21.06.2023 06:31 15,3 C 14,4 C 93 % 1016,2 hPa 0,0 l/m 1,6 km/h (1 Bft) SW 225 0 min 0,0 UV-I 51 W/m 14,2 C 15,3 C 3,2 km/h (1 Bft)
21.06.2023 06:32 15,3 C 14,4 C 92 % 1016,2 hPa 0,0 l/m 3,2 km/h (1 Bft) SW 225 0 min 0,0 UV-I 51 W/m 14,0 C 15,3 C 4,8 km/h (1 Bft)
21.06.2023 06:33 15,3 C 14,4 C 92 % 1016,1 hPa 0,0 l/m 1,6 km/h (1 Bft) SW 225 0 min 0,0 UV-I 54 W/m 14,0 C 15,3 C 3,2 km/h (1 Bft)
21.06.2023 06:34 15,3 C 14,4 C 92 % 1016,1 hPa 0,0 l/m 3,2 km/h (1 Bft) SW 225 0 min 0,0 UV-I 58 W/m 14,0 C 15,3 C 4,8 km/h (1 Bft)
21.06.2023 06:35 15,3 C 13,9 C 92 % 1016,2 hPa 0,0 l/m 3,2 km/h (1 Bft) SW 225 0 min 0,0 UV-I 62 W/m 14,0 C 15,3 C 4,8 km/h (1 Bft)
21.06.2023 06:36 15,3 C 13,9 C 92 % 1016,3 hPa 0,0 l/m 3,2 km/h (1 Bft) SW 225 0 min 0,0 UV-I 67 W/m 14,0 C 15,3 C 4,8 km/h (1 Bft)
21.06.2023 06:37 15,3 C 14,4 C 92 % 1016,3 hPa 0,0 l/m 3,2 km/h (1 Bft) SW 225 0 min 0,0 UV-I 70 W/m 14,0 C 15,3 C 6,4 km/h (2 Bft)
21.06.2023 06:38 15,4 C 14,4 C 92 % 1016,3 hPa 0,0 l/m 4,8 km/h (1 Bft) SW 225 0 min 0,0 UV-I 72 W/m 14,1 C 15,4 C 6,4 km/h (2 Bft)
21.06.2023 06:39 15,4 C 14,4 C 93 % 1016,2 hPa 0,0 l/m 4,8 km/h (1 Bft) SW 225 0 min 0,0 UV-I 72 W/m 14,3 C 15,4 C 6,4 km/h (2 Bft)
21.06.2023 06:40 15,4 C 14,4 C 93 % 1016,3 hPa 0,0 l/m 1,6 km/h (1 Bft) SW 225 0 min 0,0 UV-I 74 W/m 14,3 C 15,4 C 4,8 km/h (1 Bft)
21.06.2023 06:41 15,4 C 14,4 C 92 % 1016,2 hPa 0,0 l/m 4,8 km/h (1 Bft) SW 225 0 min 0,0 UV-I 68 W/m 14,1 C 15,4 C 4,8 km/h (1 Bft)
21.06.2023 06:42 15,4 C 14,4 C 92 % 1016,2 hPa 0,0 l/m 3,2 km/h (1 Bft) SW 225 0 min 0,0 UV-I 83 W/m 14,1 C 15,4 C 4,8 km/h (1 Bft)
21.06.2023 06:43 15,5 C 15,0 C 92 % 1016,3 hPa 0,0 l/m 3,2 km/h (1 Bft) SW 225 0 min 0,0 UV-I 84 W/m 14,2 C 15,5 C 4,8 km/h (1 Bft)
21.06.2023 06:44 15,6 C 15,0 C 92 % 1016,3 hPa 0,0 l/m 4,8 km/h (1 Bft) SW 225 0 min 0,0 UV-I 74 W/m 14,3 C 15,6 C 8,0 km/h (2 Bft)
21.06.2023 06:45 15,6 C 15,0 C 92 % 1016,3 hPa 0,0 l/m 6,4 km/h (2 Bft) S-SW 202 0 min 0,0 UV-I 84 W/m 14,3 C 15,6 C 8,0 km/h (2 Bft)
21.06.2023 06:46 15,6 C 15,0 C 92 % 1016,3 hPa 0,0 l/m 3,2 km/h (1 Bft) S-SW 202 0 min 0,0 UV-I 93 W/m 14,3 C 15,6 C 6,4 km/h (2 Bft)
21.06.2023 06:47 15,6 C 15,0 C 92 % 1016,3 hPa 0,0 l/m 1,6 km/h (1 Bft) S-SW 202 0 min 0,0 UV-I 90 W/m 14,3 C 15,6 C 1,6 km/h (1 Bft)
21.06.2023 06:48 15,6 C 15,0 C 92 % 1016,4 hPa 0,0 l/m 1,6 km/h (1 Bft) S-SW 202 0 min 0,0 UV-I 84 W/m 14,3 C 15,6 C 3,2 km/h (1 Bft)
21.06.2023 06:49 15,6 C 15,0 C 92 % 1016,3 hPa 0,0 l/m 3,2 km/h (1 Bft) S-SW 202 0 min 0,0 UV-I 90 W/m 14,3 C 15,6 C 4,8 km/h (1 Bft)
21.06.2023 06:50 15,7 C 15,0 C 92 % 1016,3 hPa 0,0 l/m 4,8 km/h (1 Bft) S-SW 202 0 min 0,0 UV-I 84 W/m 14,4 C 15,7 C 6,4 km/h (2 Bft)
21.06.2023 06:51 15,7 C 15,0 C 92 % 1016,3 hPa 0,0 l/m 3,2 km/h (1 Bft) S-SW 202 0 min 0,0 UV-I 98 W/m 14,4 C 15,7 C 6,4 km/h (2 Bft)
21.06.2023 06:52 15,8 C 15,6 C 92 % 1016,3 hPa 0,0 l/m 4,8 km/h (1 Bft) S-SW 202 0 min 0,0 UV-I 100 W/m 14,5 C 15,8 C 6,4 km/h (2 Bft)
21.06.2023 06:53 15,8 C 15,6 C 92 % 1016,3 hPa 0,0 l/m 3,2 km/h (1 Bft) S-SW 202 0 min 0,0 UV-I 99 W/m 14,5 C 15,8 C 4,8 km/h (1 Bft)
21.06.2023 06:54 15,9 C 15,6 C 92 % 1016,3 hPa 0,0 l/m 3,2 km/h (1 Bft) S-SW 202 0 min 0,0 UV-I 95 W/m 14,6 C 15,9 C 4,8 km/h (1 Bft)
21.06.2023 06:55 15,9 C 15,6 C 92 % 1016,3 hPa 0,0 l/m 1,6 km/h (1 Bft) S-SW 202 0 min 0,0 UV-I 95 W/m 14,6 C 15,9 C 3,2 km/h (1 Bft)
21.06.2023 06:56 15,9 C 15,6 C 92 % 1016,2 hPa 0,0 l/m 3,2 km/h (1 Bft) S-SW 202 0 min 0,0 UV-I 97 W/m 14,6 C 15,9 C 4,8 km/h (1 Bft)
21.06.2023 06:57 15,9 C 15,6 C 92 % 1016,2 hPa 0,0 l/m 4,8 km/h (1 Bft) S-SW 202 0 min 0,0 UV-I 100 W/m 14,6 C 15,9 C 6,4 km/h (2 Bft)
21.06.2023 06:58 16,0 C 15,6 C 92 % 1016,3 hPa 0,0 l/m 3,2 km/h (1 Bft) S-SW 202 0 min 0,0 UV-I 102 W/m 14,7 C 16,0 C 6,4 km/h (2 Bft)
21.06.2023 06:59 16,0 C 15,6 C 92 % 1016,3 hPa 0,0 l/m 3,2 km/h (1 Bft) S-SW 202 0 min 0,0 UV-I 104 W/m 14,7 C 16,0 C 4,8 km/h (1 Bft)
21.06.2023 07:00 16,1 C 15,6 C 92 % 1016,4 hPa 0,0 l/m 3,2 km/h (1 Bft) S-SW 202 0 min 0,0 UV-I 104 W/m 14,8 C 16,1 C 4,8 km/h (1 Bft)
21.06.2023 07:01 16,1 C 16,1 C 92 % 1016,4 hPa 0,0 l/m 1,6 km/h (1 Bft) S-SW 202 0 min 0,0 UV-I 109 W/m 14,8 C 16,1 C 3,2 km/h (1 Bft)
21.06.2023 07:02 16,1 C 16,1 C 92 % 1016,4 hPa 0,0 l/m 1,6 km/h (1 Bft) S-SW 202 0 min 0,0 UV-I 107 W/m 14,8 C 16,1 C 8,0 km/h (2 Bft)
21.06.2023 07:03 16,2 C 16,1 C 92 % 1016,4 hPa 0,0 l/m 4,8 km/h (1 Bft) S-SW 202 0 min 0,0 UV-I 111 W/m 14,9 C 16,2 C 8,0 km/h (2 Bft)
21.06.2023 07:04 16,2 C 16,1 C 92 % 1016,5 hPa 0,0 l/m 4,8 km/h (1 Bft) S-SW 202 0 min 0,0 UV-I 114 W/m 14,9 C 16,2 C 8,0 km/h (2 Bft)
21.06.2023 07:05 16,2 C 16,1 C 92 % 1016,5 hPa 0,0 l/m 6,4 km/h (2 Bft) S-SW 202 0 min 0,5 UV-I 118 W/m 14,9 C 16,2 C 9,7 km/h (2 Bft)
21.06.2023 07:06 16,3 C 16,1 C 92 % 1016,5 hPa 0,0 l/m 6,4 km/h (2 Bft) S-SW 202 0 min 0,5 UV-I 123 W/m 15,0 C 16,3 C 8,0 km/h (2 Bft)
21.06.2023 07:07 16,3 C 16,1 C 92 % 1016,5 hPa 0,0 l/m 3,2 km/h (1 Bft) S-SW 202 0 min 0,5 UV-I 123 W/m 15,0 C 16,3 C 6,4 km/h (2 Bft)
21.06.2023 07:08 16,3 C 16,1 C 91 % 1016,4 hPa 0,0 l/m 4,8 km/h (1 Bft) S-SW 202 0 min 0,5 UV-I 120 W/m 14,8 C 16,3 C 6,4 km/h (2 Bft)
21.06.2023 07:09 16,4 C 16,7 C 91 % 1016,5 hPa 0,0 l/m 4,8 km/h (1 Bft) S-SW 202 0 min 0,5 UV-I 121 W/m 14,9 C 16,4 C 6,4 km/h (2 Bft)
21.06.2023 07:10 16,4 C 16,7 C 92 % 1016,5 hPa 0,0 l/m 6,4 km/h (2 Bft) SW 225 0 min 0,5 UV-I 127 W/m 15,1 C 16,4 C 9,7 km/h (2 Bft)
21.06.2023 07:11 16,5 C 16,7 C 91 % 1016,4 hPa 0,0 l/m 6,4 km/h (2 Bft) S-SW 202 1 min 0,5 UV-I 141 W/m 15,0 C 16,5 C 8,0 km/h (2 Bft)
21.06.2023 07:12 16,5 C 16,7 C 91 % 1016,4 hPa 0,0 l/m 6,4 km/h (2 Bft) S 180 1 min 0,5 UV-I 142 W/m 15,0 C 16,5 C 9,7 km/h (2 Bft)
21.06.2023 07:13 16,6 C 16,7 C 91 % 1016,5 hPa 0,0 l/m 8,0 km/h (2 Bft) S-SW 202 1 min 0,6 UV-I 160 W/m 15,1 C 15,8 C 11,3 km/h (2 Bft)
21.06.2023 07:14 16,6 C 16,7 C 91 % 1016,5 hPa 0,0 l/m 6,4 km/h (2 Bft) S-SW 202 1 min 0,6 UV-I 139 W/m 15,1 C 16,6 C 9,7 km/h (2 Bft)
21.06.2023 07:15 16,7 C 16,7 C 91 % 1016,5 hPa 0,0 l/m 6,4 km/h (2 Bft) S-SW 202 1 min 0,6 UV-I 142 W/m 15,2 C 16,7 C 8,0 km/h (2 Bft)
21.06.2023 07:16 16,7 C 16,7 C 91 % 1016,5 hPa 0,0 l/m 6,4 km/h (2 Bft) SW 225 1 min 0,6 UV-I 159 W/m 15,2 C 16,7 C 11,3 km/h (2 Bft)
21.06.2023 07:17 16,7 C 16,7 C 91 % 1016,5 hPa 0,0 l/m 6,4 km/h (2 Bft) S-SW 202 1 min 0,6 UV-I 153 W/m 15,2 C 16,7 C 9,7 km/h (2 Bft)
21.06.2023 07:18 16,8 C 16,7 C 91 % 1016,6 hPa 0,0 l/m 8,0 km/h (2 Bft) S-SW 202 1 min 0,7 UV-I 213 W/m 15,3 C 16,0 C 11,3 km/h (2 Bft)
21.06.2023 07:19 16,8 C 17,2 C 91 % 1016,5 hPa 0,0 l/m 9,7 km/h (2 Bft) S-SW 202 1 min 0,7 UV-I 221 W/m 15,3 C 15,2 C 12,9 km/h (3 Bft)
21.06.2023 07:20 16,8 C 17,2 C 91 % 1016,6 hPa 0,0 l/m 9,7 km/h (2 Bft) S 180 1 min 0,6 UV-I 181 W/m 15,3 C 15,2 C 12,9 km/h (3 Bft)
21.06.2023 07:21 16,8 C 17,2 C 91 % 1016,7 hPa 0,0 l/m 4,8 km/h (1 Bft) S 180 1 min 0,7 UV-I 204 W/m 15,3 C 16,8 C 8,0 km/h (2 Bft)
21.06.2023 07:22 16,9 C 17,2 C 90 % 1016,6 hPa 0,0 l/m 6,4 km/h (2 Bft) S 180 1 min 0,7 UV-I 189 W/m 15,2 C 16,9 C 8,0 km/h (2 Bft)
21.06.2023 07:23 16,9 C 17,2 C 90 % 1016,5 hPa 0,0 l/m 6,4 km/h (2 Bft) SW 225 1 min 0,7 UV-I 197 W/m 15,2 C 16,9 C 8,0 km/h (2 Bft)
21.06.2023 07:24 17,0 C 17,2 C 90 % 1016,6 hPa 0,0 l/m 6,4 km/h (2 Bft) SW 225 1 min 0,7 UV-I 190 W/m 15,3 C 17,0 C 9,7 km/h (2 Bft)
21.06.2023 07:25 17,1 C 17,8 C 90 % 1016,6 hPa 0,0 l/m 6,4 km/h (2 Bft) SW 225 1 min 0,7 UV-I 206 W/m 15,4 C 17,1 C 9,7 km/h (2 Bft)
21.06.2023 07:26 17,1 C 17,8 C 90 % 1016,6 hPa 0,0 l/m 9,7 km/h (2 Bft) W-SW 247 1 min 0,8 UV-I 220 W/m 15,4 C 15,6 C 14,5 km/h (3 Bft)
21.06.2023 07:27 17,1 C 17,8 C 90 % 1016,5 hPa 0,0 l/m 12,9 km/h (3 Bft) S-SW 202 1 min 0,8 UV-I 229 W/m 15,4 C 14,4 C 17,7 km/h (3 Bft)
21.06.2023 07:28 17,1 C 17,8 C 90 % 1016,5 hPa 0,0 l/m 11,3 km/h (2 Bft) S-SW 202 1 min 0,8 UV-I 230 W/m 15,4 C 14,9 C 14,5 km/h (3 Bft)
21.06.2023 07:29 17,1 C 17,8 C 89 % 1016,7 hPa 0,0 l/m 8,0 km/h (2 Bft) S 180 1 min 0,8 UV-I 204 W/m 15,3 C 16,3 C 17,7 km/h (3 Bft)
21.06.2023 07:30 17,2 C 17,8 C 90 % 1016,6 hPa 0,0 l/m 8,0 km/h (2 Bft) S-SW 202 1 min 0,8 UV-I 188 W/m 15,5 C 16,4 C 9,7 km/h (2 Bft)
21.06.2023 07:31 17,2 C 17,8 C 89 % 1016,6 hPa 0,0 l/m 11,3 km/h (2 Bft) S 180 1 min 0,8 UV-I 190 W/m 15,4 C 15,1 C 14,5 km/h (3 Bft)
21.06.2023 07:32 17,3 C 17,8 C 89 % 1016,6 hPa 0,0 l/m 6,4 km/h (2 Bft) SW 225 1 min 0,8 UV-I 188 W/m 15,5 C 17,3 C 11,3 km/h (2 Bft)
21.06.2023 07:33 17,3 C 17,2 C 89 % 1016,6 hPa 0,0 l/m 9,7 km/h (2 Bft) S-SW 202 1 min 0,8 UV-I 195 W/m 15,5 C 15,8 C 12,9 km/h (3 Bft)
21.06.2023 07:34 17,3 C 17,2 C 89 % 1016,6 hPa 0,0 l/m 11,3 km/h (2 Bft) S-SW 202 1 min 0,8 UV-I 197 W/m 15,5 C 15,2 C 12,9 km/h (3 Bft)
21.06.2023 07:35 17,3 C 17,2 C 89 % 1016,6 hPa 0,0 l/m 8,0 km/h (2 Bft) S 180 1 min 0,8 UV-I 200 W/m 15,5 C 16,5 C 9,7 km/h (2 Bft)
21.06.2023 07:36 17,3 C 17,2 C 89 % 1016,6 hPa 0,0 l/m 9,7 km/h (2 Bft) S 180 1 min 0,8 UV-I 209 W/m 15,5 C 15,8 C 16,1 km/h (3 Bft)
21.06.2023 07:37 17,3 C 17,2 C 89 % 1016,7 hPa 0,0 l/m 9,7 km/h (2 Bft) S 180 0 min 0,7 UV-I 155 W/m 15,5 C 15,8 C 14,5 km/h (3 Bft)
21.06.2023 07:38 17,3 C 17,2 C 89 % 1016,7 hPa 0,0 l/m 11,3 km/h (2 Bft) S-SW 202 1 min 0,8 UV-I 221 W/m 15,5 C 15,2 C 16,1 km/h (3 Bft)
21.06.2023 07:39 17,3 C 17,2 C 89 % 1016,7 hPa 0,0 l/m 12,9 km/h (3 Bft) S-SW 202 1 min 0,7 UV-I 190 W/m 15,5 C 14,6 C 14,5 km/h (3 Bft)
21.06.2023 07:42 17,3 C 17,2 C 89 % 1016,7 hPa 0,0 l/m 9,0 km/h (2 Bft) SW 214 3 min 0,8 UV-I 200 W/m 15,5 C 16,1 C 12,9 km/h (3 Bft)
21.06.2023 07:45 17,3 C 17,2 C 88 % 1016,7 hPa 0,0 l/m 7,1 km/h (2 Bft) S 191 0 min 0,7 UV-I 130 W/m 15,3 C 17,0 C 11,3 km/h (2 Bft)
21.06.2023 07:48 17,2 C 17,2 C 88 % 1016,7 hPa 0,0 l/m 7,9 km/h (2 Bft) S-SW 209 0 min 0,8 UV-I 106 W/m 15,2 C 16,5 C 12,9 km/h (3 Bft)
21.06.2023 07:51 17,2 C 17,2 C 88 % 1016,7 hPa 0,0 l/m 9,3 km/h (2 Bft) S-SW 213 0 min 0,9 UV-I 175 W/m 15,2 C 15,8 C 14,5 km/h (3 Bft)
21.06.2023 07:54 17,2 C 17,8 C 88 % 1016,8 hPa 0,0 l/m 7,2 km/h (2 Bft) W 270 0 min 1,0 UV-I 180 W/m 15,2 C 16,8 C 14,5 km/h (3 Bft)
21.06.2023 07:57 17,2 C 17,8 C 88 % 1016,9 hPa 0,0 l/m 8,3 km/h (2 Bft) W-SW 237 0 min 0,9 UV-I 178 W/m 15,2 C 16,3 C 14,5 km/h (3 Bft)
21.06.2023 08:00 17,2 C 17,8 C 88 % 1016,9 hPa 0,0 l/m 7,4 km/h (2 Bft) S-SW 209 0 min 1,0 UV-I 177 W/m 15,2 C 16,7 C 14,5 km/h (3 Bft)
21.06.2023 08:03 17,1 C 17,8 C 88 % 1016,8 hPa 0,0 l/m 9,1 km/h (2 Bft) S-SW 193 0 min 1,1 UV-I 202 W/m 15,1 C 15,8 C 12,9 km/h (3 Bft)
21.06.2023 08:06 17,1 C 17,8 C 88 % 1016,9 hPa 0,0 l/m 9,1 km/h (2 Bft) SW 219 3 min 1,2 UV-I 301 W/m 15,1 C 15,8 C 16,1 km/h (3 Bft)
21.06.2023 08:09 17,2 C 17,8 C 88 % 1017,1 hPa 0,0 l/m 8,7 km/h (2 Bft) W-SW 250 3 min 1,0 UV-I 213 W/m 15,2 C 16,1 C 17,7 km/h (3 Bft)
21.06.2023 08:12 16,9 C 17,2 C 88 % 1017,0 hPa 0,0 l/m 12,6 km/h (3 Bft) S-SW 209 0 min 0,9 UV-I 175 W/m 14,9 C 14,3 C 19,3 km/h (3 Bft)
21.06.2023 08:15 16,9 C 17,8 C 89 % 1017,1 hPa 0,0 l/m 9,0 km/h (2 Bft) SW 221 0 min 0,9 UV-I 171 W/m 15,1 C 15,6 C 16,1 km/h (3 Bft)
21.06.2023 08:18 16,9 C 17,8 C 89 % 1017,0 hPa 0,0 l/m 8,7 km/h (2 Bft) SW 236 0 min 0,8 UV-I 154 W/m 15,1 C 15,8 C 14,5 km/h (3 Bft)
21.06.2023 08:21 16,8 C 17,2 C 89 % 1017,1 hPa 0,0 l/m 10,7 km/h (2 Bft) S 171 0 min 1,0 UV-I 162 W/m 15,0 C 14,8 C 14,5 km/h (3 Bft)
21.06.2023 08:24 16,7 C 17,2 C 89 % 1017,1 hPa 0,0 l/m 8,5 km/h (2 Bft) SW 219 0 min 1,2 UV-I 165 W/m 14,9 C 15,6 C 12,9 km/h (3 Bft)
21.06.2023 08:27 16,8 C 17,8 C 89 % 1017,1 hPa 0,0 l/m 9,4 km/h (2 Bft) S-SW 207 0 min 1,2 UV-I 224 W/m 15,0 C 15,4 C 12,9 km/h (3 Bft)
21.06.2023 08:30 16,7 C 17,8 C 89 % 1017,1 hPa 0,0 l/m 7,2 km/h (2 Bft) W-SW 240 0 min 1,0 UV-I 156 W/m 14,9 C 16,3 C 11,3 km/h (2 Bft)
21.06.2023 08:33 16,7 C 17,8 C 89 % 1017,2 hPa 0,0 l/m 6,1 km/h (2 Bft) W 266 0 min 1,3 UV-I 203 W/m 14,9 C 16,7 C 11,3 km/h (2 Bft)
21.06.2023 08:36 16,9 C 18,3 C 89 % 1017,1 hPa 0,0 l/m 4,2 km/h (1 Bft) W-SW 240 3 min 1,4 UV-I 294 W/m 15,1 C 16,9 C 6,4 km/h (2 Bft)
21.06.2023 08:39 17,1 C 18,9 C 89 % 1017,1 hPa 0,0 l/m 3,9 km/h (1 Bft) SW 225 3 min 1,4 UV-I 311 W/m 15,3 C 17,1 C 8,0 km/h (2 Bft)
21.06.2023 08:42 17,2 C 18,9 C 88 % 1017,2 hPa 0,0 l/m 5,9 km/h (2 Bft) W-SW 241 3 min 1,4 UV-I 312 W/m 15,2 C 17,2 C 11,3 km/h (2 Bft)
21.06.2023 08:45 17,2 C 18,9 C 88 % 1017,3 hPa 0,0 l/m 5,9 km/h (2 Bft) SW 227 3 min 1,4 UV-I 263 W/m 15,2 C 17,2 C 9,7 km/h (2 Bft)
21.06.2023 08:48 17,3 C 18,9 C 88 % 1017,4 hPa 0,0 l/m 6,4 km/h (2 Bft) S 186 3 min 1,6 UV-I 267 W/m 15,3 C 17,3 C 11,3 km/h (2 Bft)
21.06.2023 08:51 17,3 C 18,3 C 88 % 1017,4 hPa 0,0 l/m 8,0 km/h (2 Bft) W-SW 242 0 min 1,6 UV-I 234 W/m 15,3 C 16,5 C 16,1 km/h (3 Bft)
21.06.2023 08:54 17,3 C 18,9 C 88 % 1017,5 hPa 0,0 l/m 7,0 km/h (2 Bft) S-SW 194 3 min 1,8 UV-I 332 W/m 15,3 C 17,0 C 12,9 km/h (3 Bft)
21.06.2023 08:57 17,2 C 18,3 C 88 % 1017,4 hPa 0,0 l/m 8,5 km/h (2 Bft) S-SW 210 3 min 1,8 UV-I 346 W/m 15,2 C 16,2 C 12,9 km/h (3 Bft)
21.06.2023 09:00 17,1 C 18,3 C 88 % 1017,5 hPa 0,0 l/m 7,6 km/h (2 Bft) W-SW 244 3 min 1,8 UV-I 280 W/m 15,1 C 16,5 C 11,3 km/h (2 Bft)
21.06.2023 09:03 17,3 C 18,9 C 89 % 1017,6 hPa 0,0 l/m 7,2 km/h (2 Bft) S-SW 207 3 min 2,2 UV-I 487 W/m 15,5 C 16,9 C 9,7 km/h (2 Bft)
21.06.2023 09:06 17,6 C 19,4 C 88 % 1017,5 hPa 0,0 l/m 6,9 km/h (2 Bft) SW 233 3 min 2,4 UV-I 549 W/m 15,6 C 17,4 C 12,9 km/h (3 Bft)
21.06.2023 09:09 17,8 C 20,0 C 87 % 1017,5 hPa 0,0 l/m 6,8 km/h (2 Bft) S-SW 202 3 min 2,4 UV-I 532 W/m 15,6 C 17,6 C 9,7 km/h (2 Bft)
21.06.2023 09:12 17,8 C 20,0 C 87 % 1017,6 hPa 0,0 l/m 9,1 km/h (2 Bft) SW 225 3 min 2,3 UV-I 434 W/m 15,6 C 16,6 C 12,9 km/h (3 Bft)
21.06.2023 09:15 17,8 C 19,4 C 86 % 1017,7 hPa 0,0 l/m 9,3 km/h (2 Bft) S-SW 198 3 min 1,9 UV-I 326 W/m 15,4 C 16,5 C 12,9 km/h (3 Bft)
21.06.2023 09:18 17,7 C 19,4 C 86 % 1017,7 hPa 0,0 l/m 8,3 km/h (2 Bft) S-SW 198 3 min 2,2 UV-I 376 W/m 15,3 C 16,8 C 14,5 km/h (3 Bft)
21.06.2023 09:21 17,6 C 18,9 C 86 % 1017,6 hPa 0,0 l/m 10,8 km/h (2 Bft) SW 225 0 min 2,1 UV-I 298 W/m 15,2 C 15,7 C 16,1 km/h (3 Bft)
21.06.2023 09:24 17,6 C 18,9 C 86 % 1017,5 hPa 0,0 l/m 12,0 km/h (2 Bft) S-SW 197 0 min 2,1 UV-I 228 W/m 15,2 C 15,3 C 16,1 km/h (3 Bft)
21.06.2023 09:27 17,6 C 18,9 C 87 % 1017,6 hPa 0,0 l/m 10,3 km/h (2 Bft) SW 219 3 min 2,6 UV-I 469 W/m 15,4 C 15,9 C 16,1 km/h (3 Bft)
21.06.2023 09:30 17,8 C 19,4 C 86 % 1017,7 hPa 0,0 l/m 9,5 km/h (2 Bft) S-SW 210 3 min 2,7 UV-I 529 W/m 15,4 C 16,4 C 16,1 km/h (3 Bft)
21.06.2023 09:33 17,8 C 18,9 C 86 % 1017,8 hPa 0,0 l/m 8,0 km/h (2 Bft) SW 217 3 min 2,5 UV-I 425 W/m 15,4 C 17,0 C 16,1 km/h (3 Bft)
21.06.2023 09:36 18,1 C 19,4 C 85 % 1017,8 hPa 0,0 l/m 11,5 km/h (2 Bft) SW 218 3 min 2,5 UV-I 442 W/m 15,5 C 16,0 C 16,1 km/h (3 Bft)
21.06.2023 09:39 18,1 C 20,0 C 85 % 1018,0 hPa 0,0 l/m 11,5 km/h (2 Bft) SW 225 3 min 2,7 UV-I 394 W/m 15,5 C 16,0 C 17,7 km/h (3 Bft)
21.06.2023 09:42 18,1 C 19,4 C 85 % 1017,9 hPa 0,0 l/m 9,5 km/h (2 Bft) S-SW 200 0 min 2,0 UV-I 291 W/m 15,5 C 16,7 C 14,5 km/h (3 Bft)
21.06.2023 09:45 18,1 C 20,0 C 85 % 1018,0 hPa 0,0 l/m 6,6 km/h (2 Bft) W-SW 246 0 min 2,2 UV-I 276 W/m 15,5 C 18,0 C 11,3 km/h (2 Bft)
21.06.2023 09:48 18,0 C 20,0 C 85 % 1018,0 hPa 0,0 l/m 7,7 km/h (2 Bft) SW 221 0 min 1,9 UV-I 213 W/m 15,4 C 17,4 C 12,9 km/h (3 Bft)
21.06.2023 09:51 18,1 C 20,0 C 85 % 1018,0 hPa 0,0 l/m 6,1 km/h (2 Bft) S-SW 212 0 min 2,4 UV-I 249 W/m 15,5 C 18,1 C 12,9 km/h (3 Bft)
21.06.2023 09:54 18,3 C 20,6 C 85 % 1018,1 hPa 0,0 l/m 5,7 km/h (1 Bft) W-SW 257 3 min 2,5 UV-I 393 W/m 15,7 C 18,3 C 9,7 km/h (2 Bft)
21.06.2023 09:57 18,4 C 20,6 C 85 % 1018,0 hPa 0,0 l/m 8,8 km/h (2 Bft) W-SW 250 0 min 2,2 UV-I 255 W/m 15,8 C 17,3 C 12,9 km/h (3 Bft)
21.06.2023 10:00 18,4 C 20,6 C 84 % 1018,0 hPa 0,0 l/m 8,3 km/h (2 Bft) S 188 0 min 2,4 UV-I 310 W/m 15,6 C 17,5 C 14,5 km/h (3 Bft)
21.06.2023 10:03 18,3 C 20,6 C 84 % 1017,9 hPa 0,0 l/m 8,0 km/h (2 Bft) S 185 3 min 2,9 UV-I 380 W/m 15,5 C 17,6 C 9,7 km/h (2 Bft)
21.06.2023 10:06 18,6 C 20,6 C 84 % 1017,9 hPa 0,0 l/m 5,6 km/h (1 Bft) W 270 3 min 3,0 UV-I 372 W/m 15,8 C 18,6 C 9,7 km/h (2 Bft)
21.06.2023 10:09 18,6 C 20,6 C 83 % 1017,9 hPa 0,0 l/m 8,6 km/h (2 Bft) S 184 3 min 3,1 UV-I 411 W/m 15,7 C 17,6 C 14,5 km/h (3 Bft)
21.06.2023 10:12 18,6 C 20,6 C 84 % 1017,9 hPa 0,0 l/m 6,3 km/h (2 Bft) S 181 0 min 3,1 UV-I 359 W/m 15,8 C 18,6 C 12,9 km/h (3 Bft)
21.06.2023 10:15 18,6 C 20,6 C 83 % 1017,9 hPa 0,0 l/m 9,3 km/h (2 Bft) S-SW 209 0 min 2,8 UV-I 344 W/m 15,7 C 17,4 C 12,9 km/h (3 Bft)
21.06.2023 10:18 18,4 C 20,6 C 83 % 1017,9 hPa 0,0 l/m 6,8 km/h (2 Bft) W-SW 253 0 min 2,7 UV-I 273 W/m 15,5 C 18,2 C 11,3 km/h (2 Bft)
21.06.2023 10:21 18,7 C 21,1 C 83 % 1017,9 hPa 0,0 l/m 5,6 km/h (1 Bft) S 186 3 min 3,6 UV-I 509 W/m 15,8 C 18,7 C 11,3 km/h (2 Bft)
21.06.2023 10:24 18,9 C 21,1 C 83 % 1017,9 hPa 0,0 l/m 5,3 km/h (1 Bft) SW 217 3 min 3,4 UV-I 534 W/m 15,9 C 18,9 C 8,0 km/h (2 Bft)
21.06.2023 10:27 19,1 C 21,7 C 82 % 1017,9 hPa 0,0 l/m 8,4 km/h (2 Bft) S-SW 207 3 min 3,3 UV-I 541 W/m 16,0 C 18,2 C 14,5 km/h (3 Bft)
21.06.2023 10:30 19,1 C 21,7 C 81 % 1018,0 hPa 0,0 l/m 11,0 km/h (2 Bft) SW 216 3 min 3,7 UV-I 604 W/m 15,8 C 17,3 C 16,1 km/h (3 Bft)
21.06.2023 10:33 19,4 C 22,2 C 81 % 1017,9 hPa 0,0 l/m 7,4 km/h (2 Bft) SW 225 3 min 3,4 UV-I 610 W/m 16,1 C 19,0 C 12,9 km/h (3 Bft)
21.06.2023 10:36 19,5 C 22,2 C 80 % 1017,9 hPa 0,0 l/m 10,1 km/h (2 Bft) S-SO 163 0 min 3,6 UV-I 376 W/m 16,0 C 18,1 C 16,1 km/h (3 Bft)
21.06.2023 10:39 20,0 C 22,2 C 80 % 1017,9 hPa 0,0 l/m 6,8 km/h (2 Bft) S 185 3 min 3,5 UV-I 510 W/m 16,4 C 19,8 C 12,9 km/h (3 Bft)
21.06.2023 10:42 20,1 C 23,3 C 78 % 1018,0 hPa 0,0 l/m 10,4 km/h (2 Bft) SW 216 3 min 4,0 UV-I 504 W/m 16,1 C 18,6 C 19,3 km/h (3 Bft)
21.06.2023 10:45 20,2 C 23,3 C 77 % 1017,9 hPa 0,0 l/m 12,2 km/h (2 Bft) S-SW 211 3 min 3,8 UV-I 580 W/m 16,0 C 18,2 C 17,7 km/h (3 Bft)
21.06.2023 10:48 20,1 C 23,3 C 78 % 1017,9 hPa 0,0 l/m 11,0 km/h (2 Bft) S-SO 168 3 min 4,1 UV-I 563 W/m 16,1 C 18,4 C 16,1 km/h (3 Bft)
21.06.2023 10:51 20,5 C 24,4 C 77 % 1017,9 hPa 0,0 l/m 10,5 km/h (2 Bft) SW 235 3 min 4,4 UV-I 638 W/m 16,3 C 19,0 C 19,3 km/h (3 Bft)
21.06.2023 10:54 20,6 C 23,9 C 76 % 1017,9 hPa 0,0 l/m 11,8 km/h (2 Bft) S-SW 198 3 min 4,0 UV-I 494 W/m 16,2 C 18,8 C 19,3 km/h (3 Bft)
21.06.2023 10:57 20,6 C 23,3 C 76 % 1017,9 hPa 0,0 l/m 11,0 km/h (2 Bft) W-SW 250 3 min 3,8 UV-I 435 W/m 16,2 C 19,0 C 19,3 km/h (3 Bft)
21.06.2023 11:00 20,6 C 23,9 C 76 % 1017,9 hPa 0,0 l/m 7,6 km/h (2 Bft) S 189 0 min 4,0 UV-I 294 W/m 16,2 C 20,1 C 17,7 km/h (3 Bft)
21.06.2023 11:03 20,8 C 25,0 C 73 % 1017,9 hPa 0,0 l/m 15,0 km/h (3 Bft) S 188 3 min 4,8 UV-I 702 W/m 15,8 C 18,2 C 20,9 km/h (4 Bft)
21.06.2023 11:06 20,7 C 24,4 C 73 % 1017,9 hPa 0,0 l/m 14,1 km/h (3 Bft) S-SW 207 3 min 4,6 UV-I 745 W/m 15,7 C 18,3 C 19,3 km/h (3 Bft)
21.06.2023 11:09 20,7 C 25,0 C 75 % 1017,9 hPa 0,0 l/m 11,0 km/h (2 Bft) SW 221 3 min 4,5 UV-I 750 W/m 16,1 C 19,1 C 24,1 km/h (4 Bft)
21.06.2023 11:12 21,0 C 25,0 C 72 % 1017,9 hPa 0,0 l/m 9,4 km/h (2 Bft) SW 217 3 min 4,2 UV-I 655 W/m 15,8 C 19,9 C 17,7 km/h (3 Bft)
21.06.2023 11:15 21,4 C 27,2 C 71 % 1018,0 hPa 0,0 l/m 10,4 km/h (2 Bft) S-SO 167 3 min 5,5 UV-I 833 W/m 15,9 C 20,1 C 17,7 km/h (3 Bft)
21.06.2023 11:18 21,6 C 27,2 C 71 % 1018,0 hPa 0,0 l/m 7,2 km/h (2 Bft) S-SO 158 3 min 5,5 UV-I 940 W/m 16,1 C 21,3 C 14,5 km/h (3 Bft)
21.06.2023 11:21 21,7 C 26,7 C 70 % 1018,0 hPa 0,0 l/m 10,7 km/h (2 Bft) W-SW 244 3 min 4,7 UV-I 450 W/m 16,0 C 20,3 C 22,5 km/h (4 Bft)
21.06.2023 11:24 21,5 C 26,1 C 71 % 1018,1 hPa 0,0 l/m 11,2 km/h (2 Bft) W 261 0 min 4,3 UV-I 290 W/m 16,0 C 20,0 C 19,3 km/h (3 Bft)
21.06.2023 11:27 21,7 C 26,7 C 70 % 1018,2 hPa 0,0 l/m 10,4 km/h (2 Bft) W-SW 241 3 min 4,8 UV-I 584 W/m 16,0 C 20,4 C 16,1 km/h (3 Bft)
21.06.2023 11:30 21,9 C 26,7 C 70 % 1018,1 hPa 0,0 l/m 11,6 km/h (2 Bft) S-SW 207 3 min 4,6 UV-I 860 W/m 16,2 C 20,3 C 17,7 km/h (3 Bft)
21.06.2023 11:33 21,3 C 24,4 C 69 % 1018,1 hPa 0,0 l/m 11,1 km/h (2 Bft) W-SW 254 0 min 2,9 UV-I 397 W/m 15,4 C 19,8 C 20,9 km/h (4 Bft)
21.06.2023 11:36 21,3 C 25,6 C 71 % 1018,0 hPa 0,0 l/m 8,5 km/h (2 Bft) W-SW 240 0 min 4,2 UV-I 396 W/m 15,8 C 20,5 C 14,5 km/h (3 Bft)
21.06.2023 11:39 21,8 C 26,7 C 69 % 1018,1 hPa 0,0 l/m 9,5 km/h (2 Bft) W-SW 244 3 min 3,9 UV-I 773 W/m 15,9 C 20,8 C 16,1 km/h (3 Bft)
21.06.2023 11:42 21,6 C 25,0 C 69 % 1018,2 hPa 0,0 l/m 6,9 km/h (2 Bft) W-SW 245 0 min 3,1 UV-I 323 W/m 15,7 C 21,4 C 12,9 km/h (3 Bft)
21.06.2023 11:45 21,4 C 25,0 C 70 % 1018,2 hPa 0,0 l/m 6,6 km/h (2 Bft) S 176 0 min 3,3 UV-I 295 W/m 15,7 C 21,3 C 11,3 km/h (2 Bft)
21.06.2023 11:48 21,6 C 25,6 C 69 % 1018,2 hPa 0,0 l/m 12,6 km/h (3 Bft) S-SW 197 0 min 4,0 UV-I 367 W/m 15,7 C 19,7 C 25,7 km/h (4 Bft)
21.06.2023 11:51 21,6 C 25,0 C 66 % 1018,3 hPa 0,0 l/m 10,8 km/h (2 Bft) S-SW 202 0 min 3,7 UV-I 309 W/m 15,0 C 20,2 C 14,5 km/h (3 Bft)
21.06.2023 11:54 21,6 C 24,4 C 66 % 1018,3 hPa 0,0 l/m 7,6 km/h (2 Bft) S-SW 195 0 min 3,3 UV-I 247 W/m 15,0 C 21,2 C 12,9 km/h (3 Bft)
21.06.2023 11:57 21,7 C 26,7 C 66 % 1018,4 hPa 0,0 l/m 8,7 km/h (2 Bft) S-SW 192 0 min 5,8 UV-I 438 W/m 15,1 C 20,9 C 14,5 km/h (3 Bft)
21.06.2023 12:00 22,0 C 28,3 C 65 % 1018,3 hPa 0,0 l/m 6,3 km/h (2 Bft) S-SW 199 3 min 5,5 UV-I 939 W/m 15,1 C 22,0 C 12,9 km/h (3 Bft)
21.06.2023 12:03 22,1 C 27,2 C 66 % 1018,3 hPa 0,0 l/m 6,6 km/h (2 Bft) S-SO 151 0 min 3,4 UV-I 402 W/m 15,4 C 22,0 C 16,1 km/h (3 Bft)
21.06.2023 12:06 21,9 C 24,4 C 66 % 1018,3 hPa 0,0 l/m 7,7 km/h (2 Bft) SO 142 0 min 2,7 UV-I 290 W/m 15,3 C 21,4 C 14,5 km/h (3 Bft)
21.06.2023 12:09 21,7 C 23,3 C 69 % 1018,3 hPa 0,0 l/m 5,4 km/h (1 Bft) W-SW 258 0 min 3,8 UV-I 245 W/m 15,8 C 21,7 C 12,9 km/h (3 Bft)
21.06.2023 12:12 22,3 C 27,8 C 64 % 1018,4 hPa 0,0 l/m 9,8 km/h (2 Bft) S 189 3 min 6,0 UV-I 885 W/m 15,2 C 21,2 C 17,7 km/h (3 Bft)
21.06.2023 12:15 22,7 C 27,2 C 63 % 1018,3 hPa 0,0 l/m 8,5 km/h (2 Bft) W-SW 242 3 min 4,7 UV-I 718 W/m 15,3 C 22,0 C 14,5 km/h (3 Bft)
21.06.2023 12:18 22,6 C 26,7 C 62 % 1018,3 hPa 0,0 l/m 9,5 km/h (2 Bft) S-SW 196 0 min 5,3 UV-I 434 W/m 14,9 C 21,6 C 14,5 km/h (3 Bft)
21.06.2023 12:21 22,7 C 27,8 C 64 % 1018,2 hPa 0,0 l/m 11,5 km/h (2 Bft) SW 214 3 min 5,3 UV-I 811 W/m 15,5 C 21,3 C 19,3 km/h (3 Bft)
21.06.2023 12:24 22,7 C 26,7 C 64 % 1018,4 hPa 0,0 l/m 10,3 km/h (2 Bft) S-SW 209 3 min 4,4 UV-I 856 W/m 15,5 C 21,5 C 17,7 km/h (3 Bft)
21.06.2023 12:27 22,6 C 27,2 C 65 % 1018,2 hPa 0,0 l/m 12,0 km/h (2 Bft) S 184 0 min 4,8 UV-I 441 W/m 15,7 C 21,0 C 19,3 km/h (3 Bft)
21.06.2023 12:30 22,5 C 26,1 C 64 % 1018,4 hPa 0,0 l/m 12,4 km/h (3 Bft) SW 215 3 min 4,2 UV-I 536 W/m 15,3 C 20,8 C 24,1 km/h (4 Bft)
21.06.2023 12:33 22,3 C 25,0 C 64 % 1018,3 hPa 0,0 l/m 6,5 km/h (2 Bft) SW 223 0 min 3,0 UV-I 226 W/m 15,2 C 22,3 C 14,5 km/h (3 Bft)
21.06.2023 12:36 22,5 C 27,2 C 63 % 1018,3 hPa 0,0 l/m 11,7 km/h (2 Bft) W-SW 240 3 min 5,7 UV-I 588 W/m 15,1 C 21,0 C 19,3 km/h (3 Bft)
21.06.2023 12:39 22,7 C 28,9 C 62 % 1018,4 hPa 0,0 l/m 11,9 km/h (2 Bft) S-SW 192 3 min 6,5 UV-I 883 W/m 15,0 C 21,2 C 17,7 km/h (3 Bft)
21.06.2023 12:42 23,2 C 30,0 C 62 % 1018,4 hPa 0,0 l/m 7,7 km/h (2 Bft) S-SO 150 3 min 6,4 UV-I 861 W/m 15,5 C 22,8 C 16,1 km/h (3 Bft)
21.06.2023 12:45 23,3 C 29,4 C 63 % 1018,4 hPa 0,0 l/m 8,4 km/h (2 Bft) SW 220 3 min 6,7 UV-I 898 W/m 15,9 C 22,7 C 16,1 km/h (3 Bft)
21.06.2023 12:48 23,2 C 29,4 C 62 % 1018,5 hPa 0,0 l/m 10,2 km/h (2 Bft) S-SW 209 3 min 6,7 UV-I 924 W/m 15,5 C 22,1 C 19,3 km/h (3 Bft)
21.06.2023 12:51 23,5 C 29,4 C 64 % 1018,4 hPa 0,0 l/m 11,7 km/h (2 Bft) S-SW 209 3 min 5,8 UV-I 938 W/m 16,3 C 22,1 C 16,1 km/h (3 Bft)
21.06.2023 12:54 23,6 C 28,9 C 61 % 1018,6 hPa 0,0 l/m 8,2 km/h (2 Bft) SO 140 3 min 5,6 UV-I 960 W/m 15,6 C 23,1 C 14,5 km/h (3 Bft)
21.06.2023 12:57 23,7 C 30,0 C 63 % 1018,5 hPa 0,0 l/m 11,6 km/h (2 Bft) S-SO 161 3 min 6,5 UV-I 956 W/m 16,2 C 22,4 C 19,3 km/h (3 Bft)
21.06.2023 13:00 24,2 C 31,1 C 61 % 1018,5 hPa 0,0 l/m 8,5 km/h (2 Bft) S-SO 152 3 min 6,9 UV-I 950 W/m 16,2 C 23,6 C 16,1 km/h (3 Bft)
21.06.2023 13:03 23,8 C 30,6 C 62 % 1018,4 hPa 0,0 l/m 8,6 km/h (2 Bft) S-SO 155 3 min 6,7 UV-I 942 W/m 16,1 C 23,2 C 16,1 km/h (3 Bft)
21.06.2023 13:06 23,3 C 27,2 C 62 % 1018,5 hPa 0,0 l/m 8,9 km/h (2 Bft) O-SO 123 3 min 4,1 UV-I 558 W/m 15,6 C 22,6 C 14,5 km/h (3 Bft)
21.06.2023 13:09 22,9 C 27,8 C 64 % 1018,5 hPa 0,0 l/m 11,2 km/h (2 Bft) S 171 0 min 5,2 UV-I 304 W/m 15,7 C 21,6 C 16,1 km/h (3 Bft)
21.06.2023 13:12 23,1 C 29,4 C 65 % 1018,3 hPa 0,0 l/m 8,2 km/h (2 Bft) S-SW 211 3 min 6,0 UV-I 953 W/m 16,2 C 22,5 C 11,3 km/h (2 Bft)
21.06.2023 13:15 23,3 C 30,6 C 63 % 1018,4 hPa 0,0 l/m 7,8 km/h (2 Bft) SW 236 3 min 5,8 UV-I 992 W/m 15,9 C 22,9 C 12,9 km/h (3 Bft)
21.06.2023 13:18 23,7 C 31,1 C 62 % 1018,4 hPa 0,0 l/m 8,2 km/h (2 Bft) S-SO 150 3 min 7,1 UV-I 993 W/m 16,0 C 23,2 C 16,1 km/h (3 Bft)
21.06.2023 13:21 23,9 C 31,7 C 62 % 1018,3 hPa 0,0 l/m 9,9 km/h (2 Bft) O-SO 120 3 min 7,2 UV-I 998 W/m 16,2 C 23,0 C 20,9 km/h (4 Bft)
21.06.2023 13:24 23,9 C 32,2 C 60 % 1018,3 hPa 0,0 l/m 11,4 km/h (2 Bft) SW 217 3 min 7,3 UV-I 1019 W/m 15,7 C 22,6 C 27,4 km/h (4 Bft)
21.06.2023 13:27 24,6 C 32,2 C 58 % 1018,3 hPa 0,0 l/m 12,0 km/h (2 Bft) W-SW 242 3 min 7,3 UV-I 1009 W/m 15,8 C 23,3 C 24,1 km/h (4 Bft)
21.06.2023 13:30 24,6 C 32,8 C 57 % 1018,3 hPa 0,0 l/m 12,4 km/h (3 Bft) SO 142 3 min 7,5 UV-I 1031 W/m 15,5 C 23,3 C 17,7 km/h (3 Bft)
21.06.2023 13:33 24,8 C 31,7 C 57 % 1018,3 hPa 0,0 l/m 12,1 km/h (2 Bft) SW 225 3 min 6,9 UV-I 974 W/m 15,7 C 23,5 C 22,5 km/h (4 Bft)
21.06.2023 13:36 24,7 C 31,7 C 56 % 1018,4 hPa 0,0 l/m 12,9 km/h (3 Bft) S-SW 198 3 min 6,5 UV-I 859 W/m 15,3 C 23,3 C 20,9 km/h (4 Bft)
21.06.2023 13:39 24,9 C 32,2 C 58 % 1018,5 hPa 0,0 l/m 6,9 km/h (2 Bft) S 186 3 min 6,5 UV-I 1004 W/m 16,1 C 24,8 C 19,3 km/h (3 Bft)
21.06.2023 13:42 24,9 C 31,7 C 57 % 1018,4 hPa 0,0 l/m 7,9 km/h (2 Bft) W-SW 246 3 min 5,2 UV-I 996 W/m 15,8 C 24,5 C 12,9 km/h (3 Bft)
21.06.2023 13:45 24,6 C 30,0 C 56 % 1018,4 hPa 0,0 l/m 10,5 km/h (2 Bft) S 179 3 min 5,9 UV-I 545 W/m 15,2 C 23,6 C 19,3 km/h (3 Bft)
21.06.2023 13:48 24,9 C 30,6 C 56 % 1018,4 hPa 0,0 l/m 13,5 km/h (3 Bft) S-SO 167 3 min 5,8 UV-I 1000 W/m 15,5 C 23,4 C 20,9 km/h (4 Bft)
21.06.2023 13:51 24,7 C 31,1 C 56 % 1018,5 hPa 0,0 l/m 11,6 km/h (2 Bft) SW 225 0 min 5,5 UV-I 359 W/m 15,3 C 23,5 C 22,5 km/h (4 Bft)
21.06.2023 13:54 24,6 C 32,2 C 55 % 1018,4 hPa 0,0 l/m 12,8 km/h (3 Bft) S 175 3 min 6,5 UV-I 717 W/m 14,9 C 23,2 C 20,9 km/h (4 Bft)
21.06.2023 13:57 24,7 C 31,1 C 54 % 1018,4 hPa 0,0 l/m 11,0 km/h (2 Bft) SO 134 3 min 6,3 UV-I 1060 W/m 14,8 C 23,6 C 24,1 km/h (4 Bft)
21.06.2023 14:00 24,9 C 31,7 C 56 % 1018,3 hPa 0,0 l/m 10,4 km/h (2 Bft) S-SW 192 3 min 7,1 UV-I 1049 W/m 15,5 C 24,0 C 19,3 km/h (3 Bft)
21.06.2023 14:03 24,7 C 29,4 C 55 % 1018,5 hPa 0,0 l/m 11,0 km/h (2 Bft) SW 227 3 min 3,7 UV-I 507 W/m 15,0 C 23,6 C 19,3 km/h (3 Bft)
21.06.2023 14:06 24,4 C 27,8 C 56 % 1018,4 hPa 0,0 l/m 8,8 km/h (2 Bft) W 260 0 min 3,6 UV-I 325 W/m 15,0 C 23,8 C 16,1 km/h (3 Bft)
21.06.2023 14:09 24,3 C 27,2 C 55 % 1018,4 hPa 0,0 l/m 9,3 km/h (2 Bft) W-SW 246 0 min 3,4 UV-I 263 W/m 14,7 C 23,5 C 14,5 km/h (3 Bft)
21.06.2023 14:12 24,3 C 29,4 C 56 % 1018,4 hPa 0,0 l/m 9,0 km/h (2 Bft) W-SW 254 0 min 4,7 UV-I 172 W/m 14,9 C 23,6 C 19,3 km/h (3 Bft)
21.06.2023 14:15 24,6 C 32,2 C 56 % 1018,6 hPa 0,0 l/m 10,3 km/h (2 Bft) S 190 3 min 7,2 UV-I 804 W/m 15,2 C 23,7 C 20,9 km/h (4 Bft)
21.06.2023 14:18 25,2 C 32,8 C 52 % 1018,5 hPa 0,0 l/m 8,7 km/h (2 Bft) S-SO 158 3 min 7,2 UV-I 984 W/m 14,6 C 24,7 C 16,1 km/h (3 Bft)
21.06.2023 14:21 25,4 C 31,7 C 54 % 1018,6 hPa 0,0 l/m 11,1 km/h (2 Bft) S 189 3 min 6,7 UV-I 999 W/m 15,4 C 24,4 C 20,9 km/h (4 Bft)
21.06.2023 14:24 24,8 C 28,9 C 54 % 1018,6 hPa 0,0 l/m 17,1 km/h (3 Bft) SW 215 3 min 5,1 UV-I 741 W/m 14,8 C 22,8 C 22,5 km/h (4 Bft)
21.06.2023 14:27 24,2 C 27,8 C 56 % 1018,5 hPa 0,0 l/m 11,5 km/h (2 Bft) S 171 0 min 5,0 UV-I 263 W/m 14,9 C 23,0 C 16,1 km/h (3 Bft)
21.06.2023 14:30 24,0 C 26,7 C 56 % 1018,5 hPa 0,0 l/m 11,3 km/h (2 Bft) W-SW 249 0 min 3,7 UV-I 302 W/m 14,7 C 22,8 C 16,1 km/h (3 Bft)
21.06.2023 14:33 24,5 C 30,0 C 55 % 1018,6 hPa 0,0 l/m 8,6 km/h (2 Bft) S-SW 196 3 min 5,2 UV-I 501 W/m 14,9 C 23,9 C 16,1 km/h (3 Bft)
21.06.2023 14:36 24,9 C 32,2 C 54 % 1018,6 hPa 0,0 l/m 7,5 km/h (2 Bft) S-SO 153 3 min 7,1 UV-I 976 W/m 14,9 C 24,6 C 11,3 km/h (2 Bft)
21.06.2023 14:39 25,7 C 33,9 C 52 % 1018,6 hPa 0,0 l/m 8,3 km/h (2 Bft) SW 232 3 min 7,0 UV-I 945 W/m 15,1 C 25,3 C 20,9 km/h (4 Bft)
21.06.2023 14:42 25,6 C 32,8 C 53 % 1018,6 hPa 0,0 l/m 12,6 km/h (3 Bft) S 181 3 min 6,9 UV-I 924 W/m 15,3 C 24,4 C 27,4 km/h (4 Bft)
21.06.2023 14:45 25,5 C 32,2 C 53 % 1018,5 hPa 0,0 l/m 11,0 km/h (2 Bft) S 182 3 min 6,8 UV-I 911 W/m 15,2 C 24,5 C 20,9 km/h (4 Bft)
21.06.2023 14:48 25,7 C 32,8 C 53 % 1018,5 hPa 0,0 l/m 8,8 km/h (2 Bft) W 262 3 min 6,7 UV-I 889 W/m 15,4 C 25,2 C 16,1 km/h (3 Bft)
21.06.2023 14:51 25,7 C 32,8 C 52 % 1018,5 hPa 0,0 l/m 9,6 km/h (2 Bft) W 259 3 min 6,8 UV-I 900 W/m 15,1 C 25,0 C 17,7 km/h (3 Bft)
21.06.2023 14:54 25,8 C 33,3 C 52 % 1018,4 hPa 0,0 l/m 11,8 km/h (2 Bft) W-SW 258 3 min 6,7 UV-I 910 W/m 15,2 C 24,7 C 20,9 km/h (4 Bft)
21.06.2023 14:57 26,2 C 33,3 C 52 % 1018,5 hPa 0,0 l/m 13,5 km/h (3 Bft) S-SW 196 3 min 6,4 UV-I 861 W/m 15,6 C 25,0 C 25,7 km/h (4 Bft)
21.06.2023 15:00 25,9 C 33,3 C 51 % 1018,5 hPa 0,0 l/m 11,0 km/h (2 Bft) SW 232 3 min 6,5 UV-I 870 W/m 15,0 C 25,0 C 17,7 km/h (3 Bft)
21.06.2023 15:03 26,0 C 33,9 C 51 % 1018,4 hPa 0,0 l/m 8,4 km/h (2 Bft) S-SO 148 3 min 6,4 UV-I 874 W/m 15,1 C 25,6 C 14,5 km/h (3 Bft)
21.06.2023 15:06 26,0 C 33,9 C 51 % 1018,4 hPa 0,0 l/m 9,8 km/h (2 Bft) S-SW 196 3 min 6,2 UV-I 831 W/m 15,1 C 25,3 C 16,1 km/h (3 Bft)
21.06.2023 15:09 26,1 C 33,3 C 51 % 1018,5 hPa 0,0 l/m 12,6 km/h (3 Bft) S-SO 161 3 min 6,3 UV-I 858 W/m 15,2 C 25,0 C 20,9 km/h (4 Bft)
21.06.2023 15:12 26,0 C 32,8 C 51 % 1018,5 hPa 0,0 l/m 9,3 km/h (2 Bft) S-SO 148 3 min 5,9 UV-I 843 W/m 15,1 C 25,4 C 16,1 km/h (3 Bft)
21.06.2023 15:15 25,7 C 32,2 C 51 % 1018,5 hPa 0,0 l/m 11,0 km/h (2 Bft) SO 128 3 min 5,9 UV-I 832 W/m 14,8 C 24,8 C 19,3 km/h (3 Bft)
21.06.2023 15:18 25,6 C 32,2 C 51 % 1018,6 hPa 0,0 l/m 10,9 km/h (2 Bft) O-SO 107 3 min 4,1 UV-I 737 W/m 14,7 C 24,7 C 20,9 km/h (4 Bft)
21.06.2023 15:21 25,2 C 28,3 C 51 % 1018,6 hPa 0,0 l/m 11,2 km/h (2 Bft) S 180 0 min 2,8 UV-I 231 W/m 14,3 C 24,2 C 20,9 km/h (4 Bft)
21.06.2023 15:24 25,0 C 27,2 C 51 % 1018,6 hPa 0,0 l/m 7,6 km/h (2 Bft) SW 218 0 min 3,0 UV-I 274 W/m 14,1 C 24,7 C 17,7 km/h (3 Bft)
21.06.2023 15:27 25,1 C 31,1 C 50 % 1018,6 hPa 0,0 l/m 8,3 km/h (2 Bft) S-SW 196 3 min 5,6 UV-I 689 W/m 13,9 C 24,6 C 17,7 km/h (3 Bft)
21.06.2023 15:30 25,7 C 32,8 C 50 % 1018,6 hPa 0,0 l/m 14,5 km/h (3 Bft) W 261 3 min 6,2 UV-I 916 W/m 14,5 C 24,2 C 20,9 km/h (4 Bft)
21.06.2023 15:33 26,1 C 33,9 C 49 % 1018,6 hPa 0,0 l/m 11,1 km/h (2 Bft) W-SW 244 3 min 6,1 UV-I 909 W/m 14,5 C 25,2 C 20,9 km/h (4 Bft)
21.06.2023 15:36 26,5 C 33,3 C 49 % 1018,5 hPa 0,0 l/m 8,7 km/h (2 Bft) SW 228 3 min 4,8 UV-I 794 W/m 14,9 C 26,0 C 19,3 km/h (3 Bft)
21.06.2023 15:39 25,9 C 29,4 C 49 % 1018,5 hPa 0,0 l/m 10,7 km/h (2 Bft) W-SW 240 0 min 2,9 UV-I 240 W/m 14,4 C 25,0 C 17,7 km/h (3 Bft)
21.06.2023 15:42 25,3 C 28,3 C 51 % 1018,6 hPa 0,0 l/m 9,8 km/h (2 Bft) S-SW 194 0 min 3,4 UV-I 234 W/m 14,4 C 24,5 C 17,7 km/h (3 Bft)
21.06.2023 15:45 24,9 C 27,8 C 52 % 1018,5 hPa 0,0 l/m 9,7 km/h (2 Bft) S-SW 204 0 min 2,2 UV-I 210 W/m 14,4 C 24,1 C 22,5 km/h (4 Bft)
21.06.2023 15:48 24,7 C 26,7 C 51 % 1018,6 hPa 0,0 l/m 11,7 km/h (2 Bft) S-SW 194 0 min 2,1 UV-I 208 W/m 13,9 C 23,5 C 19,3 km/h (3 Bft)
21.06.2023 15:51 24,6 C 26,7 C 52 % 1018,7 hPa 0,0 l/m 10,8 km/h (2 Bft) S 171 0 min 2,3 UV-I 250 W/m 14,1 C 23,6 C 16,1 km/h (3 Bft)
21.06.2023 15:54 24,9 C 28,3 C 53 % 1018,6 hPa 0,0 l/m 6,2 km/h (2 Bft) S 180 0 min 3,7 UV-I 405 W/m 14,6 C 24,9 C 14,5 km/h (3 Bft)
21.06.2023 15:57 25,5 C 32,8 C 52 % 1018,5 hPa 0,0 l/m 7,2 km/h (2 Bft) SW 215 3 min 5,6 UV-I 686 W/m 14,9 C 25,3 C 12,9 km/h (3 Bft)
21.06.2023 16:00 25,8 C 35,6 C 54 % 1018,5 hPa 0,0 l/m 4,3 km/h (1 Bft) NW 310 3 min 5,4 UV-I 847 W/m 15,8 C 25,8 C 11,3 km/h (2 Bft)
21.06.2023 16:03 26,1 C 35,6 C 56 % 1018,6 hPa 0,0 l/m 7,4 km/h (2 Bft) W-SW 242 3 min 5,3 UV-I 863 W/m 16,6 C 25,9 C 16,1 km/h (3 Bft)
21.06.2023 16:06 26,2 C 35,0 C 55 % 1018,6 hPa 0,0 l/m 9,8 km/h (2 Bft) W 278 3 min 5,0 UV-I 890 W/m 16,4 C 25,5 C 17,7 km/h (3 Bft)
21.06.2023 16:09 26,2 C 32,2 C 52 % 1018,6 hPa 0,0 l/m 8,4 km/h (2 Bft) W 279 3 min 3,0 UV-I 521 W/m 15,6 C 25,8 C 16,1 km/h (3 Bft)
21.06.2023 16:12 25,4 C 29,4 C 53 % 1018,6 hPa 0,0 l/m 10,4 km/h (2 Bft) SW 221 0 min 3,0 UV-I 277 W/m 15,1 C 24,5 C 17,7 km/h (3 Bft)
21.06.2023 16:15 25,2 C 28,9 C 55 % 1018,7 hPa 0,0 l/m 7,3 km/h (2 Bft) W 259 0 min 3,0 UV-I 270 W/m 15,5 C 25,0 C 12,9 km/h (3 Bft)
21.06.2023 16:18 25,2 C 28,3 C 56 % 1018,6 hPa 0,0 l/m 9,8 km/h (2 Bft) W-SW 252 0 min 2,8 UV-I 315 W/m 15,8 C 24,4 C 17,7 km/h (3 Bft)
21.06.2023 16:21 24,9 C 27,2 C 55 % 1018,6 hPa 0,0 l/m 8,8 km/h (2 Bft) W-SW 252 0 min 2,5 UV-I 228 W/m 15,2 C 24,3 C 17,7 km/h (3 Bft)
21.06.2023 16:24 24,7 C 26,7 C 57 % 1018,7 hPa 0,0 l/m 6,8 km/h (2 Bft) SW 233 0 min 2,3 UV-I 238 W/m 15,6 C 24,6 C 12,9 km/h (3 Bft)
21.06.2023 16:27 24,6 C 27,2 C 57 % 1018,7 hPa 0,0 l/m 9,2 km/h (2 Bft) W 268 0 min 2,3 UV-I 246 W/m 15,5 C 23,9 C 16,1 km/h (3 Bft)
21.06.2023 16:30 24,6 C 27,2 C 55 % 1018,7 hPa 0,0 l/m 8,5 km/h (2 Bft) S-SW 192 0 min 2,6 UV-I 285 W/m 14,9 C 24,1 C 12,9 km/h (3 Bft)
21.06.2023 16:33 24,7 C 28,3 C 55 % 1018,7 hPa 0,0 l/m 7,4 km/h (2 Bft) SW 234 0 min 3,3 UV-I 319 W/m 15,0 C 24,4 C 14,5 km/h (3 Bft)
21.06.2023 16:36 24,6 C 27,2 C 57 % 1018,6 hPa 0,0 l/m 9,2 km/h (2 Bft) S-SW 198 0 min 2,2 UV-I 209 W/m 15,5 C 23,9 C 19,3 km/h (3 Bft)
21.06.2023 16:39 24,5 C 26,7 C 58 % 1018,8 hPa 0,0 l/m 3,5 km/h (1 Bft) W-SW 248 0 min 2,1 UV-I 208 W/m 15,7 C 24,5 C 11,3 km/h (2 Bft)
21.06.2023 16:42 24,6 C 26,7 C 57 % 1018,6 hPa 0,0 l/m 4,6 km/h (1 Bft) W-SW 254 0 min 2,1 UV-I 229 W/m 15,5 C 24,6 C 11,3 km/h (2 Bft)
21.06.2023 16:45 24,7 C 26,7 C 56 % 1018,8 hPa 0,0 l/m 7,5 km/h (2 Bft) W-SW 258 0 min 2,0 UV-I 235 W/m 15,3 C 24,4 C 14,5 km/h (3 Bft)
21.06.2023 16:48 24,6 C 26,1 C 56 % 1018,8 hPa 0,0 l/m 5,1 km/h (1 Bft) SW 229 0 min 1,9 UV-I 227 W/m 15,2 C 24,6 C 11,3 km/h (2 Bft)
21.06.2023 16:51 24,3 C 26,7 C 56 % 1018,8 hPa 0,0 l/m 4,7 km/h (1 Bft) SW 225 0 min 1,9 UV-I 225 W/m 14,9 C 24,3 C 8,0 km/h (2 Bft)
21.06.2023 16:54 24,4 C 26,7 C 57 % 1018,8 hPa 0,0 l/m 5,5 km/h (1 Bft) S-SW 195 0 min 2,0 UV-I 236 W/m 15,3 C 24,4 C 8,0 km/h (2 Bft)
21.06.2023 16:57 24,3 C 26,1 C 57 % 1018,8 hPa 0,0 l/m 3,9 km/h (1 Bft) S 188 0 min 2,1 UV-I 244 W/m 15,2 C 24,3 C 8,0 km/h (2 Bft)
21.06.2023 17:00 24,3 C 26,7 C 58 % 1018,8 hPa 0,0 l/m 2,4 km/h (1 Bft) S 187 0 min 2,1 UV-I 247 W/m 15,5 C 24,3 C 6,4 km/h (2 Bft)
21.06.2023 17:03 24,6 C 27,2 C 56 % 1018,9 hPa 0,0 l/m 3,3 km/h (1 Bft) S 190 0 min 2,8 UV-I 337 W/m 15,2 C 24,6 C 6,4 km/h (2 Bft)
21.06.2023 17:06 25,1 C 32,8 C 57 % 1018,9 hPa 0,0 l/m 3,3 km/h (1 Bft) S 180 3 min 4,0 UV-I 785 W/m 16,0 C 25,1 C 8,0 km/h (2 Bft)
21.06.2023 17:09 25,5 C 32,8 C 55 % 1018,8 hPa 0,0 l/m 6,2 km/h (2 Bft) SW 217 3 min 4,0 UV-I 762 W/m 15,8 C 25,5 C 11,3 km/h (2 Bft)
21.06.2023 17:12 25,6 C 33,9 C 53 % 1018,7 hPa 0,0 l/m 8,1 km/h (2 Bft) S 188 3 min 3,6 UV-I 711 W/m 15,3 C 25,2 C 11,3 km/h (2 Bft)
21.06.2023 17:15 25,1 C 30,6 C 53 % 1018,7 hPa 0,0 l/m 7,4 km/h (2 Bft) SW 221 0 min 2,4 UV-I 252 W/m 14,8 C 24,9 C 12,9 km/h (3 Bft)
21.06.2023 17:18 25,1 C 31,1 C 55 % 1018,8 hPa 0,0 l/m 4,1 km/h (1 Bft) S-SW 212 3 min 3,2 UV-I 464 W/m 15,4 C 25,1 C 11,3 km/h (2 Bft)
21.06.2023 17:21 25,1 C 28,9 C 54 % 1018,7 hPa 0,0 l/m 8,6 km/h (2 Bft) SO 141 3 min 2,4 UV-I 356 W/m 15,1 C 24,6 C 12,9 km/h (3 Bft)
21.06.2023 17:24 25,4 C 31,7 C 53 % 1018,7 hPa 0,0 l/m 5,9 km/h (2 Bft) SO 145 3 min 3,3 UV-I 348 W/m 15,1 C 25,4 C 11,3 km/h (2 Bft)
21.06.2023 17:27 25,6 C 32,8 C 54 % 1018,8 hPa 0,0 l/m 5,3 km/h (1 Bft) O-SO 117 3 min 3,5 UV-I 663 W/m 15,6 C 25,6 C 11,3 km/h (2 Bft)
21.06.2023 17:30 25,6 C 32,8 C 55 % 1018,7 hPa 0,0 l/m 5,3 km/h (1 Bft) S 177 3 min 3,4 UV-I 634 W/m 15,9 C 25,6 C 9,7 km/h (2 Bft)
21.06.2023 17:33 25,8 C 33,3 C 53 % 1018,7 hPa 0,0 l/m 6,0 km/h (2 Bft) S-SW 209 3 min 3,4 UV-I 612 W/m 15,5 C 25,8 C 11,3 km/h (2 Bft)
21.06.2023 17:36 25,9 C 33,3 C 53 % 1018,7 hPa 0,0 l/m 6,1 km/h (2 Bft) S-SO 159 3 min 3,3 UV-I 605 W/m 15,6 C 25,9 C 11,3 km/h (2 Bft)
21.06.2023 17:39 25,9 C 33,3 C 54 % 1018,8 hPa 0,0 l/m 6,8 km/h (2 Bft) S-SO 151 3 min 3,2 UV-I 600 W/m 15,9 C 25,8 C 11,3 km/h (2 Bft)
21.06.2023 17:42 25,8 C 30,0 C 54 % 1018,8 hPa 0,0 l/m 7,7 km/h (2 Bft) S-SO 163 3 min 2,1 UV-I 348 W/m 15,8 C 25,5 C 11,3 km/h (2 Bft)
21.06.2023 17:45 25,2 C 27,2 C 53 % 1018,8 hPa 0,0 l/m 5,5 km/h (1 Bft) SW 227 0 min 1,7 UV-I 161 W/m 14,9 C 25,2 C 8,0 km/h (2 Bft)
21.06.2023 17:48 24,9 C 27,2 C 55 % 1018,9 hPa 0,0 l/m 1,3 km/h (1 Bft) SW 227 0 min 1,5 UV-I 150 W/m 15,2 C 24,9 C 3,2 km/h (1 Bft)
21.06.2023 17:51 24,8 C 26,1 C 56 % 1018,9 hPa 0,0 l/m 3,2 km/h (1 Bft) S-SW 200 0 min 1,5 UV-I 152 W/m 15,4 C 24,8 C 6,4 km/h (2 Bft)
21.06.2023 17:54 24,8 C 26,1 C 56 % 1018,9 hPa 0,0 l/m 4,9 km/h (1 Bft) S-SO 154 0 min 1,5 UV-I 166 W/m 15,4 C 24,8 C 9,7 km/h (2 Bft)
21.06.2023 17:57 24,8 C 26,1 C 56 % 1018,9 hPa 0,0 l/m 4,3 km/h (1 Bft) S-SO 147 0 min 1,4 UV-I 164 W/m 15,4 C 24,8 C 6,4 km/h (2 Bft)
21.06.2023 18:00 24,8 C 25,6 C 56 % 1018,8 hPa 0,0 l/m 5,7 km/h (1 Bft) S-SO 157 0 min 1,3 UV-I 153 W/m 15,4 C 24,8 C 9,7 km/h (2 Bft)
21.06.2023 18:03 24,8 C 25,6 C 56 % 1018,8 hPa 0,0 l/m 2,7 km/h (1 Bft) S 173 0 min 1,2 UV-I 127 W/m 15,4 C 24,8 C 8,0 km/h (2 Bft)
21.06.2023 18:06 24,7 C 25,6 C 56 % 1018,8 hPa 0,0 l/m 4,7 km/h (1 Bft) S 188 0 min 1,1 UV-I 128 W/m 15,3 C 24,7 C 6,4 km/h (2 Bft)
21.06.2023 18:09 24,6 C 25,6 C 56 % 1018,9 hPa 0,0 l/m 3,2 km/h (1 Bft) S 188 0 min 1,1 UV-I 148 W/m 15,2 C 24,6 C 6,4 km/h (2 Bft)
21.06.2023 18:12 24,7 C 25,6 C 58 % 1018,8 hPa 0,0 l/m 1,9 km/h (1 Bft) S 188 0 min 1,1 UV-I 152 W/m 15,9 C 24,7 C 4,8 km/h (1 Bft)
21.06.2023 18:15 24,7 C 26,1 C 57 % 1018,8 hPa 0,0 l/m 1,6 km/h (1 Bft) S 190 0 min 1,2 UV-I 154 W/m 15,6 C 24,7 C 4,8 km/h (1 Bft)
21.06.2023 18:18 24,8 C 26,1 C 57 % 1018,7 hPa 0,0 l/m 2,6 km/h (1 Bft) S 190 0 min 1,2 UV-I 158 W/m 15,7 C 24,8 C 4,8 km/h (1 Bft)
21.06.2023 18:21 24,7 C 26,1 C 57 % 1018,7 hPa 0,0 l/m 3,3 km/h (1 Bft) S 190 0 min 1,3 UV-I 172 W/m 15,6 C 24,7 C 6,4 km/h (2 Bft)
21.06.2023 18:24 24,7 C 26,1 C 57 % 1018,7 hPa 0,0 l/m 4,5 km/h (1 Bft) S-SW 192 0 min 1,3 UV-I 168 W/m 15,6 C 24,7 C 6,4 km/h (2 Bft)
21.06.2023 18:27 24,6 C 26,1 C 56 % 1018,7 hPa 0,0 l/m 3,3 km/h (1 Bft) S-SW 193 0 min 1,3 UV-I 165 W/m 15,2 C 24,6 C 6,4 km/h (2 Bft)
21.06.2023 18:30 24,5 C 26,1 C 57 % 1018,6 hPa 0,0 l/m 1,5 km/h (1 Bft) S-SW 192 0 min 1,2 UV-I 154 W/m 15,4 C 24,5 C 3,2 km/h (1 Bft)
21.06.2023 18:33 24,5 C 26,1 C 57 % 1018,6 hPa 0,0 l/m 0,8 km/h (0 Bft) S-SW 193 0 min 1,2 UV-I 153 W/m 15,4 C 24,5 C 3,2 km/h (1 Bft)
21.06.2023 18:36 24,5 C 26,1 C 57 % 1018,7 hPa 0,0 l/m 1,9 km/h (1 Bft) S-SW 193 0 min 1,1 UV-I 152 W/m 15,4 C 24,5 C 4,8 km/h (1 Bft)
21.06.2023 18:39 24,6 C 26,7 C 57 % 1018,6 hPa 0,0 l/m 3,8 km/h (1 Bft) NW 305 0 min 1,1 UV-I 156 W/m 15,5 C 24,6 C 8,0 km/h (2 Bft)
21.06.2023 18:42 24,4 C 26,1 C 62 % 1018,5 hPa 0,0 l/m 10,1 km/h (2 Bft) N 350 0 min 1,0 UV-I 159 W/m 16,6 C 23,5 C 17,7 km/h (3 Bft)
21.06.2023 18:45 24,1 C 26,1 C 63 % 1018,6 hPa 0,0 l/m 10,4 km/h (2 Bft) N 355 0 min 1,0 UV-I 169 W/m 16,6 C 23,1 C 16,1 km/h (3 Bft)
21.06.2023 18:48 23,9 C 26,1 C 64 % 1018,7 hPa 0,0 l/m 10,2 km/h (2 Bft) N 5 3 min 0,9 UV-I 274 W/m 16,7 C 22,9 C 17,7 km/h (3 Bft)
21.06.2023 18:51 23,9 C 25,6 C 64 % 1018,6 hPa 0,0 l/m 10,6 km/h (2 Bft) N-NO 16 0 min 0,7 UV-I 143 W/m 16,7 C 22,8 C 14,5 km/h (3 Bft)
21.06.2023 18:54 23,8 C 25,6 C 64 % 1018,7 hPa 0,0 l/m 11,0 km/h (2 Bft) N-NO 13 0 min 0,5 UV-I 106 W/m 16,6 C 22,6 C 16,1 km/h (3 Bft)
21.06.2023 18:57 23,8 C 26,7 C 65 % 1018,8 hPa 0,0 l/m 7,4 km/h (2 Bft) N-NO 12 0 min 0,7 UV-I 171 W/m 16,8 C 23,5 C 11,3 km/h (2 Bft)
21.06.2023 19:00 24,2 C 30,0 C 64 % 1018,7 hPa 0,0 l/m 3,7 km/h (1 Bft) NO 44 3 min 0,8 UV-I 349 W/m 16,9 C 24,2 C 8,0 km/h (2 Bft)
21.06.2023 19:03 24,4 C 31,7 C 64 % 1018,7 hPa 0,0 l/m 5,6 km/h (1 Bft) N-NO 20 3 min 0,8 UV-I 355 W/m 17,1 C 24,4 C 8,0 km/h (2 Bft)
21.06.2023 19:06 24,6 C 30,6 C 63 % 1018,7 hPa 0,0 l/m 5,8 km/h (2 Bft) N-NO 27 3 min 0,7 UV-I 328 W/m 17,1 C 24,6 C 8,0 km/h (2 Bft)
21.06.2023 19:09 24,4 C 28,9 C 64 % 1018,8 hPa 0,0 l/m 8,6 km/h (2 Bft) N 355 0 min 0,6 UV-I 186 W/m 17,1 C 23,8 C 16,1 km/h (3 Bft)
21.06.2023 19:12 23,9 C 26,7 C 64 % 1018,7 hPa 0,0 l/m 14,0 km/h (3 Bft) N-NW 347 0 min 0,6 UV-I 152 W/m 16,7 C 22,1 C 20,9 km/h (4 Bft)
21.06.2023 19:15 23,6 C 26,1 C 65 % 1018,7 hPa 0,0 l/m 11,5 km/h (2 Bft) N 355 0 min 0,7 UV-I 155 W/m 16,6 C 22,3 C 17,7 km/h (3 Bft)
21.06.2023 19:18 23,4 C 25,6 C 66 % 1018,8 hPa 0,0 l/m 8,5 km/h (2 Bft) N-NO 22 0 min 0,6 UV-I 128 W/m 16,7 C 22,8 C 14,5 km/h (3 Bft)
21.06.2023 19:21 23,4 C 25,0 C 67 % 1018,9 hPa 0,0 l/m 9,2 km/h (2 Bft) N-NW 344 0 min 0,6 UV-I 135 W/m 16,9 C 22,6 C 17,7 km/h (3 Bft)
21.06.2023 19:24 23,3 C 25,0 C 67 % 1018,8 hPa 0,0 l/m 9,6 km/h (2 Bft) N 350 0 min 0,7 UV-I 162 W/m 16,8 C 22,4 C 16,1 km/h (3 Bft)
21.06.2023 19:27 23,3 C 25,0 C 67 % 1018,8 hPa 0,0 l/m 10,7 km/h (2 Bft) N-NO 13 0 min 0,6 UV-I 144 W/m 16,8 C 22,1 C 16,1 km/h (3 Bft)
21.06.2023 19:30 23,2 C 24,4 C 67 % 1018,9 hPa 0,0 l/m 11,5 km/h (2 Bft) N 355 0 min 0,6 UV-I 134 W/m 16,7 C 21,8 C 16,1 km/h (3 Bft)
21.06.2023 19:33 23,2 C 24,4 C 68 % 1018,9 hPa 0,0 l/m 9,0 km/h (2 Bft) N 355 0 min 0,5 UV-I 117 W/m 17,0 C 22,4 C 16,1 km/h (3 Bft)
21.06.2023 19:36 23,1 C 24,4 C 68 % 1018,9 hPa 0,0 l/m 7,0 km/h (2 Bft) N-NW 348 0 min 0,0 UV-I 97 W/m 16,9 C 22,9 C 12,9 km/h (3 Bft)
21.06.2023 19:39 23,0 C 23,9 C 67 % 1018,9 hPa 0,0 l/m 11,2 km/h (2 Bft) N 350 0 min 0,1 UV-I 88 W/m 16,5 C 21,7 C 16,1 km/h (3 Bft)
21.06.2023 19:42 23,0 C 24,4 C 68 % 1018,9 hPa 0,0 l/m 7,4 km/h (2 Bft) N 11 0 min 0,0 UV-I 108 W/m 16,8 C 22,7 C 11,3 km/h (2 Bft)
21.06.2023 19:45 23,0 C 23,9 C 67 % 1018,8 hPa 0,0 l/m 8,3 km/h (2 Bft) N-NO 28 0 min 0,0 UV-I 84 W/m 16,5 C 22,4 C 14,5 km/h (3 Bft)
21.06.2023 19:48 22,9 C 23,9 C 68 % 1018,7 hPa 0,0 l/m 9,9 km/h (2 Bft) N-NO 27 0 min 0,0 UV-I 73 W/m 16,7 C 21,9 C 12,9 km/h (3 Bft)
21.06.2023 19:51 22,9 C 23,3 C 68 % 1018,7 hPa 0,0 l/m 9,0 km/h (2 Bft) N-NO 24 0 min 0,0 UV-I 72 W/m 16,7 C 22,1 C 14,5 km/h (3 Bft)
21.06.2023 19:54 22,9 C 23,3 C 68 % 1018,7 hPa 0,0 l/m 7,0 km/h (2 Bft) N-NO 28 0 min 0,0 UV-I 71 W/m 16,7 C 22,7 C 12,9 km/h (3 Bft)
21.06.2023 19:57 22,8 C 23,3 C 69 % 1018,7 hPa 0,0 l/m 6,4 km/h (2 Bft) N-NO 23 0 min 0,0 UV-I 81 W/m 16,8 C 22,8 C 12,9 km/h (3 Bft)
21.06.2023 20:00 22,8 C 23,3 C 68 % 1018,7 hPa 0,0 l/m 6,0 km/h (2 Bft) N-NO 32 0 min 0,0 UV-I 80 W/m 16,6 C 22,8 C 9,7 km/h (2 Bft)
21.06.2023 20:03 22,8 C 23,3 C 69 % 1018,7 hPa 0,0 l/m 5,8 km/h (2 Bft) NO 41 0 min 0,0 UV-I 89 W/m 16,8 C 22,8 C 8,0 km/h (2 Bft)
21.06.2023 20:06 22,8 C 23,3 C 68 % 1018,7 hPa 0,0 l/m 4,7 km/h (1 Bft) NO 42 0 min 0,0 UV-I 100 W/m 16,6 C 22,8 C 8,0 km/h (2 Bft)
21.06.2023 20:09 22,8 C 23,9 C 68 % 1018,7 hPa 0,0 l/m 6,2 km/h (2 Bft) NO 46 3 min 0,0 UV-I 123 W/m 16,6 C 22,8 C 11,3 km/h (2 Bft)
21.06.2023 20:12 22,9 C 23,9 C 68 % 1018,7 hPa 0,0 l/m 7,4 km/h (2 Bft) NO 38 3 min 0,0 UV-I 144 W/m 16,7 C 22,6 C 12,9 km/h (3 Bft)
21.06.2023 20:15 22,9 C 23,9 C 68 % 1018,6 hPa 0,0 l/m 8,3 km/h (2 Bft) NO 42 3 min 0,0 UV-I 136 W/m 16,7 C 22,3 C 12,9 km/h (3 Bft)
21.06.2023 20:18 22,9 C 23,3 C 68 % 1018,6 hPa 0,0 l/m 7,0 km/h (2 Bft) N-NO 32 3 min 0,0 UV-I 119 W/m 16,7 C 22,7 C 9,7 km/h (2 Bft)
21.06.2023 20:21 22,7 C 23,3 C 69 % 1018,4 hPa 0,0 l/m 7,6 km/h (2 Bft) N-NO 21 0 min 0,0 UV-I 98 W/m 16,7 C 22,3 C 11,3 km/h (2 Bft)
21.06.2023 20:24 22,6 C 22,8 C 68 % 1018,2 hPa 0,0 l/m 9,8 km/h (2 Bft) N-NO 17 0 min 0,0 UV-I 83 W/m 16,4 C 21,6 C 17,7 km/h (3 Bft)
21.06.2023 20:27 22,4 C 22,2 C 69 % 1018,3 hPa 0,0 l/m 11,6 km/h (2 Bft) N 9 0 min 0,0 UV-I 79 W/m 16,4 C 20,9 C 19,3 km/h (3 Bft)
21.06.2023 20:30 22,3 C 22,2 C 69 % 1018,3 hPa 0,0 l/m 13,5 km/h (3 Bft) N 5 0 min 0,0 UV-I 76 W/m 16,3 C 20,3 C 20,9 km/h (4 Bft)
21.06.2023 20:33 22,2 C 22,2 C 69 % 1018,3 hPa 0,0 l/m 10,3 km/h (2 Bft) N-NO 26 0 min 0,0 UV-I 74 W/m 16,2 C 21,0 C 17,7 km/h (3 Bft)
21.06.2023 20:36 22,1 C 21,7 C 69 % 1018,2 hPa 0,0 l/m 13,5 km/h (3 Bft) N 5 0 min 0,0 UV-I 74 W/m 16,1 C 20,1 C 20,9 km/h (4 Bft)
21.06.2023 20:39 22,0 C 21,7 C 69 % 1018,3 hPa 0,0 l/m 12,1 km/h (2 Bft) N-NO 32 0 min 0,0 UV-I 61 W/m 16,0 C 20,3 C 17,7 km/h (3 Bft)
21.06.2023 20:42 21,8 C 21,7 C 69 % 1018,3 hPa 0,0 l/m 9,7 km/h (2 Bft) N-NO 12 0 min 0,0 UV-I 55 W/m 15,9 C 20,7 C 17,7 km/h (3 Bft)
21.06.2023 20:45 21,8 C 21,1 C 70 % 1018,3 hPa 0,0 l/m 12,0 km/h (2 Bft) N 360 0 min 0,0 UV-I 51 W/m 16,1 C 20,1 C 20,9 km/h (4 Bft)
21.06.2023 20:48 21,7 C 21,1 C 70 % 1018,3 hPa 0,0 l/m 9,1 km/h (2 Bft) N 360 0 min 0,0 UV-I 47 W/m 16,0 C 20,8 C 16,1 km/h (3 Bft)
21.06.2023 20:51 21,6 C 21,1 C 71 % 1018,2 hPa 0,0 l/m 8,5 km/h (2 Bft) N-NO 12 0 min 0,0 UV-I 43 W/m 16,1 C 20,9 C 14,5 km/h (3 Bft)
21.06.2023 20:54 21,4 C 20,6 C 71 % 1018,2 hPa 0,0 l/m 10,2 km/h (2 Bft) N 351 0 min 0,0 UV-I 36 W/m 15,9 C 20,1 C 16,1 km/h (3 Bft)
21.06.2023 20:57 21,3 C 20,6 C 72 % 1018,2 hPa 0,0 l/m 8,2 km/h (2 Bft) N 355 0 min 0,0 UV-I 31 W/m 16,0 C 20,6 C 14,5 km/h (3 Bft)
21.06.2023 21:00 21,2 C 20,6 C 72 % 1018,2 hPa 0,0 l/m 12,7 km/h (3 Bft) N 11 0 min 0,0 UV-I 32 W/m 15,9 C 19,2 C 19,3 km/h (3 Bft)
21.06.2023 21:03 21,1 C 20,6 C 72 % 1018,4 hPa 0,0 l/m 9,3 km/h (2 Bft) N-NO 13 0 min 0,0 UV-I 37 W/m 15,8 C 20,1 C 17,7 km/h (3 Bft)
21.06.2023 21:06 21,1 C 20,6 C 72 % 1018,4 hPa 0,0 l/m 11,0 km/h (2 Bft) N 355 0 min 0,0 UV-I 39 W/m 15,8 C 19,6 C 17,7 km/h (3 Bft)
21.06.2023 21:09 21,1 C 20,6 C 72 % 1018,5 hPa 0,0 l/m 6,7 km/h (2 Bft) NO 37 0 min 0,0 UV-I 31 W/m 15,8 C 21,0 C 16,1 km/h (3 Bft)
21.06.2023 21:12 21,0 C 20,0 C 73 % 1018,5 hPa 0,0 l/m 7,2 km/h (2 Bft) N-NO 14 0 min 0,0 UV-I 22 W/m 16,0 C 20,7 C 14,5 km/h (3 Bft)
21.06.2023 21:15 20,9 C 20,0 C 73 % 1018,5 hPa 0,0 l/m 7,2 km/h (2 Bft) N 5 0 min 0,0 UV-I 16 W/m 15,9 C 20,6 C 14,5 km/h (3 Bft)
21.06.2023 21:18 20,8 C 19,4 C 73 % 1018,5 hPa 0,0 l/m 5,8 km/h (2 Bft) N 5 0 min 0,0 UV-I 13 W/m 15,8 C 20,8 C 9,7 km/h (2 Bft)
21.06.2023 21:21 20,6 C 19,4 C 73 % 1018,4 hPa 0,0 l/m 4,3 km/h (1 Bft) N 11 0 min 0,0 UV-I 12 W/m 15,6 C 20,6 C 8,0 km/h (2 Bft)
21.06.2023 21:24 20,4 C 18,9 C 74 % 1018,5 hPa 0,0 l/m 4,6 km/h (1 Bft) N-NO 32 0 min 0,0 UV-I 10 W/m 15,6 C 20,4 C 8,0 km/h (2 Bft)
21.06.2023 21:27 20,4 C 18,9 C 74 % 1018,6 hPa 0,0 l/m 9,3 km/h (2 Bft) N 10 0 min 0,0 UV-I 8 W/m 15,6 C 19,3 C 16,1 km/h (3 Bft)
21.06.2023 21:30 20,4 C 18,9 C 73 % 1018,6 hPa 0,0 l/m 10,2 km/h (2 Bft) N 360 0 min 0,0 UV-I 5 W/m 15,4 C 19,0 C 16,1 km/h (3 Bft)
21.06.2023 21:33 20,3 C 18,9 C 73 % 1018,7 hPa 0,0 l/m 8,0 km/h (2 Bft) N 5 0 min 0,0 UV-I 5 W/m 15,3 C 19,7 C 12,9 km/h (3 Bft)
21.06.2023 21:36 20,2 C 18,3 C 74 % 1018,9 hPa 0,0 l/m 6,1 km/h (2 Bft) N 10 0 min 0,0 UV-I 1 W/m 15,4 C 20,2 C 9,7 km/h (2 Bft)
21.06.2023 21:39 20,1 C 17,8 C 74 % 1019,0 hPa 0,0 l/m 4,2 km/h (1 Bft) N 11 0 min 0,0 UV-I 0 W/m 15,3 C 20,1 C 6,4 km/h (2 Bft)
21.06.2023 21:42 19,9 C 17,8 C 74 % 1018,9 hPa 0,0 l/m 5,3 km/h (1 Bft) N-NO 16 0 min 0,0 UV-I 0 W/m 15,1 C 19,9 C 8,0 km/h (2 Bft)
21.06.2023 21:45 19,7 C 17,8 C 75 % 1019,0 hPa 0,0 l/m 5,6 km/h (1 Bft) N-NO 17 0 min 0,0 UV-I 0 W/m 15,1 C 19,7 C 11,3 km/h (2 Bft)
21.06.2023 21:48 19,6 C 17,2 C 75 % 1019,0 hPa 0,0 l/m 5,6 km/h (1 Bft) N-NO 15 0 min 0,0 UV-I 0 W/m 15,0 C 19,6 C 8,0 km/h (2 Bft)
21.06.2023 21:51 19,5 C 17,2 C 75 % 1019,0 hPa 0,0 l/m 3,9 km/h (1 Bft) N-NO 15 0 min 0,0 UV-I 0 W/m 14,9 C 19,5 C 6,4 km/h (2 Bft)
21.06.2023 21:54 19,4 C 16,7 C 75 % 1019,0 hPa 0,0 l/m 4,3 km/h (1 Bft) N-NO 15 0 min 0,0 UV-I 0 W/m 14,8 C 19,4 C 6,4 km/h (2 Bft)
21.06.2023 21:57 19,4 C 16,7 C 75 % 1019,2 hPa 0,0 l/m 1,7 km/h (1 Bft) N-NO 15 0 min 0,0 UV-I 0 W/m 14,8 C 19,4 C 4,8 km/h (1 Bft)
21.06.2023 22:00 19,2 C 16,7 C 76 % 1019,2 hPa 0,0 l/m 2,4 km/h (1 Bft) N-NO 15 0 min 0,0 UV-I 0 W/m 14,9 C 19,2 C 4,8 km/h (1 Bft)
21.06.2023 22:03 19,2 C 16,7 C 76 % 1019,3 hPa 0,0 l/m 3,9 km/h (1 Bft) N-NO 15 0 min 0,0 UV-I 0 W/m 14,9 C 19,2 C 6,4 km/h (2 Bft)
21.06.2023 22:07 19,1 C 16,7 C 76 % 1019,3 hPa 0,0 l/m 3,8 km/h (1 Bft) N-NO 15 0 min 0,0 UV-I 0 W/m 14,8 C 19,1 C 4,8 km/h (1 Bft)
21.06.2023 22:09 19,0 C 16,7 C 76 % 1019,3 hPa 0,0 l/m 4,0 km/h (1 Bft) N-NO 15 0 min 0,0 UV-I 0 W/m 14,7 C 19,0 C 6,4 km/h (2 Bft)
21.06.2023 22:12 18,9 C 16,1 C 76 % 1019,4 hPa 0,0 l/m 3,4 km/h (1 Bft) N-NO 15 0 min 0,0 UV-I 0 W/m 14,6 C 18,9 C 4,8 km/h (1 Bft)
21.06.2023 22:15 18,9 C 16,1 C 76 % 1019,4 hPa 0,0 l/m 4,6 km/h (1 Bft) N-NO 15 0 min 0,0 UV-I 0 W/m 14,6 C 18,9 C 6,4 km/h (2 Bft)
21.06.2023 22:18 18,8 C 16,1 C 77 % 1019,4 hPa 0,0 l/m 4,4 km/h (1 Bft) N-NO 15 0 min 0,0 UV-I 0 W/m 14,7 C 18,8 C 6,4 km/h (2 Bft)
21.06.2023 22:21 18,8 C 16,1 C 77 % 1019,4 hPa 0,0 l/m 3,8 km/h (1 Bft) N-NO 16 0 min 0,0 UV-I 0 W/m 14,7 C 18,8 C 6,4 km/h (2 Bft)
21.06.2023 22:24 18,7 C 16,1 C 77 % 1019,4 hPa 0,0 l/m 5,0 km/h (1 Bft) N-NO 16 0 min 0,0 UV-I 0 W/m 14,6 C 18,7 C 8,0 km/h (2 Bft)
21.06.2023 22:27 18,7 C 16,1 C 77 % 1019,6 hPa 0,0 l/m 3,3 km/h (1 Bft) N-NO 16 0 min 0,0 UV-I 0 W/m 14,6 C 18,7 C 4,8 km/h (1 Bft)
21.06.2023 22:30 18,6 C 15,6 C 77 % 1019,6 hPa 0,0 l/m 2,0 km/h (1 Bft) N-NO 16 0 min 0,0 UV-I 0 W/m 14,5 C 18,6 C 3,2 km/h (1 Bft)
21.06.2023 22:33 18,6 C 16,1 C 77 % 1019,5 hPa 0,0 l/m 2,5 km/h (1 Bft) N-NO 16 0 min 0,0 UV-I 0 W/m 14,5 C 18,6 C 4,8 km/h (1 Bft)
21.06.2023 22:36 18,6 C 15,6 C 78 % 1019,5 hPa 0,0 l/m 3,4 km/h (1 Bft) N-NO 16 0 min 0,0 UV-I 0 W/m 14,7 C 18,6 C 6,4 km/h (2 Bft)
21.06.2023 22:39 18,4 C 15,6 C 78 % 1019,5 hPa 0,0 l/m 3,2 km/h (1 Bft) N-NO 16 0 min 0,0 UV-I 0 W/m 14,5 C 18,4 C 4,8 km/h (1 Bft)
21.06.2023 22:42 18,4 C 15,6 C 78 % 1019,6 hPa 0,0 l/m 2,9 km/h (1 Bft) N-NO 16 0 min 0,0 UV-I 0 W/m 14,5 C 18,4 C 4,8 km/h (1 Bft)
21.06.2023 22:45 18,6 C 15,6 C 77 % 1019,7 hPa 0,0 l/m 2,3 km/h (1 Bft) N-NO 16 0 min 0,0 UV-I 0 W/m 14,5 C 18,6 C 3,2 km/h (1 Bft)
21.06.2023 22:48 18,4 C 15,6 C 77 % 1019,7 hPa 0,0 l/m 1,4 km/h (1 Bft) N-NO 16 0 min 0,0 UV-I 0 W/m 14,3 C 18,4 C 1,6 km/h (1 Bft)
21.06.2023 22:51 18,3 C 15,6 C 78 % 1019,7 hPa 0,0 l/m 0,3 km/h (0 Bft) N-NO 16 0 min 0,0 UV-I 0 W/m 14,4 C 18,3 C 1,6 km/h (1 Bft)
21.06.2023 22:54 18,2 C 15,6 C 78 % 1019,7 hPa 0,0 l/m 0,1 km/h (0 Bft) N-NO 16 0 min 0,0 UV-I 0 W/m 14,3 C 18,2 C 1,6 km/h (1 Bft)
21.06.2023 22:57 18,2 C 16,1 C 78 % 1019,6 hPa 0,0 l/m 0,0 km/h (0 Bft) N-NO 16 0 min 0,0 UV-I 0 W/m 14,3 C 18,2 C 0,0 km/h (0 Bft)
21.06.2023 23:00 18,2 C 16,1 C 78 % 1019,5 hPa 0,0 l/m 0,1 km/h (0 Bft) N-NO 16 0 min 0,0 UV-I 0 W/m 14,3 C 18,2 C 1,6 km/h (1 Bft)
21.06.2023 23:03 18,2 C 16,1 C 78 % 1019,5 hPa 0,0 l/m 2,6 km/h (1 Bft) N-NO 16 0 min 0,0 UV-I 0 W/m 14,3 C 18,2 C 3,2 km/h (1 Bft)
21.06.2023 23:06 18,1 C 16,1 C 79 % 1019,5 hPa 0,0 l/m 3,3 km/h (1 Bft) N-NO 16 0 min 0,0 UV-I 0 W/m 14,4 C 18,1 C 4,8 km/h (1 Bft)
21.06.2023 23:09 18,1 C 16,1 C 79 % 1019,4 hPa 0,0 l/m 3,2 km/h (1 Bft) N-NO 16 0 min 0,0 UV-I 0 W/m 14,4 C 18,1 C 4,8 km/h (1 Bft)
21.06.2023 23:12 18,0 C 15,6 C 79 % 1019,4 hPa 0,0 l/m 4,4 km/h (1 Bft) N-NO 16 0 min 0,0 UV-I 0 W/m 14,3 C 18,0 C 6,4 km/h (2 Bft)
21.06.2023 23:15 17,9 C 15,6 C 79 % 1019,5 hPa 0,0 l/m 3,3 km/h (1 Bft) N-NO 16 0 min 0,0 UV-I 0 W/m 14,2 C 17,9 C 4,8 km/h (1 Bft)
21.06.2023 23:18 17,9 C 15,6 C 79 % 1019,5 hPa 0,0 l/m 2,5 km/h (1 Bft) N-NO 16 0 min 0,0 UV-I 0 W/m 14,2 C 17,9 C 4,8 km/h (1 Bft)
21.06.2023 23:21 17,8 C 15,6 C 79 % 1019,5 hPa 0,0 l/m 2,5 km/h (1 Bft) N-NO 16 0 min 0,0 UV-I 0 W/m 14,1 C 17,8 C 4,8 km/h (1 Bft)
21.06.2023 23:24 17,8 C 15,6 C 79 % 1019,5 hPa 0,0 l/m 1,2 km/h (1 Bft) N-NO 16 0 min 0,0 UV-I 0 W/m 14,1 C 17,8 C 3,2 km/h (1 Bft)
21.06.2023 23:27 17,6 C 15,6 C 80 % 1019,6 hPa 0,0 l/m 0,3 km/h (0 Bft) N-NO 16 0 min 0,0 UV-I 0 W/m 14,1 C 17,6 C 3,2 km/h (1 Bft)
21.06.2023 23:30 17,3 C 15,6 C 80 % 1019,7 hPa 0,0 l/m 1,7 km/h (1 Bft) N-NO 16 0 min 0,0 UV-I 0 W/m 13,8 C 17,3 C 3,2 km/h (1 Bft)
21.06.2023 23:33 17,3 C 15,6 C 81 % 1019,5 hPa 0,0 l/m 1,7 km/h (1 Bft) N-NO 16 0 min 0,0 UV-I 0 W/m 14,0 C 17,3 C 3,2 km/h (1 Bft)
21.06.2023 23:36 17,4 C 15,6 C 81 % 1019,6 hPa 0,0 l/m 0,0 km/h (0 Bft) N-NO 16 0 min 0,0 UV-I 0 W/m 14,1 C 17,4 C 0,0 km/h (0 Bft)
21.06.2023 23:39 17,4 C 15,6 C 81 % 1019,5 hPa 0,0 l/m 0,0 km/h (0 Bft) N-NO 16 0 min 0,0 UV-I 0 W/m 14,1 C 17,4 C 0,0 km/h (0 Bft)
21.06.2023 23:42 17,5 C 15,6 C 81 % 1019,5 hPa 0,0 l/m 0,0 km/h (0 Bft) N-NO 16 0 min 0,0 UV-I 0 W/m 14,2 C 17,5 C 0,0 km/h (0 Bft)
21.06.2023 23:45 17,7 C 15,6 C 80 % 1019,4 hPa 0,0 l/m 0,0 km/h (0 Bft) N-NO 16 0 min 0,0 UV-I 0 W/m 14,2 C 17,7 C 0,0 km/h (0 Bft)
21.06.2023 23:48 17,6 C 15,6 C 80 % 1019,4 hPa 0,0 l/m 0,0 km/h (0 Bft) N-NO 16 0 min 0,0 UV-I 0 W/m 14,1 C 17,6 C 0,0 km/h (0 Bft)
21.06.2023 23:51 17,6 C 15,6 C 81 % 1019,3 hPa 0,0 l/m 0,0 km/h (0 Bft) N-NO 16 0 min 0,0 UV-I 0 W/m 14,3 C 17,6 C 0,0 km/h (0 Bft)
21.06.2023 23:54 17,7 C 15,6 C 80 % 1019,2 hPa 0,0 l/m 0,0 km/h (0 Bft) N-NO 16 0 min 0,0 UV-I 0 W/m 14,2 C 17,7 C 0,0 km/h (0 Bft)
21.06.2023 23:57 17,8 C 15,6 C 80 % 1019,3 hPa 0,0 l/m 0,0 km/h (0 Bft) N-NO 16 0 min 0,0 UV-I 0 W/m 14,3 C 17,8 C 0,0 km/h (0 Bft)
21.06.2023 23:58 17,8 C 15,6 C 80 % 1019,3 hPa 0,0 l/m 0,0 km/h (0 Bft) N 0 0 min 0,0 UV-I 0 W/m 14,3 C 17,8 C 0,0 km/h (0 Bft)
21.06.2023 23:59 17,7 C 15,6 C 80 % 1019,4 hPa 0,0 l/m 0,0 km/h (0 Bft) N 0 0 min 0,0 UV-I 0 W/m 14,2 C 17,7 C 0,0 km/h (0 Bft)
_ Min-Zeit 05:27 03:42 15:33 01:18 - 00:07 - - - - - 04:43 04:43 02:35
Minimum _ 14,0 C 12,2 C 49 % 1014,2 hPa - 0,0 km/h (0 Bft) - - - - - 12,7 C 14,1 C 0,0 km/h (0 Bft)
_ Max-Zeit 15:36 16:00 05:41 22:45 00:00 14:24 - - 07:42 13:30 13:57 19:03 15:36 13:24
Maximum _ 26,6 C 35,6 C 93 % 1019,7 hPa 0,0 l/m 17,1 km/h
SW (3 Bft)
- - 3 min 7,5 UV-I 1060 W/m 17,1 C 26,0 C 27,4 km/h
SW (4 Bft)
Durchschnitt _ 19,8 C 20,9 C 75 % 1017,4 hPa #0,0 l/m 6,1 km/h (2 Bft) SW - #7:01 h 3,3 UV-I 362 W/m 15,0 C 19,4 C 10,4 km/h (2 Bft)